Date StartTime U_cm/s V_cm/s W_cm/s Ustd_cm/s Vstd_cm/s Wstd_cm/s Uvar_(cm/s)^2 Vvar_(cm/s)^2 Wvar_(cm/s)^2 KE_(m/s)^2 TurbulentKE_(m/s)^2 HorizWindSpeed_cm/s FrictionSpeec_cm/s DragCoef SpeedOfSound_m/s SonicTemperature_C Pressure_mb 
11/14/2014  00:00:00     -183.925       -1.740       -7.083      134.876       92.079       50.148    18191.533     8478.599     2514.848        3.153        1.459      183.933       47.546        0.067      338.020       10.387      860.155
11/14/2014  00:01:00     -280.058     -128.525       -9.779      137.151      125.382       66.250    18810.473    15720.631     4389.124        6.698        1.946      308.142       58.388        0.036      338.015       10.376      860.131
11/14/2014  00:02:00     -198.366      -53.044        4.721      127.692      133.387       63.424    16305.165    17791.974     4022.577        4.014        1.906      205.335       62.540        0.093      338.000       10.351      860.120
11/14/2014  00:03:00     -279.819      -56.004      -10.106      181.390      112.897       62.597    32902.252    12745.794     3918.378        6.554        2.478      285.369       71.893        0.063      337.986       10.329      860.127
11/14/2014  00:04:00     -381.180      -23.905      -34.390      158.008      106.589       64.676    24966.604    11361.169     4182.942        9.377        2.026      381.928       78.196        0.042      337.975       10.309      860.140
11/14/2014  00:05:00     -380.648      -79.714      -23.091      153.835      115.042       69.538    23665.194    13234.608     4835.543        9.675        2.087      388.905       55.019        0.020      337.950       10.267      860.149
11/14/2014  00:06:00     -225.590      -73.058       -0.538      148.623      116.147       62.956    22088.855    13490.147     3963.411        4.788        1.977      237.125       59.377        0.063      337.953       10.274      860.149
11/14/2014  00:07:00     -180.983      -13.899        5.673      147.671      116.526       76.076    21806.619    13578.220     5787.514        3.707        2.059      181.515       81.672        0.202      337.943       10.257      860.140
11/14/2014  00:08:00     -361.292      -50.098       -3.012      167.219      115.825       71.779    27962.356    13415.520     5152.237        8.978        2.327      364.749       60.382        0.027      337.927       10.229      860.145
11/14/2014  00:09:00     -415.165      -60.750      -18.203      170.196      105.539       74.270    28966.577    11138.540     5516.050       11.099        2.281      419.587       82.201        0.038      337.923       10.220      860.144
11/14/2014  00:10:00     -328.426      -47.262      -12.458      179.124      150.750       89.772    32085.306    22725.561     8058.998        8.655        3.143      331.809       93.225        0.079      337.928       10.231      860.131
11/14/2014  00:11:00     -373.122     -135.403      -20.032      185.439      175.489       78.308    34387.718    30796.380     6132.086       11.462        3.566      396.930       94.297        0.056      337.939       10.249      860.130
11/14/2014  00:12:00     -488.300      -99.827      -36.466      166.300      141.664       80.158    27655.533    20068.803     6425.252       15.193        2.707      498.399       80.542        0.026      337.930       10.232      860.129
11/14/2014  00:13:00     -395.608      -59.499      -41.851      173.918      134.127       75.591    30247.339    17990.093     5713.938       10.786        2.698      400.058       80.391        0.040      337.923       10.221      860.141
11/14/2014  00:14:00     -469.176      -44.551      -22.953      154.034      140.274       69.513    23726.323    19676.857     4832.060       13.543        2.412      471.286       68.897        0.021      337.911       10.199      860.154
11/14/2014  00:15:00     -385.141      -35.827      -36.838      153.062      131.376       61.753    23427.971    17259.675     3813.484        9.773        2.225      386.804       60.828        0.025      337.912       10.202      860.153
11/14/2014  00:16:00     -224.633      -87.625        6.885      150.491      138.234       70.285    22647.440    19108.742     4939.956        5.243        2.335      241.118       71.052        0.087      337.920       10.216      860.145
11/14/2014  00:17:00     -378.540     -133.589       -8.970      188.105      130.961       69.435    35383.423    17150.858     4821.278       10.928        2.868      401.420       77.609        0.037      337.901       10.184      860.150
11/14/2014  00:18:00     -419.274     -126.551        1.811      130.855      150.339       80.070    17122.993    22601.772     6411.270       11.896        2.307      437.957       74.226        0.029      337.897       10.175      860.153
11/14/2014  00:19:00     -522.342      -92.904      -57.714      173.162      163.004       72.851    29984.976    26570.369     5307.236       17.332        3.093      530.539       72.252        0.019      337.894       10.171      860.147
11/14/2014  00:20:00     -363.105        8.179      -34.822      177.065      128.464       81.485    31352.039    16502.972     6639.811        9.380        2.725      363.197       91.917        0.064      337.886       10.157      860.147
11/14/2014  00:21:00     -412.472      -63.636      -35.096      184.474      153.180       74.213    34030.837    23464.254     5507.579       11.920        3.150      417.352       79.906        0.037      337.883       10.153      860.145
11/14/2014  00:22:00     -421.464     -126.283      -19.514      132.762      156.967       75.079    17625.692    24638.688     5636.786       12.092        2.395      439.976       70.398        0.026      337.864       10.121      860.132
11/14/2014  00:23:00     -431.520     -154.228      -17.938      181.429      135.428       71.757    32916.392    18340.758     5149.008       13.335        2.820      458.253       71.976        0.025      337.852       10.102      860.140
11/14/2014  00:24:00     -478.539     -178.890      -11.368      185.575      114.331       73.953    34438.013    13071.644     5469.015       15.704        2.649      510.882       65.104        0.016      337.840       10.081      860.168
11/14/2014  00:25:00     -498.590      -92.633      -31.244      197.854      191.866       85.216    39146.140    36812.552     7261.692       17.067        4.161      507.122       84.023        0.027      337.832       10.070      860.158
11/14/2014  00:26:00     -490.995     -134.028      -14.532      174.317      119.760       76.975    30386.248    14342.473     5925.164       15.494        2.533      508.959       61.117        0.014      337.825       10.056      860.136
11/14/2014  00:27:00     -367.697     -142.159      -10.758      149.088      139.494       65.792    22227.360    19458.587     4328.578       10.076        2.301      394.221       65.203        0.027      337.819       10.048      860.145
11/14/2014  00:28:00     -446.095      -23.402      -22.899      191.742      140.088       82.073    36764.835    19624.663     6736.059       13.159        3.156      446.708       92.146        0.043      337.797       10.011      860.167
11/14/2014  00:29:00     -511.330     -117.934      -27.185      169.784      167.890       89.924    28826.734    28187.117     8086.370       17.059        3.255      524.754       98.567        0.035      337.777        9.976      860.156
11/14/2014  00:30:00     -485.218      -60.402      -24.969      155.462      188.477       73.458    24168.529    35523.747     5396.005       15.239        3.254      488.963       64.343        0.017      337.771        9.967      860.155
11/14/2014  00:31:00     -524.246     -148.365      -35.906      182.167      144.924       75.917    33184.637    21002.946     5763.411       17.903        2.998      544.835       77.769        0.020      337.771        9.967      860.137
11/14/2014  00:32:00     -464.349      -75.915      -38.130      135.396      129.930       67.853    18332.046    16881.691     4603.963       13.132        1.991      470.513       58.289        0.015      337.758        9.945      860.140
11/14/2014  00:33:00     -355.837     -114.710      -19.872      123.927      113.253       66.785    15357.949    12826.229     4460.275        8.640        1.632      373.870       57.873        0.024      337.758        9.944      860.133
11/14/2014  00:34:00     -383.122      -77.950      -13.958      163.189      120.010       66.385    26630.608    14402.285     4407.004        9.924        2.272      390.972       67.167        0.030      337.752        9.936      860.135
11/14/2014  00:35:00     -313.391      -56.344      -23.145      182.545      132.368       79.513    33322.750    17521.279     6322.287        7.953        2.858      318.416       94.411        0.088      337.751        9.934      860.132
11/14/2014  00:36:00     -404.868     -145.070      -23.757      117.458      146.462       66.968    13796.495    21451.222     4484.700       11.262        1.987      430.073       47.941        0.012      337.741        9.917      860.132
11/14/2014  00:37:00     -313.236       -7.828      -15.902      165.086      182.472       81.136    27253.515    33296.143     6583.109        8.277        3.357      313.334       87.085        0.077      337.740        9.917      860.128
11/14/2014  00:38:00     -267.863     -114.207        9.471      207.538      115.187       77.844    43072.072    13268.107     6059.617        7.363        3.120      291.194       97.399        0.112      337.741        9.917      860.151
11/14/2014  00:39:00     -383.421     -104.367      -20.022      112.367      113.939       61.787    12626.242    12982.077     3817.668        9.386        1.471      397.372       59.639        0.023      337.728        9.897      860.180
11/14/2014  00:40:00     -378.901       -4.586      -32.349      138.481      133.958       62.385    19176.856    17944.849     3891.867        9.282        2.051      378.929       64.377        0.029      337.735        9.908      860.220
11/14/2014  00:41:00     -424.009     -125.806      -31.523      199.287      114.347       85.226    39715.177    13075.280     7263.545       12.832        3.003      442.279      100.376        0.052      337.763        9.954      860.231
11/14/2014  00:42:00     -319.845     -152.406      -14.765      122.201      100.902       63.197    14933.057    10181.197     3993.827        7.742        1.455      354.300       60.463        0.029      337.757        9.943      860.253
11/14/2014  00:43:00     -204.066      -26.772       16.139      185.463      137.285       79.161    34396.699    18847.183     6266.479        5.105        2.976      205.814       94.491        0.211      337.791       10.002      860.274
11/14/2014  00:44:00     -345.629     -155.140      -15.299      143.155      105.584       77.031    20493.436    11148.010     5933.715        9.066        1.879      378.850       78.221        0.043      337.803       10.020      860.288
11/14/2014  00:45:00     -305.735      -97.945      -11.227      149.601      121.260       72.557    22380.496    14703.944     5264.533        7.276        2.117      321.041       76.666        0.057      337.784        9.988      860.299
11/14/2014  00:46:00     -277.206     -112.051      -22.923      180.307      122.165       71.962    32510.663    14924.333     5178.572        7.126        2.631      298.996       87.165        0.085      337.785        9.992      860.288
11/14/2014  00:47:00     -211.895     -100.820       -6.113      125.639       93.019       54.232    15785.271     8652.511     2941.078        4.123        1.369      234.658       58.477        0.062      337.779        9.982      860.309
11/14/2014  00:48:00     -355.488      -84.739      -23.859       90.705       95.820       45.235     8227.391     9181.483     2046.160        7.678        0.973      365.449       39.168        0.011      337.760        9.950      860.318
11/14/2014  00:49:00     -344.396     -112.876      -21.578      121.123      105.858       55.598    14670.802    11206.008     3091.138        8.039        1.448      362.422       42.747        0.014      337.756        9.942      860.317
11/14/2014  00:50:00     -300.966     -108.290        2.453      150.096      106.075       69.043    22528.883    11251.977     4766.913        7.042        1.927      319.855       81.915        0.066      337.750        9.933      860.320
11/14/2014  00:51:00     -322.522      -14.389      -16.760      143.165      101.949       58.314    20496.328    10393.596     3400.535        6.939        1.715      322.843       63.032        0.038      337.754        9.939      860.327
11/14/2014  00:52:00     -207.324      -67.400       -6.239      114.360      105.456       47.104    13078.322    11120.893     2218.827        3.699        1.321      218.004       48.520        0.050      337.746        9.925      860.326
11/14/2014  00:53:00     -240.020      -53.581       -7.278      142.248      127.900       59.447    20234.534    16358.288     3533.933        5.032        2.006      245.927       66.132        0.072      337.738        9.913      860.327
11/14/2014  00:54:00     -269.866      -41.989       -6.458      128.829       84.565       55.012    16596.956     7151.215     3026.334        5.070        1.339      273.113       58.154        0.045      337.741        9.917      860.328
11/14/2014  00:55:00     -302.283      -75.980      -10.883      129.869       97.476       53.124    16865.845     9501.476     2822.158        6.322        1.459      311.686       55.217        0.031      337.738        9.913      860.324
11/14/2014  00:56:00     -335.818     -148.515      -19.143      143.731       86.585       54.117    20658.574     7497.029     2928.660        8.313        1.554      367.193       52.272        0.020      337.746        9.924      860.308
11/14/2014  00:57:00     -248.733      -85.936       -1.455      131.582      105.880       44.857    17313.845    11210.487     2012.169        4.989        1.527      263.160       55.824        0.045      337.736        9.912      860.316
11/14/2014  00:58:00     -300.283      -52.109      -21.031      121.065      110.790       51.914    14656.659    12274.529     2695.094        6.147        1.481      304.771       54.141        0.032      337.758        9.946      860.300
11/14/2014  00:59:00     -316.140      -35.438      -19.892       84.448      100.580       47.446     7131.426    10116.336     2251.105        6.054        0.975      318.120       36.169        0.013      337.755        9.940      860.285
11/14/2014  01:00:00     -374.140      -75.421      -19.337      114.228       94.707       52.463    13048.095     8969.500     2752.414        8.540        1.239      381.666       43.067        0.013      337.766        9.958      860.268
11/14/2014  01:01:00     -334.018      -81.616      -10.936      108.919       94.637       58.244    11863.289     8956.108     3392.396        7.128        1.211      343.845       60.002        0.030      337.804       10.023      860.250
11/14/2014  01:02:00     -307.943       31.395      -18.957      137.902      102.610       57.588    19016.901    10528.775     3316.372        6.451        1.643      309.539       64.126        0.043      337.796       10.009      860.235
11/14/2014  01:03:00     -444.132       23.225      -37.980      121.216      139.511       65.541    14693.246    19463.204     4295.653       11.884        1.923      444.739       63.167        0.020      337.812       10.034      860.210
11/14/2014  01:04:00     -380.178      -95.950      -20.716      125.135      100.890       64.206    15658.675    10178.815     4122.474        9.206        1.498      392.100       60.917        0.024      337.816       10.043      860.187
11/14/2014  01:05:00     -221.004      -93.083      -10.747      102.048       98.869       55.991    10413.883     9775.127     3134.971        4.047        1.166      239.806       48.599        0.041      337.793       10.003      860.196
11/14/2014  01:06:00     -243.284     -112.225      -12.395      110.476       82.443       42.173    12204.873     6796.858     1778.522        4.635        1.039      267.920       42.026        0.025      337.770        9.966      860.188
11/14/2014  01:07:00     -220.229      -49.817      -11.783       66.491       59.173       36.963     4421.026     3501.431     1366.257        3.020        0.464      225.793       32.836        0.021      337.762        9.951      860.170
11/14/2014  01:08:00     -246.574      -43.894      -18.992       76.133       62.907       39.943     5796.298     3957.321     1595.424        3.722        0.567      250.450       31.944        0.016      337.737        9.910      860.160
11/14/2014  01:09:00     -376.606       61.060      -42.145      107.161       86.088       46.394    11483.451     7411.071     2152.448        8.419        1.052      381.524       48.856        0.016      337.750        9.932      860.133
11/14/2014  01:10:00     -309.546      -40.259      -29.115      100.870       69.524       46.208    10174.811     4833.568     2135.170        5.771        0.857      312.153       48.441        0.024      337.758        9.945      860.109
11/14/2014  01:11:00     -291.041      101.981      -22.817      147.763      126.834       71.473    21833.787    16086.941     5108.371        6.932        2.151      308.391       70.518        0.052      337.762        9.953      860.087
11/14/2014  01:12:00     -260.744      -69.013       -7.539      126.654       76.581       46.524    16041.133     5864.614     2164.512        4.843        1.204      269.723       48.119        0.032      337.739        9.914      860.088
11/14/2014  01:13:00     -250.385      -82.545       -2.554      128.850       91.202       57.358    16602.425     8317.881     3289.985        4.886        1.411      263.641       70.132        0.071      337.790        9.997      860.044
11/14/2014  01:14:00     -458.910      -71.321      -23.287      159.829      105.735       71.842    25545.387    11179.819     5161.298       12.905        2.094      464.419       71.569        0.024      337.814       10.039      860.029
11/14/2014  01:15:00     -282.452      -54.542      -21.872      125.112      101.526       62.623    15653.019    10307.602     3921.588        5.655        1.494      287.670       68.860        0.057      337.789        9.999      860.015
11/14/2014  01:16:00     -234.056      -88.158       -7.431       97.476       78.662       49.398     9501.526     6187.763     2440.203        4.037        0.906      250.108       40.948        0.027      337.777        9.978      860.029
11/14/2014  01:17:00     -307.428       27.303      -24.821      138.590      109.272       56.212    19207.284    11940.352     3159.741        6.508        1.715      308.638       45.169        0.021      337.760        9.948      860.023
11/14/2014  01:18:00     -224.374      -58.571       -2.756      101.306       78.483       48.765    10262.904     6159.553     2378.001        3.629        0.940      231.893       46.183        0.040      337.767        9.961      859.997
11/14/2014  01:19:00     -410.184      -71.317      -11.002      175.182      147.702       76.894    30688.745    21815.966     5912.690       11.593        2.921      416.338       87.019        0.044      337.801       10.017      859.976
11/14/2014  01:20:00     -460.805     -163.852      -38.057      167.524      153.952       81.183    28064.406    23701.101     6590.611       14.949        2.918      489.069       63.782        0.017      337.865       10.122      859.936
11/14/2014  01:21:00     -269.986      -11.970      -10.016      165.860      103.294       74.563    27509.623    10669.712     5559.571        5.843        2.187      270.252       77.078        0.081      337.825       10.058      859.940
11/14/2014  01:22:00     -325.811     -106.205      -14.627      107.994       98.664       54.430    11662.667     9734.511     2962.632        7.100        1.218      342.684       56.018        0.027      337.806       10.026      859.945
11/14/2014  01:23:00     -266.292      -56.260        4.876      118.443      144.395       63.980    14028.832    20849.952     4093.410        5.653        1.949      272.170       59.273        0.047      337.805       10.023      859.939
11/14/2014  01:24:00     -428.267     -145.951      -12.835      169.544      146.796       74.834    28745.045    21549.129     5600.113       13.038        2.795      452.453       84.189        0.035      337.866       10.125      859.926
11/14/2014  01:25:00     -485.782     -112.800       -5.690      225.399      171.393       99.389    50804.698    29375.594     9878.221       16.938        4.503      498.706      111.189        0.050      337.917       10.212      859.932
11/14/2014  01:26:00     -296.463     -111.296       -0.149      168.744      133.499       75.948    28474.644    17822.010     5768.124        7.616        2.603      316.665       93.297        0.087      337.900       10.182      859.963
11/14/2014  01:27:00     -352.916      -95.722      -11.924      147.549      144.362       83.374    21770.678    20840.409     6951.186        9.170        2.478      365.667       80.505        0.048      337.908       10.195      859.972
11/14/2014  01:28:00     -324.408      -99.972      -10.270      163.973      132.707       70.761    26887.264    17611.097     5007.097        8.241        2.475      339.462       82.614        0.059      337.889       10.164      859.966
11/14/2014  01:29:00     -256.266      -14.447       -0.709      141.915      115.429       61.514    20139.926    13323.828     3783.962        5.156        1.862      256.673       64.219        0.063      337.854       10.106      859.965
11/14/2014  01:30:00     -211.717       -7.850       -0.299      134.783      107.553       63.894    18166.457    11567.659     4082.463        3.934        1.691      211.863       58.580        0.076      337.882       10.153      859.958
11/14/2014  01:31:00     -355.727      -87.795      -17.953      182.326      108.704       80.273    33242.605    11816.535     6443.795        9.303        2.575      366.401       68.089        0.035      337.928       10.230      859.938
11/14/2014  01:32:00     -250.492      -67.608        7.983      152.787      127.249       79.703    23343.842    16192.266     6352.557        5.663        2.294      259.455       71.608        0.076      337.928       10.230      859.963
11/14/2014  01:33:00     -260.296      -50.411        4.749      151.433      129.545       68.970    22932.036    16781.897     4756.835        5.739        2.224      265.133       62.688        0.056      337.952       10.270      859.963
11/14/2014  01:34:00     -289.631      -53.352       16.468      175.926      164.058       79.436    30949.904    26915.105     6310.045        7.558        3.209      294.504       95.318        0.105      337.936       10.243      859.987
11/14/2014  01:35:00     -254.422      -65.015       -0.660      204.250      136.418       89.406    41718.240    18609.763     7993.419        6.863        3.416      262.598      105.841        0.162      337.953       10.273      860.000
11/14/2014  01:36:00     -304.481      -34.229      -19.383      127.060       93.443       61.375    16144.271     8731.584     3766.940        6.144        1.432      306.399       62.423        0.042      337.931       10.235      860.033
11/14/2014  01:37:00     -298.236      -65.012       -4.106      170.753      119.981       70.848    29156.580    14395.475     5019.404        7.087        2.429      305.240       88.203        0.083      337.916       10.209      860.028
11/14/2014  01:38:00     -300.522     -111.576      -17.208      172.763      142.922       71.389    29847.065    20426.699     5096.345        7.920        2.769      320.567       77.452        0.058      337.936       10.245      860.012
11/14/2014  01:39:00     -234.059     -127.667       -3.934      123.305      109.530       52.787    15204.139    11996.740     2786.474        5.054        1.499      266.613       37.227        0.019      337.904       10.189      860.008
11/14/2014  01:40:00     -270.417      -68.282        2.676      220.232      140.062       87.473    48502.314    19617.267     7651.565        7.677        3.789      278.904      121.963        0.191      337.902       10.185      859.996
11/14/2014  01:41:00     -388.771       -2.884      -22.238      247.272      142.353       69.280    61143.369    20264.262     4799.686       11.891        4.310      388.782       85.477        0.048      337.912       10.203      859.979
11/14/2014  01:42:00     -343.206     -151.369      -19.503      127.596      151.406       75.216    16280.639    22923.680     5657.397        9.296        2.243      375.104       65.986        0.031      337.912       10.202      859.974
11/14/2014  01:43:00     -229.006     -157.369       -4.846      157.603      109.770       76.769    24838.843    12049.382     5893.536        6.000        2.139      277.864       79.389        0.082      337.909       10.197      859.952
11/14/2014  01:44:00     -513.587     -121.854      -18.814      158.156      125.642       80.961    25013.362    15785.787     6554.726       16.315        2.368      527.845       72.743        0.019      337.897       10.175      859.958
11/14/2014  01:45:00     -330.010      -57.895      -15.378      203.946      118.441       68.465    41593.799    14028.389     4687.400        8.639        3.015      335.049       68.725        0.042      337.898       10.178      859.956
11/14/2014  01:46:00     -277.587     -122.432       -8.995      134.817      138.613       64.201    18175.606    19213.570     4121.754        6.681        2.076      303.388       67.335        0.049      337.888       10.162      859.971
11/14/2014  01:47:00     -374.528     -118.328       -1.602      153.986      125.440       71.073    23711.741    15735.227     5051.309        9.938        2.225      392.776       72.393        0.034      337.882       10.151      859.953
11/14/2014  01:48:00     -424.221     -233.302      -14.699      176.801      153.526      107.903    31258.471    23570.374    11642.979       15.053        3.324      484.142      100.225        0.043      337.896       10.176      859.960
11/14/2014  01:49:00     -468.256     -100.292      -24.652      235.006      222.241       91.566    55227.729    49391.157     8384.361       17.144        5.650      478.875      107.379        0.050      337.949       10.266      859.964
11/14/2014  01:50:00     -370.856     -173.725        4.806      223.424      150.682       93.651    49918.320    22705.077     8770.594       12.455        4.070      409.530      101.169        0.061      337.955       10.276      859.956
11/14/2014  01:51:00     -221.029      -78.382      -15.190      157.168      104.070       69.333    24701.650    10830.477     4807.095        4.778        2.017      234.515       66.197        0.080      337.959       10.284      859.973
11/14/2014  01:52:00     -423.357     -153.647      -20.589      219.591      207.379       78.856    48220.112    43005.943     6218.243       15.033        4.872      450.376       88.863        0.039      337.952       10.272      859.963
11/14/2014  01:53:00     -509.716     -183.701      -19.212      168.050      203.370       79.957    28240.864    41359.348     6393.200       18.494        3.800      541.809       62.837        0.013      337.954       10.275      859.953
11/14/2014  01:54:00     -252.604      -52.605       -3.747      185.734      113.757       74.832    34497.102    12940.562     5599.771        5.980        2.652      258.023       89.273        0.120      337.925       10.226      859.962
11/14/2014  01:55:00     -261.941      -66.416        2.108      130.756      115.106       70.406    17097.004    13249.296     4957.041        5.416        1.765      270.229       65.402        0.059      337.891       10.167      859.946
11/14/2014  01:56:00     -244.011      -84.299       -5.775      178.910      109.969       53.261    32008.768    12093.247     2836.722        5.680        2.347      258.163       78.983        0.094      337.899       10.180      859.947
11/14/2014  01:57:00     -237.867       -9.002       -2.005      174.483       99.843       76.292    30444.414     9968.584     5820.462        5.144        2.312      238.037       94.010        0.156      337.893       10.170      859.912
11/14/2014  01:58:00     -174.480     -106.005        5.435      144.804       86.131       62.265    20968.198     7418.494     3876.877        3.698        1.613      204.158       80.511        0.156      337.874       10.141      859.910
11/14/2014  01:59:00     -403.360      -51.387      -15.221      210.244      126.538       90.922    44202.609    16011.890     8266.806       11.701        3.424      406.620       99.080        0.059      337.855       10.106      859.883
11/14/2014  02:00:00     -485.894     -160.975      -20.748      217.804      168.021       92.996    47438.386    28231.029     8648.239       17.336        4.216      511.866      115.953        0.051      337.891       10.167      859.857
11/14/2014  02:01:00     -363.321     -206.654        0.321      172.528      130.688       77.442    29765.786    17079.339     5997.215       11.376        2.642      417.981       95.033        0.052      337.851       10.102      859.845
11/14/2014  02:02:00     -341.033      -97.668       -9.353      208.342      174.072       85.009    43406.422    30301.140     7226.561       10.342        4.047      354.743      106.610        0.090      337.846       10.092      859.850
11/14/2014  02:03:00     -390.948      -57.268      -16.188      185.820      124.638       83.617    34529.251    15534.543     6991.788       10.671        2.853      395.120       93.654        0.056      337.835       10.073      859.866
11/14/2014  02:04:00     -448.647      -45.040      -22.138      212.777      134.603       84.262    45274.162    18117.928     7100.019       13.713        3.525      450.902       99.586        0.049      337.828       10.061      859.880
11/14/2014  02:05:00     -383.810      -96.660      -15.247      211.708      161.332       87.457    44820.453    26027.949     7648.692       11.768        3.925      395.795       98.461        0.062      337.839       10.081      859.883
11/14/2014  02:06:00     -423.228     -158.501      -12.351      229.031      179.435       86.466    52455.219    32196.785     7476.334       14.824        4.606      451.935       85.348        0.036      337.836       10.076      859.882
11/14/2014  02:07:00     -306.525      -64.848       -3.969      179.295      123.684       69.919    32146.831    15297.821     4888.635        7.525        2.617      313.310       77.912        0.062      337.819       10.048      859.915
11/14/2014  02:08:00     -516.726     -146.679      -21.692      207.127      145.431       82.275    42901.433    21150.093     6769.191       17.989        3.541      537.141       91.198        0.029      337.823       10.053      859.918
11/14/2014  02:09:00     -457.243      -91.757      -15.146      176.471      139.957       88.246    31142.125    19587.881     7787.342       13.811        2.926      466.359       95.971        0.042      337.811       10.033      859.914
11/14/2014  02:10:00     -481.181     -116.328      -38.987      228.219      167.145       84.256    52083.882    27937.431     7099.033       16.684        4.356      495.043      100.887        0.042      337.830       10.065      859.904
11/14/2014  02:11:00     -358.013      -37.373      -13.864      160.746      146.449       73.864    25839.278    21447.374     5455.849        9.124        2.637      359.958       76.809        0.046      337.814       10.039      859.928
11/14/2014  02:12:00     -514.801      -87.380      -20.237      227.031      168.752       82.711    51543.281    28477.399     6841.042       17.995        4.343      522.164       90.991        0.030      337.807       10.027      859.894
11/14/2014  02:13:00     -567.203     -153.823      -45.172      207.818      149.166       84.358    43188.117    22250.532     7116.228       20.997        3.628      587.691       87.323        0.022      337.803       10.021      859.881
11/14/2014  02:14:00     -329.329      -91.912        5.500      203.581      161.446       72.385    41445.216    26064.735     5239.553        9.483        3.637      341.914       72.797        0.045      337.771        9.967      859.874
11/14/2014  02:15:00     -343.429      -65.010      -22.105      170.545      128.565       76.496    29085.608    16528.899     5851.662        8.705        2.573      349.528       65.040        0.035      337.789        9.996      859.847
11/14/2014  02:16:00     -556.438     -121.979      -39.016      227.360      170.515       92.260    51692.343    29075.374     8511.879       20.763        4.464      569.651       92.230        0.026      337.816       10.043      859.866
11/14/2014  02:17:00     -333.483      -75.084      -11.980      170.505      148.696       76.269    29072.041    22110.588     5816.965        8.698        2.850      341.832       65.822        0.037      337.789        9.995      859.865
11/14/2014  02:18:00     -397.101      -16.561        0.001      187.668      157.304       86.269    35219.370    24744.695     7442.385       11.267        3.370      397.446       95.554        0.058      337.764        9.955      859.861
11/14/2014  02:19:00     -435.810      -86.525      -30.950      147.376      145.477       67.365    21719.615    21163.531     4538.004       12.289        2.371      444.317       60.763        0.019      337.766        9.957      859.860
11/14/2014  02:20:00     -308.106      -54.779       -7.918      126.012      139.401       73.237    15879.030    19432.660     5363.614        6.933        2.034      312.938       68.303        0.048      337.738        9.912      859.871
11/14/2014  02:21:00     -374.480      -63.828      -17.994      145.391      142.957       84.879    21138.400    20436.634     7204.386        9.670        2.439      379.880       83.280        0.048      337.745        9.923      859.867
11/14/2014  02:22:00     -429.459      -65.544       -5.290      215.494      156.510       85.784    46437.661    24495.279     7358.887       13.351        3.915      434.432       92.137        0.045      337.720        9.882      859.868
11/14/2014  02:23:00     -500.673     -112.139       -4.617      236.959      166.318       96.887    56149.381    27661.591     9387.173       17.822        4.660      513.078      122.417        0.057      337.744        9.923      859.851
11/14/2014  02:24:00     -294.451      -66.960       -9.434      146.143      130.252       70.499    21357.805    16965.515     4970.069        6.728        2.165      301.968       78.517        0.068      337.717        9.875      859.860
11/14/2014  02:25:00     -313.534     -109.108      -12.349      154.680      168.108       77.475    23925.821    28260.179     6002.434        8.426        2.909      331.976       85.166        0.066      337.730        9.898      859.865
11/14/2014  02:26:00     -363.028      -56.213      -26.287      155.214      137.539       77.247    24091.472    18917.054     5967.140        9.230        2.449      367.355       82.212        0.050      337.724        9.888      859.862
11/14/2014  02:27:00     -426.683      -91.669      -14.153      242.948      177.709       86.981    59023.838    31580.476     7565.693       14.440        4.909      436.419       97.946        0.050      337.739        9.914      859.840
11/14/2014  02:28:00     -419.946      -21.385      -20.070      147.039      119.402       68.412    21620.504    14256.887     4680.135       10.888        2.028      420.491       70.378        0.028      337.731        9.901      859.854
11/14/2014  02:29:00     -355.236     -143.025       -9.903      241.704      193.076       86.922    58420.694    37278.465     7555.393       12.498        5.163      382.947       97.900        0.065      337.729        9.898      859.839
11/14/2014  02:30:00     -277.963      -22.169        8.606      169.235      115.676       81.965    28640.447    13381.034     6718.280        6.327        2.437      278.845       78.708        0.080      337.705        9.857      859.846
11/14/2014  02:31:00     -170.347      -23.838        1.266      201.680      136.363       98.478    40674.913    18594.944     9697.907        4.926        3.448      172.006      113.580        0.436      337.726        9.892      859.838
11/14/2014  02:32:00     -389.841      -90.918        2.442      161.841      153.480       79.510    26192.447    23556.094     6321.772       10.815        2.804      400.303       82.174        0.042      337.683        9.821      859.843
11/14/2014  02:33:00     -395.269      -55.714      -27.534      209.931      130.571       71.433    44070.947    17048.849     5102.705       11.315        3.311      399.176       84.026        0.044      337.690        9.832      859.863
11/14/2014  02:34:00     -511.463      -39.111      -34.526      161.085      138.215       69.756    25948.258    19103.376     4865.830       15.711        2.496      512.956       64.757        0.016      337.695        9.839      859.873
11/14/2014  02:35:00     -375.817     -115.618      -12.896      181.110      162.605       76.194    32800.952    26440.509     5805.484       10.990        3.252      393.200       81.325        0.043      337.699        9.846      859.845
11/14/2014  02:36:00     -378.705      -41.465      -24.585      195.372      140.061       83.740    38170.209    19616.991     7012.418       10.526        3.240      380.969       96.870        0.065      337.681        9.819      859.847
11/14/2014  02:37:00     -328.292      -98.729      -18.851      157.218      147.528       75.961    24717.576    21764.557     5770.055        8.505        2.613      342.816       70.810        0.043      337.676        9.810      859.850
11/14/2014  02:38:00     -450.078      -82.436       -4.360      256.034      154.916       94.021    65553.213    23999.121     8839.885       15.387        4.920      457.565      115.113        0.063      337.669        9.796      859.860
11/14/2014  02:39:00     -506.364      -98.156      -11.341      234.794      150.221       91.884    55128.213    22566.201     8442.741       17.613        4.307      515.789      107.616        0.044      337.671        9.801      859.866
11/14/2014  02:40:00     -425.245      -34.659      -35.403      227.453      137.315       90.299    51735.093    18855.459     8153.827       13.100        3.937      426.656      114.638        0.072      337.671        9.800      859.876
11/14/2014  02:41:00     -484.827      -70.400      -30.328      258.329      226.818      101.709    66734.092    51446.501    10344.747       18.470        6.426      489.912      103.945        0.045      337.664        9.790      859.862
11/14/2014  02:42:00     -668.741     -176.882      -47.074      239.097      171.797      102.288    57167.263    29514.210    10462.783       28.891        4.857      691.738      114.329        0.027      337.708        9.864      859.872
11/14/2014  02:43:00     -625.280     -177.506      -19.338      235.191      168.057       98.277    55314.980    28243.255     9658.293       25.802        4.661      649.987      113.537        0.031      337.708        9.861      859.888
11/14/2014  02:44:00     -538.886     -114.607      -17.228      242.100      193.501       99.977    58612.617    37442.723     9995.358       20.492        5.303      550.938      107.338        0.038      337.689        9.831      859.913
11/14/2014  02:45:00     -394.738      -78.958       -0.015      244.010      170.363       90.014    59541.121    29023.644     8102.561       12.934        4.833      402.557      114.223        0.081      337.679        9.813      859.936
11/14/2014  02:46:00     -448.230     -102.217      -38.798      200.316      179.827       88.559    40126.377    32337.778     7842.684       14.657        4.015      459.737       64.667        0.020      337.679        9.812      859.953
11/14/2014  02:47:00     -391.865      -31.784      -22.710      204.299      144.791       80.438    41738.107    20964.443     6470.242       11.211        3.459      393.152       92.908        0.056      337.666        9.791      859.982
11/14/2014  02:48:00     -381.904      -59.976      -15.085      248.845      155.908      101.281    61923.853    24307.225    10257.806       12.306        4.824      386.585      121.967        0.100      337.666        9.792      859.956
11/14/2014  02:49:00     -486.884       22.082      -33.608      156.405      167.198       63.090    24462.374    27955.195     3980.314       14.752        2.820      487.384       61.666        0.016      337.649        9.764      859.986
11/14/2014  02:50:00     -581.303     -114.331      -38.209      173.639      186.486       80.107    30150.420    34777.038     6417.207       21.188        3.567      592.440       77.248        0.017      337.644        9.755      859.974
11/14/2014  02:51:00     -547.239      -48.774      -34.116      235.657      181.712       91.744    55534.073    33019.325     8416.905       19.997        4.849      549.408       85.799        0.024      337.655        9.774      859.969
11/14/2014  02:52:00     -421.951     -101.984      -21.664      186.048      185.384       96.478    34614.034    34367.288     9308.056       13.359        3.914      434.101       96.451        0.049      337.660        9.782      859.940
11/14/2014  02:53:00     -374.726      -36.688       -5.695      213.821      171.577       83.247    45719.573    29438.599     6929.982       11.193        4.104      376.518       97.813        0.067      337.643        9.754      859.964
11/14/2014  02:54:00     -492.297      -73.172      -10.671      243.020      191.681       99.781    59058.744    36741.756     9956.317       17.677        5.288      497.705      117.193        0.055      337.648        9.762      859.952
11/14/2014  02:55:00     -326.889     -116.103        8.106      181.872      150.615       89.341    33077.427    22684.797     7981.784        9.206        3.187      346.896       97.624        0.079      337.643        9.754      859.981
11/14/2014  02:56:00     -390.335       21.936      -37.589      203.399      121.494       80.515    41370.999    14760.891     6482.648       10.842        3.131      390.951       85.907        0.048      337.620        9.714      859.964
11/14/2014  02:57:00     -393.105     -130.065      -18.745      145.111      126.330       73.723    21057.271    15959.348     5435.109       10.712        2.123      414.064       65.643        0.025      337.606        9.691      859.975
11/14/2014  02:58:00     -349.394      -43.708        0.348      156.592      133.136       71.817    24521.034    17725.175     5157.653        8.569        2.370      352.117       79.222        0.051      337.593        9.669      859.961
11/14/2014  02:59:00     -359.107      -56.178      -25.278      140.825      117.489       68.675    19831.670    13803.556     4716.198        8.554        1.918      363.474       63.152        0.030      337.584        9.652      859.931
11/14/2014  03:00:00     -488.924     -127.201      -20.879      200.439      185.880       79.805    40175.826    34551.541     6368.773       16.836        4.055      505.199       91.944        0.033      337.595        9.672      859.901
11/14/2014  03:01:00     -367.660     -133.114       -6.711      194.840      148.131       65.179    37962.489    21942.906     4248.339       10.853        3.208      391.015       59.932        0.023      337.601        9.680      859.908
11/14/2014  03:02:00     -510.941     -109.612      -31.451      196.594      147.020       73.835    38649.082    21614.926     5451.603       16.988        3.286      522.566       76.399        0.021      337.609        9.695      859.910
11/14/2014  03:03:00     -464.474     -126.045       -1.373      212.936      151.742       98.773    45341.942    23025.562     9756.103       15.486        3.906      481.272      109.446        0.052      337.601        9.682      859.922
11/14/2014  03:04:00     -337.102      -33.601        6.907      206.225      124.617       93.458    42528.938    15529.480     8734.416        9.079        3.340      338.773       90.319        0.071      337.583        9.652      859.956
11/14/2014  03:05:00     -257.871      -68.143        0.338      153.553      102.575       70.018    23578.567    10521.553     4902.538        5.506        1.950      266.723       66.752        0.063      337.596        9.673      859.969
11/14/2014  03:06:00     -372.188      -16.004      -16.637      178.457      131.239       76.849    31846.906    17223.739     5905.820        9.701        2.749      372.532       88.957        0.057      337.590        9.663      859.983
11/14/2014  03:07:00     -437.565      -33.914      -13.097      167.083      133.339       80.387    27916.611    17779.343     6462.138       12.246        2.608      438.878       86.450        0.039      337.593        9.667      859.979
11/14/2014  03:08:00     -456.556      -65.386      -24.128      163.363      139.719       86.541    26687.619    19521.527     7489.294       13.349        2.685      461.214       82.432        0.032      337.593        9.669      859.975
11/14/2014  03:09:00     -337.465     -118.309       -7.314      160.861      151.539       72.895    25876.231    22964.052     5313.686        9.103        2.708      357.602       81.602        0.052      337.582        9.649      859.960
11/14/2014  03:10:00     -418.270     -118.868      -24.288      145.976      124.970       79.003    21309.065    15617.447     6241.429       11.641        2.158      434.832       82.190        0.036      337.588        9.660      859.956
11/14/2014  03:11:00     -312.172      -59.467      -20.169      168.021       99.618       67.094    28230.958     9923.693     4501.603        7.202        2.133      317.785       81.171        0.065      337.582        9.651      859.956
11/14/2014  03:12:00     -301.776     -116.863       -9.410      154.382      116.067       68.437    23833.930    13471.543     4683.618        7.339        2.099      323.613       65.099        0.040      337.575        9.638      859.954
11/14/2014  03:13:00     -466.732      -76.898      -13.406      199.894      181.311       98.371    39957.808    32873.729     9676.818       15.320        4.125      473.025      108.454        0.053      337.578        9.644      859.944
11/14/2014  03:14:00     -283.261     -122.749      -22.436      192.060      155.226       82.722    36886.910    24095.042     6843.007        8.180        3.391      308.714       85.571        0.077      337.596        9.674      859.927
11/14/2014  03:15:00     -120.445      -60.389       -2.870      186.123      126.602       72.426    34641.718    16028.169     5245.468        3.703        2.796      134.736       89.489        0.441      337.578        9.645      859.917
11/14/2014  03:16:00     -334.646     -129.065      -24.128      184.109      127.387       75.014    33896.271    16227.409     5627.071        9.248        2.788      358.672       80.059        0.050      337.573        9.634      859.903
11/14/2014  03:17:00     -380.348      -89.587      -21.600      122.127       97.956       72.554    14915.060     9595.473     5264.028        9.146        1.489      390.756       76.052        0.038      337.555        9.605      859.922
11/14/2014  03:18:00     -160.624     -109.564        3.490      181.959      129.625       79.650    33109.082    16802.710     6344.078        4.702        2.813      194.433       82.313        0.179      337.562        9.616      859.894
11/14/2014  03:19:00     -285.294      -82.808       -4.705      159.389      123.947       80.024    25404.852    15362.806     6403.875        6.771        2.359      297.068       87.666        0.087      337.544        9.586      859.894
11/14/2014  03:20:00     -371.937      -97.088      -11.540      195.055      128.049       78.762    38046.541    16396.550     6203.504       10.426        3.032      384.399       97.430        0.064      337.550        9.596      859.872
11/14/2014  03:21:00     -383.937      -82.307      -21.916      154.435      177.520       76.324    23850.225    31513.282     5825.417       10.791        3.059      392.660       70.939        0.033      337.557        9.608      859.852
11/14/2014  03:22:00     -344.935      -76.524       -8.469      190.962      150.049       86.468    36466.427    22514.643     7476.783        9.567        3.323      353.321       95.521        0.073      337.540        9.579      859.843
11/14/2014  03:23:00     -313.358     -112.208       -2.172      187.551      165.194       81.801    35175.501    27289.168     6691.323        8.996        3.458      332.842       86.731        0.068      337.537        9.575      859.826
11/14/2014  03:24:00     -286.212     -106.832       -9.635      169.409      168.511       81.811    28699.443    28396.055     6692.976        7.859        3.189      305.500       82.347        0.073      337.545        9.587      859.832
11/14/2014  03:25:00     -323.517      -97.068        1.317      208.353      137.841       77.203    43411.149    19000.089     5960.309        9.122        3.419      337.765       92.892        0.076      337.541        9.580      859.837
11/14/2014  03:26:00     -345.549     -224.559      -36.332      149.473      125.056       72.555    22342.101    15638.973     5264.269       10.719        2.162      412.105       56.773        0.019      337.546        9.587      859.827
11/14/2014  03:27:00     -329.407        9.956       -7.685      249.395      148.476       87.783    62197.913    22045.197     7705.806       10.029        4.597      329.558      113.113        0.118      337.536        9.573      859.822
11/14/2014  03:28:00     -375.707     -123.079      -25.435      167.029      163.805       77.280    27898.550    26832.078     5972.160       10.881        3.035      395.353       92.656        0.055      337.543        9.584      859.827
11/14/2014  03:29:00     -326.441      -46.077       -9.182      123.038      138.944       58.584    15138.412    19305.568     3432.115        7.332        1.894      329.677       63.970        0.038      337.519        9.545      859.852
11/14/2014  03:30:00     -372.524      -91.857       -3.721      170.885      131.515       78.000    29201.749    17296.203     6083.954        9.989        2.629      383.682       71.960        0.035      337.532        9.565      859.847
11/14/2014  03:31:00     -502.753      -92.643      -22.987      241.272      140.433       82.178    58212.372    19721.335     6753.286       17.326        4.234      511.217      106.307        0.043      337.554        9.603      859.856
11/14/2014  03:32:00     -323.956      -82.811      -24.316      138.345      102.091       53.085    19139.405    10422.614     2818.069        7.238        1.619      334.373       54.869        0.027      337.523        9.550      859.854
11/14/2014  03:33:00     -327.937      -59.876      -10.017      150.579      115.192       64.993    22674.185    13269.235     4224.148        7.569        2.008      333.359       73.418        0.049      337.505        9.521      859.849
11/14/2014  03:34:00     -300.439      -16.542        4.266      164.292      131.036       70.445    26991.943    17170.322     4962.480        6.983        2.456      300.894       76.114        0.064      337.522        9.549      859.830
11/14/2014  03:35:00     -333.462      -77.643       -3.160      227.198      143.880       87.635    51618.977    20701.427     7679.862        9.860        4.000      342.382       98.560        0.083      337.554        9.603      859.814
11/14/2014  03:36:00     -358.005     -114.679      -20.505      194.353      137.326       87.850    37773.092    18858.397     7717.684       10.303        3.217      375.924      104.375        0.077      337.569        9.629      859.796
11/14/2014  03:37:00     -135.549      -51.553       16.501      157.001      120.118       69.227    24649.366    14428.316     4792.331        3.258        2.194      145.021       87.611        0.365      337.544        9.588      859.791
11/14/2014  03:38:00     -478.349       -6.180      -59.453      162.736      133.965       72.140    26483.134    17946.635     5204.250       14.100        2.482      478.389       75.328        0.025      337.576        9.638      859.785
11/14/2014  03:39:00     -305.060      -41.506      -20.011      164.635      116.223       66.234    27104.577    13507.811     4386.893        7.008        2.250      307.871       77.747        0.064      337.542        9.582      859.777
11/14/2014  03:40:00     -427.834      -88.395      -18.142      177.202      135.738       75.490    31400.497    18424.836     5698.726       12.334        2.776      436.870       81.728        0.035      337.560        9.612      859.760
11/14/2014  03:41:00     -342.371      -51.439       -2.740      176.748      124.616       79.874    31239.723    15529.062     6379.820        8.650        2.657      346.213       84.885        0.060      337.577        9.642      859.758
11/14/2014  03:42:00     -429.571      -52.146      -20.286      223.579      154.609       93.409    49987.466    23903.967     8725.150       13.512        4.131      432.725      102.096        0.056      337.617        9.707      859.764
11/14/2014  03:43:00     -476.782      -62.720      -27.658      141.863      156.176       79.162    20125.020    24391.044     6266.587       14.139        2.539      480.890       73.169        0.023      337.596        9.673      859.764
11/14/2014  03:44:00     -409.294      -41.065      -21.628      212.216      174.149       82.732    45035.625    30327.847     6844.647       12.593        4.110      411.349      106.278        0.067      337.626        9.724      859.758
11/14/2014  03:45:00     -314.658      -46.696       -4.406      141.350      119.853       69.554    19979.690    14364.714     4837.724        7.019        1.959      318.104       59.799        0.035      337.589        9.661      859.762
11/14/2014  03:46:00     -336.503      -73.736       -5.924      169.865      122.662       64.132    28854.054    15046.010     4112.885        8.335        2.401      344.487       53.722        0.024      337.571        9.631      859.746
11/14/2014  03:47:00     -452.691      -56.374      -43.692      178.300      149.821       82.687    31790.894    22446.480     6837.198       13.553        3.054      456.187       79.435        0.030      337.581        9.647      859.749
11/14/2014  03:48:00     -264.130      -58.899        7.274      174.149      159.169       80.845    30327.906    25334.810     6535.919        6.773        3.110      270.618       89.440        0.109      337.565        9.622      859.744
11/14/2014  03:49:00     -513.446     -127.359      -21.854      175.424      139.957       70.112    30773.718    19588.073     4915.681       16.779        2.764      529.006       69.338        0.017      337.570        9.629      859.741
11/14/2014  03:50:00     -351.509     -112.896      -28.790      110.575       96.551       64.120    12226.881     9322.115     4111.371        8.139        1.283      369.194       58.222        0.025      337.517        9.542      859.774
11/14/2014  03:51:00     -244.611      -87.344      -23.385      110.527       92.811       57.790    12216.156     8613.900     3339.654        4.609        1.208      259.737       48.765        0.035      337.484        9.485      859.790
11/14/2014  03:52:00     -343.011      -62.201      -40.912      135.030       92.005       60.551    18233.040     8464.893     3666.363        7.678        1.518      348.605       64.996        0.035      337.514        9.536      859.802
11/14/2014  03:53:00     -377.991     -128.310      -19.236      116.518       97.077       62.199    13576.375     9423.916     3868.721        9.328        1.343      399.175       62.616        0.025      337.460        9.446      859.779
11/14/2014  03:54:00     -280.832      -85.912      -39.573      111.592       68.139       60.012    12452.817     4642.915     3601.431        5.425        1.035      293.679       42.555        0.021      337.458        9.441      859.772
11/14/2014  03:55:00     -274.545      -76.117      -14.441      164.720      112.144       71.595    27132.737    12576.236     5125.855        6.310        2.242      284.901       68.439        0.058      337.470        9.463      859.777
11/14/2014  03:56:00     -268.819      -68.423      -20.417      103.156      118.783       48.129    10641.062    14109.294     2316.411        5.221        1.353      277.390       43.464        0.025      337.429        9.392      859.812
11/14/2014  03:57:00     -173.874     -104.198       -4.249      109.364       89.364       52.044    11960.533     7985.951     2708.550        3.188        1.133      202.705       56.686        0.078      337.388        9.326      859.823
11/14/2014  03:58:00     -293.887     -100.181      -18.939      165.105      123.922       65.575    27259.524    15356.718     4300.017        7.183        2.346      310.493       73.129        0.055      337.437        9.407      859.835
11/14/2014  03:59:00     -245.278     -122.396       -0.041      144.556      153.917       62.833    20896.420    23690.308     3947.975        6.183        2.427      274.121       66.554        0.059      337.472        9.465      859.824
11/14/2014  04:00:00     -331.580      -30.276      -31.631      132.298      151.507       65.660    17502.669    22954.389     4311.279        7.831        2.238      332.959       66.132        0.039      337.490        9.495      859.833
11/14/2014  04:01:00     -440.713       -9.441      -47.641      149.273      107.030       54.703    22282.337    11455.423     2992.421       11.665        1.837      440.814       64.146        0.021      337.471        9.464      859.846
11/14/2014  04:02:00     -214.552      -83.994      -16.887      103.429      107.261       56.585    10697.624    11504.906     3201.914        3.938        1.270      230.407       52.009        0.051      337.413        9.367      859.856
11/14/2014  04:03:00     -285.646      -27.583      -22.108      111.885      101.785       54.333    12518.182    10360.165     2952.077        5.433        1.292      286.975       41.017        0.020      337.410        9.361      859.857
11/14/2014  04:04:00     -233.450      -55.512      -27.857      109.919       87.749       51.358    12082.080     7699.831     2637.681        4.038        1.121      239.959       34.455        0.021      337.379        9.309      859.864
11/14/2014  04:05:00     -180.293       -2.362      -23.982       88.628       94.887       58.381     7854.851     9003.513     3408.397        2.667        1.013      180.308       39.177        0.047      337.380        9.314      859.884
11/14/2014  04:06:00     -178.340       55.900      -13.289       85.687       97.009       50.329     7342.347     9410.667     2533.010        2.719        0.964      186.896       34.753        0.035      337.409        9.359      859.882
11/14/2014  04:07:00     -144.739      -62.124       -8.924       93.790       65.304       38.442     8796.602     4264.604     1477.756        1.971        0.727      157.508       18.899        0.014      337.389        9.328      859.887
11/14/2014  04:08:00     -136.556       59.970      -18.557       65.609       86.468       48.430     4304.509     7476.758     2345.504        1.835        0.706      149.144       42.145        0.080      337.349        9.261      859.904
11/14/2014  04:09:00     -229.613       32.406      -30.452       66.421       83.228       47.101     4411.742     6926.892     2218.547        3.413        0.678      231.889       43.514        0.035      337.371        9.296      859.911
11/14/2014  04:10:00     -173.473       56.295      -31.131       79.159       93.254       46.882     6266.199     8696.400     2197.903        2.569        0.858      182.378       38.791        0.045      337.374        9.302      859.919
11/14/2014  04:11:00     -217.571       94.687      -27.710       96.163      112.874       62.509     9247.328    12740.510     3907.411        4.148        1.295      237.282       45.796        0.037      337.374        9.301      859.916
11/14/2014  04:12:00     -110.009       71.903       -6.490       98.280      102.063       53.255     9658.967    10416.836     2836.078        2.011        1.146      131.423       43.790        0.111      337.380        9.313      859.917
11/14/2014  04:13:00     -170.973       10.214      -10.811      105.282       97.607       50.788    11084.238     9527.165     2579.413        2.632        1.160      171.278       58.667        0.117      337.357        9.275      859.931
11/14/2014  04:14:00     -135.877       11.129       -4.763       77.923       75.023       40.328     6071.977     5628.498     1626.332        1.597        0.666      136.332       32.512        0.057      337.306        9.189      859.964
11/14/2014  04:15:00     -191.857      103.610      -32.096       74.275       63.159       44.021     5516.777     3989.081     1937.827        3.001        0.572      218.046       36.356        0.028      337.327        9.224      859.989
11/14/2014  04:16:00     -221.618      100.615      -38.230      105.959       91.020       65.091    11227.365     8284.589     4236.849        4.222        1.187      243.388       66.057        0.074      337.314        9.202      859.998
11/14/2014  04:17:00     -141.488       89.602      -15.477       84.979       71.855       48.460     7221.422     5163.145     2348.353        2.151        0.737      167.474       44.728        0.071      337.307        9.192      860.015
11/14/2014  04:18:00     -212.715       66.529      -32.045      102.215       79.387       41.871    10447.879     6302.373     1753.217        3.460        0.925      222.876       29.447        0.017      337.294        9.168      860.033
11/14/2014  04:19:00     -194.920      -27.115      -30.436       80.385       82.761       46.926     6461.759     6849.439     2202.011        2.758        0.776      196.797       38.905        0.039      337.285        9.153      860.048
11/14/2014  04:20:00     -273.979      -56.588      -24.808      134.570      112.523       52.039    18109.064    12661.345     2708.063        5.617        1.674      279.761       55.159        0.039      337.270        9.128      860.066
11/14/2014  04:21:00     -295.209        6.160      -21.268      117.583      138.410       49.258    13825.647    19157.214     2426.321        6.152        1.770      295.273       35.688        0.015      337.309        9.193      860.059
11/14/2014  04:22:00     -281.852      -23.616      -36.550       83.185      101.310       55.161     6919.801    10263.692     3042.686        5.078        1.011      282.840       46.174        0.027      337.277        9.139      860.067
11/14/2014  04:23:00     -203.869      -63.445       -9.600       97.431       90.865       47.098     9492.713     8256.504     2218.198        3.282        0.998      213.513       37.550        0.031      337.250        9.096      860.070
11/14/2014  04:24:00     -159.685      -43.620      -16.109       93.666       95.374       45.882     8773.388     9096.178     2105.176        2.381        0.999      165.536       39.449        0.057      337.227        9.057      860.084
11/14/2014  04:25:00     -215.468      -80.341      -10.625      118.688       99.078       55.658    14086.753     9816.464     3097.840        3.999        1.350      229.959       62.010        0.073      337.221        9.047      860.086
11/14/2014  04:26:00     -256.585      -48.967      -16.017       99.673       93.624       54.427     9934.673     8765.471     2962.292        4.507        1.083      261.216       38.038        0.021      337.209        9.026      860.128
11/14/2014  04:27:00     -209.024      -44.734      -22.056       84.015       95.942       46.585     7058.517     9204.875     2170.197        3.230        0.922      213.757       21.686        0.010      337.208        9.025      860.126
11/14/2014  04:28:00     -258.935     -147.220       -2.720      127.095      104.877       67.793    16153.185    10999.134     4595.894        6.023        1.587      297.861       66.790        0.050      337.171        8.963      860.148
11/14/2014  04:29:00     -235.743      -92.573      -23.939      101.924       72.323       44.678    10388.472     5230.666     1996.115        4.116        0.881      253.268       46.387        0.034      337.188        8.991      860.179
11/14/2014  04:30:00     -331.509      -56.758      -32.831      110.955      127.405       66.938    12310.934    16231.969     4480.663        7.360        1.651      336.333       57.994        0.030      337.216        9.038      860.205
11/14/2014  04:31:00     -397.378      -34.838      -33.478      143.660       93.687       78.691    20638.331     8777.202     6192.220        9.792        1.780      398.902       83.147        0.043      337.256        9.105      860.217
11/14/2014  04:32:00     -298.464      -11.469      -27.770      158.962      107.519       61.570    25268.824    11560.257     3790.922        6.529        2.031      298.684       65.490        0.048      337.269        9.127      860.216
11/14/2014  04:33:00     -456.901      -12.039      -43.632      160.108      102.720       64.776    25634.708    10551.469     4195.941       12.559        2.019      457.060       67.161        0.022      337.258        9.110      860.234
11/14/2014  04:34:00     -357.433     -119.429      -25.659      169.614       98.396       81.310    28768.797     9681.691     6611.315        9.386        2.253      376.857       81.008        0.046      337.310        9.195      860.226
11/14/2014  04:35:00     -342.229     -168.666      -15.748      196.851      133.908       77.334    38750.344    17931.475     5980.515       10.423        3.133      381.535       88.730        0.054      337.298        9.175      860.226
11/14/2014  04:36:00     -480.257     -107.636      -32.422      167.520      160.140       81.237    28062.878    25644.867     6599.420       15.178        3.015      492.171       69.593        0.020      337.342        9.249      860.216
11/14/2014  04:37:00     -399.877      -75.503      -29.753      150.388      122.559       74.028    22616.521    15020.734     5480.113       10.479        2.156      406.943       68.940        0.029      337.318        9.208      860.212
11/14/2014  04:38:00     -408.497      -39.669      -22.314      161.677       96.587       63.940    26139.541     9329.041     4088.340       10.424        1.978      410.418       73.420        0.032      337.315        9.203      860.210
11/14/2014  04:39:00     -403.032     -119.033      -19.798      153.652      142.068       71.380    23608.963    20183.255     5095.174       11.293        2.444      420.243       78.589        0.035      337.318        9.209      860.203
11/14/2014  04:40:00     -417.428      -67.487      -32.130      131.011      123.227       68.081    17163.927    15184.900     4635.081       10.840        1.849      422.848       63.317        0.022      337.316        9.205      860.201
11/14/2014  04:41:00     -348.637      -64.846      -27.131      153.321      139.927       57.904    23507.176    19579.693     3352.835        8.645        2.322      354.616       47.563        0.018      337.297        9.172      860.213
11/14/2014  04:42:00     -426.909      -25.806      -38.274      139.129      118.367       58.888    19356.811    14010.831     3467.750       11.060        1.842      427.688       61.467        0.021      337.285        9.153      860.223
11/14/2014  04:43:00     -344.754      -81.742      -11.004      111.030       93.887       57.105    12327.652     8814.736     3260.977        7.503        1.220      354.312       42.893        0.015      337.245        9.086      860.233
11/14/2014  04:44:00     -328.657      -43.064      -28.818      116.073       99.161       65.068    13472.871     9832.898     4233.815        6.911        1.377      331.466       60.077        0.033      337.279        9.143      860.231
11/14/2014  04:45:00     -327.546      -87.272      -27.355      162.779      108.274       51.953    26497.058    11723.192     2699.155        7.828        2.046      338.973       63.287        0.035      337.250        9.095      860.208
11/14/2014  04:46:00      -56.326      -29.830       24.515       94.715       81.522       53.452     8970.846     6645.783     2857.093        1.156        0.924       63.738       45.453        0.509      337.222        9.051      860.206
11/14/2014  04:47:00     -289.147      -80.164       -9.274      159.440       97.724       60.229    25421.141     9549.987     3627.582        6.435        1.930      300.054       63.244        0.044      337.214        9.035      860.210
11/14/2014  04:48:00     -263.231      -55.573      -21.098      124.917       83.146       47.992    15604.232     6913.194     2303.261        4.882        1.241      269.033       36.117        0.018      337.208        9.026      860.225
11/14/2014  04:49:00     -292.995      -49.950      -20.152      176.444      132.432       74.732    31132.448    17538.343     5584.840        7.149        2.713      297.222       64.572        0.047      337.198        9.008      860.212
11/14/2014  04:50:00     -205.285       -0.701      -29.634      139.398      138.181       79.789    19431.726    19094.042     6366.230        4.395        2.245      205.287       47.628        0.054      337.183        8.983      860.194
11/14/2014  04:51:00     -121.004      -57.628       13.688      149.229      100.014       61.141    22269.233    10002.814     3738.211        2.707        1.801      134.026       81.029        0.366      337.133        8.900      860.207
11/14/2014  04:52:00     -314.975     -148.090      -29.482       98.849       88.001       61.694     9771.200     7744.166     3806.180        7.166        1.066      348.051       43.583        0.016      337.181        8.979      860.205
11/14/2014  04:53:00     -351.907      -93.747      -16.452      136.466      103.934       63.836    18623.037    10802.333     4075.063        8.319        1.675      364.180       55.430        0.023      337.158        8.941      860.209
11/14/2014  04:54:00     -297.654      -58.917      -19.304      177.386       83.056       55.253    31465.787     6898.217     3052.859        6.692        2.071      303.429       78.957        0.068      337.164        8.952      860.190
11/14/2014  04:55:00     -161.050       20.315       -2.141       94.784      120.730       59.340     8983.943    14575.816     3521.209        2.671        1.354      162.326       45.275        0.078      337.164        8.951      860.175
11/14/2014  04:56:00     -214.134     -105.944       -7.014      173.766       95.712       60.343    30194.690     9160.854     3641.236        5.005        2.150      238.909       82.277        0.119      337.139        8.909      860.178
11/14/2014  04:57:00     -267.767       23.336      -49.493       95.430      104.223       46.388     9106.974    10862.451     2151.813        4.840        1.106      268.782       36.971        0.019      337.142        8.914      860.173
11/14/2014  04:58:00     -165.185      -75.540        0.924      122.979       90.399       61.267    15123.911     8172.038     3753.604        3.002        1.352      181.638       47.533        0.068      337.093        8.831      860.162
11/14/2014  04:59:00     -248.462      -98.711      -11.140      140.447      100.259       71.667    19725.301    10051.883     5136.178        5.325        1.746      267.352       69.784        0.068      337.109        8.858      860.162
11/14/2014  05:00:00     -318.421      -92.295      -29.500      161.777      131.930       73.291    26171.670    17405.538     5371.619        7.986        2.447      331.527       74.677        0.051      337.149        8.924      860.153
11/14/2014  05:01:00     -261.594      -64.886      -19.916      103.685       79.294       55.593    10750.678     6287.521     3090.613        4.658        1.006      269.521       59.377        0.049      337.127        8.889      860.130
11/14/2014  05:02:00     -315.056      -88.069      -16.898      107.184      100.904       70.236    11488.470    10181.582     4933.142        6.695        1.330      327.134       56.211        0.030      337.165        8.954      860.135
11/14/2014  05:03:00     -343.884     -125.736      -24.185      115.686       97.053       59.753    13383.271     9419.226     3570.425        8.051        1.319      366.149       55.925        0.023      337.156        8.935      860.145
11/14/2014  05:04:00     -332.029     -119.443        0.259      148.282      124.516       63.344    21987.535    15504.332     4012.500        8.300        2.075      352.859       66.253        0.035      337.119        8.875      860.168
11/14/2014  05:05:00     -382.998      -46.703      -27.644      172.974      108.322       73.197    29920.128    11733.706     5357.857        9.831        2.351      385.835       93.673        0.059      337.150        8.926      860.199
11/14/2014  05:06:00     -297.663     -101.901      -17.784       88.077       92.457       61.567     7757.614     8548.313     3790.528        5.970        1.005      314.622       50.877        0.026      337.164        8.949      860.208
11/14/2014  05:07:00     -358.363      -66.872      -34.605      118.492      111.388       63.643    14040.361    12407.281     4050.414        8.229        1.525      364.549       43.634        0.014      337.149        8.926      860.222
11/14/2014  05:08:00     -302.378      -18.346      -12.060      114.039      126.155       75.540    13004.961    15915.097     5706.232        6.326        1.731      302.934       65.283        0.046      337.154        8.933      860.238
11/14/2014  05:09:00     -389.382     -106.942      -27.198      120.563      109.734       67.434    14535.398    12041.548     4547.389        9.745        1.556      403.801       50.070        0.015      337.185        8.985      860.226
11/14/2014  05:10:00     -348.123     -143.461      -31.148      134.808       98.582       61.738    18173.209     9718.417     3811.634        8.722        1.585      376.524       58.169        0.024      337.206        9.021      860.204
11/14/2014  05:11:00     -349.363      -65.259      -40.241       98.356      106.750       60.285     9673.807    11395.590     3634.268        7.631        1.235      355.405       58.544        0.027      337.208        9.026      860.211
11/14/2014  05:12:00     -338.977      -53.722      -34.823      137.562      108.485       66.588    18923.255    11769.033     4433.929        7.706        1.756      343.208       67.548        0.039      337.224        9.051      860.175
11/14/2014  05:13:00     -374.209      -90.556      -24.281      181.210      144.420       81.075    32836.892    20857.200     6573.208       10.453        3.013      385.010       94.608        0.060      337.240        9.079      860.140
11/14/2014  05:14:00     -327.027     -119.070      -22.596      145.601      116.645       60.425    21199.595    13605.999     3651.210        8.004        1.923      348.029       66.482        0.036      337.212        9.032      860.125
11/14/2014  05:15:00     -399.705      -92.686      -21.678      179.960      132.433       78.756    32385.596    17538.457     6202.453       11.246        2.806      410.311       90.789        0.049      337.200        9.011      860.127
11/14/2014  05:16:00     -338.884      -76.595      -14.218      156.662      131.359       61.594    24542.942    17255.068     3793.799        8.324        2.280      347.433       65.867        0.036      337.164        8.950      860.135
11/14/2014  05:17:00     -381.344        4.405      -37.005      123.140      115.943       67.005    15163.417    13442.888     4489.606        8.995        1.655      381.369       54.351        0.020      337.171        8.963      860.121
11/14/2014  05:18:00     -387.956      -85.987      -16.698      175.361      133.593       69.888    30751.406    17847.164     4884.395       10.582        2.674      397.371       76.255        0.037      337.151        8.928      860.123
11/14/2014  05:19:00     -359.669      -72.818      -27.554      118.482       96.748       54.852    14037.986     9360.080     3008.758        8.091        1.320      366.966       45.735        0.016      337.145        8.919      860.125
11/14/2014  05:20:00     -357.485      -39.601      -19.297      175.451      118.125       75.464    30783.083    13953.497     5694.849        9.007        2.522      359.671       90.124        0.063      337.141        8.912      860.130
11/14/2014  05:21:00     -472.757      -55.667      -35.953      113.144       99.910       76.710    12801.663     9981.957     5884.441       12.827        1.433      476.023       68.484        0.021      337.174        8.968      860.123
11/14/2014  05:22:00     -396.332     -100.918      -33.751      119.439      116.103       55.854    14265.685    13479.967     3119.655        9.963        1.543      408.979       56.850        0.019      337.170        8.960      860.118
11/14/2014  05:23:00     -325.962      -63.625      -13.417      170.902      120.712       74.411    29207.374    14571.286     5536.942        7.989        2.466      332.114       76.357        0.053      337.167        8.957      860.147
11/14/2014  05:24:00     -535.038       -1.435      -51.736      199.571      120.242       71.839    39828.426    14458.182     5160.888       17.418        2.972      535.040       83.539        0.024      337.193        8.998      860.161
11/14/2014  05:25:00     -419.052      -73.951      -28.681      136.133      103.927       59.846    18532.065    10800.723     3581.506       10.740        1.646      425.527       55.822        0.017      337.198        9.008      860.178
11/14/2014  05:26:00     -414.443     -137.924      -43.056      146.471      116.135       68.541    21453.801    13487.417     4697.873       11.613        1.982      436.791       51.051        0.014      337.195        9.001      860.165
11/14/2014  05:27:00     -357.133     -150.226      -11.733      146.924      121.285       71.487    21586.751    14710.170     5110.430        9.582        2.070      387.443       75.537        0.038      337.197        9.008      860.178
11/14/2014  05:28:00     -437.423      -16.300      -34.456      152.260      120.323       65.457    23183.256    14477.614     4284.572       11.736        2.097      437.727       63.204        0.021      337.229        9.058      860.195
11/14/2014  05:29:00     -483.786     -119.999      -24.866      160.939      111.986       69.487    25901.510    12540.754     4828.381       14.616        2.164      498.446       71.036        0.020      337.259        9.111      860.180
11/14/2014  05:30:00     -433.609     -119.716      -25.963       97.750       94.964       55.876     9555.029     9018.084     3122.150       11.235        1.085      449.831       52.063        0.013      337.214        9.034      860.191
11/14/2014  05:31:00     -339.029     -107.596      -13.491      130.634      111.154       64.665    17065.166    12355.187     4181.540        8.014        1.680      355.693       69.181        0.038      337.187        8.991      860.183
11/14/2014  05:32:00     -384.639      -93.554      -37.440      115.274      117.273       56.420    13288.039    13753.071     3183.262        9.416        1.511      395.853       50.290        0.016      337.220        9.044      860.194
11/14/2014  05:33:00     -312.000      -98.501        2.373      121.453      105.913       57.531    14750.819    11217.463     3309.769        6.816        1.464      327.180       63.122        0.037      337.180        8.978      860.215
11/14/2014  05:34:00     -283.562      -99.291      -17.509      117.476      102.135       55.637    13800.721    10431.569     3095.448        5.894        1.366      300.444       47.985        0.026      337.148        8.925      860.245
11/14/2014  05:35:00     -370.446      -49.345      -26.164      136.865      123.367       63.134    18731.911    15219.532     3985.960        8.914        1.897      373.718       47.108        0.016      337.155        8.936      860.249
11/14/2014  05:36:00     -350.302      -58.995      -33.550      123.636       99.209       64.512    15285.834     9842.356     4161.800        7.830        1.464      355.235       54.733        0.024      337.194        9.002      860.235
11/14/2014  05:37:00     -365.656      -75.593      -30.710      125.113      112.598       67.977    15653.309    12678.316     4620.891        8.665        1.648      373.388       71.747        0.037      337.160        8.944      860.233
11/14/2014  05:38:00     -397.968     -125.634      -18.453      131.863       92.675       60.701    17387.970     8588.707     3684.633       10.208        1.483      417.327       66.137        0.025      337.175        8.969      860.215
11/14/2014  05:39:00     -390.019      -56.445      -32.384      118.875       97.362       65.757    14131.377     9479.303     4323.950        9.214        1.397      394.082       50.910        0.017      337.198        9.007      860.214
11/14/2014  05:40:00     -353.819      -84.110      -27.047      143.885       97.720       57.950    20702.989     9549.205     3358.164        8.330        1.681      363.679       66.386        0.033      337.198        9.006      860.227
11/14/2014  05:41:00     -354.444      -31.528      -24.167      125.386      123.728       64.238    15721.544    15308.667     4126.482        8.118        1.758      355.843       63.505        0.032      337.228        9.059      860.228
11/14/2014  05:42:00     -374.008      -70.723      -18.155      139.902       94.354       63.365    19572.577     8902.747     4015.128        8.885        1.625      380.636       67.955        0.032      337.238        9.075      860.219
11/14/2014  05:43:00     -350.057      -71.256      -19.283      143.030      106.913       60.595    20457.454    11430.448     3671.699        8.177        1.778      357.236       72.099        0.041      337.272        9.133      860.220
11/14/2014  05:44:00     -334.715      -49.703      -37.823      117.068      106.594       62.294    13704.830    11362.219     3880.512        7.244        1.447      338.386       47.601        0.020      337.251        9.096      860.218
11/14/2014  05:45:00     -380.939      -93.424      -33.037      107.392      108.400       58.941    11533.018    11750.658     3473.983        9.084        1.338      392.227       49.536        0.016      337.231        9.062      860.224
11/14/2014  05:46:00     -378.963      -58.190      -35.881      127.394      142.106       62.149    16229.319    20194.094     3862.534        9.428        2.014      383.405       54.128        0.020      337.273        9.133      860.217
11/14/2014  05:47:00     -341.148     -126.575      -33.892      153.809       87.656       65.264    23657.108     7683.614     4259.375        8.457        1.780      363.872       55.901        0.024      337.293        9.167      860.206
11/14/2014  05:48:00     -402.173      -77.023      -35.890      134.837       84.375       60.665    18180.903     7119.085     3680.296        9.897        1.449      409.482       65.164        0.025      337.298        9.174      860.192
11/14/2014  05:49:00     -336.964     -108.039      -24.859      146.668      111.361       59.369    21511.374    12401.213     3524.716        8.163        1.872      353.860       65.937        0.035      337.274        9.134      860.160
11/14/2014  05:50:00     -448.531     -136.076      -20.135      117.460      118.989       72.668    13796.870    14158.480     5280.568       12.666        1.662      468.718       62.918        0.018      337.323        9.216      860.127
11/14/2014  05:51:00     -408.760        4.817      -40.788      158.933      112.191       65.711    25259.787    12586.834     4317.920       10.546        2.108      408.789       77.546        0.036      337.331        9.229      860.122
11/14/2014  05:52:00     -354.556     -112.238      -35.802      119.972      111.722       65.762    14393.377    12481.827     4324.671        8.539        1.560      371.897       53.836        0.021      337.336        9.237      860.082
11/14/2014  05:53:00     -353.883      -80.796      -31.233      104.554      123.122       65.865    10931.470    15159.079     4338.217        8.158        1.521      362.989       57.132        0.025      337.338        9.240      860.067
11/14/2014  05:54:00     -373.967      -93.185      -20.086       99.944      110.718       53.199     9988.846    12258.526     2830.169        8.700        1.254      385.402       49.009        0.016      337.310        9.195      860.055
11/14/2014  05:55:00     -429.070     -101.304      -29.148      110.444       97.936       64.124    12197.843     9591.497     4111.847       11.055        1.295      440.867       56.924        0.017      337.313        9.199      860.038
11/14/2014  05:56:00     -377.099      -60.827      -20.348      123.997      100.540       63.903    15375.137    10108.215     4083.568        8.794        1.478      381.974       56.215        0.022      337.316        9.206      860.021
11/14/2014  05:57:00     -384.781     -129.990      -10.377      189.171      134.637       78.295    35785.513    18127.180     6130.089       11.254        3.002      406.145       88.128        0.047      337.389        9.327      860.007
11/14/2014  05:58:00     -410.771      -53.473      -39.031      102.569       92.014       51.891    10520.308     8466.564     2692.652        9.739        1.084      414.236       48.223        0.014      337.345        9.252      860.014
11/14/2014  05:59:00     -390.709      -62.650      -52.132      108.807      106.525       61.454    11838.875    11347.506     3776.621        9.312        1.348      395.701       35.468        0.008      337.350        9.262      860.008
11/14/2014  06:00:00     -376.080      -69.578      -29.363      158.356      116.301       62.435    25076.593    13526.030     3898.071        9.481        2.125      382.462       76.507        0.040      337.323        9.215      860.012
11/14/2014  06:01:00     -409.113      -76.319      -31.178      102.912       84.591       54.222    10590.868     7155.612     2939.974        9.742        1.034      416.170       48.005        0.013      337.306        9.188      860.022
11/14/2014  06:02:00     -237.112      -69.323      -18.022      154.908      106.589       63.082    23996.632    11361.214     3979.294        5.034        1.967      247.038       71.373        0.083      337.331        9.231      860.016
11/14/2014  06:03:00     -298.508      -82.665       -1.668      110.264       91.198       60.083    12158.173     8317.153     3609.988        6.001        1.204      309.743       62.413        0.041      337.288        9.158      860.030
11/14/2014  06:04:00     -364.794      -57.038      -24.380      105.198       89.556       58.650    11066.715     8020.194     3439.849        7.972        1.126      369.227       51.190        0.019      337.281        9.148      860.027
11/14/2014  06:05:00     -462.683      -33.975      -39.502      139.138      130.758       68.381    19359.330    17097.650     4675.970       12.895        2.057      463.928       66.025        0.020      337.297        9.174      860.013
11/14/2014  06:06:00     -441.813     -149.724      -17.885      153.463      132.961       74.010    23550.747    17678.529     5477.409       13.231        2.335      466.494       72.672        0.024      337.317        9.208      859.995
11/14/2014  06:07:00     -438.356     -136.689      -41.818      101.607      119.253       53.341    10323.965    14221.370     2845.280       11.998        1.370      459.173       48.231        0.011      337.273        9.135      860.010
11/14/2014  06:08:00     -419.922      -52.576      -33.843       98.478       83.141       54.742     9697.999     6912.454     2996.689        9.992        0.980      423.200       52.174        0.015      337.275        9.137      860.033
11/14/2014  06:09:00     -380.961     -127.152      -24.488      122.590      104.907       55.980    15028.331    11005.495     3133.744        9.553        1.458      401.621       50.296        0.016      337.253        9.099      860.045
11/14/2014  06:10:00     -374.276      -33.069      -23.085      184.095      113.234       80.619    33890.944    12821.836     6499.391        9.745        2.661      375.734       93.931        0.062      337.248        9.094      860.079
11/14/2014  06:11:00     -268.279      -84.461       -7.563      148.617      103.674       64.951    22086.989    10748.273     4218.637        5.810        1.853      281.260       66.564        0.056      337.262        9.115      860.099
11/14/2014  06:12:00     -352.129      -83.926      -19.702      104.376      117.266       62.468    10894.283    13751.209     3902.243        7.998        1.427      361.992       49.380        0.019      337.274        9.134      860.123
11/14/2014  06:13:00     -411.378     -143.149      -31.015      128.995      108.999       58.616    16639.657    11880.859     3435.879       11.131        1.598      435.572       51.733        0.014      337.267        9.122      860.160
11/14/2014  06:14:00     -336.962      -73.662      -34.480       91.621       98.531       57.373     8394.412     9708.407     3291.625        7.077        1.070      344.919       49.024        0.020      337.259        9.110      860.192
11/14/2014  06:15:00     -376.065     -118.095      -25.603      144.420       93.747       58.907    20856.998     8788.451     3469.981        9.456        1.656      394.172       55.919        0.020      337.283        9.150      860.219
11/14/2014  06:16:00     -321.847     -154.706      -17.793      124.672      111.487       63.723    15543.231    12429.309     4060.612        7.993        1.602      357.099       59.600        0.028      337.293        9.165      860.243
11/14/2014  06:17:00     -339.973     -107.521      -24.368      107.949       96.019       60.262    11653.083     9219.612     3631.496        7.612        1.225      356.571       50.233        0.020      337.254        9.101      860.267
11/14/2014  06:18:00     -327.190      -92.833      -13.761      138.969      117.594       71.765    19312.291    13828.248     5150.215        7.707        1.915      340.105       71.188        0.044      337.261        9.112      860.281
11/14/2014  06:19:00     -331.879      -44.793      -19.505      139.932       94.476       60.708    19580.857     8925.769     3685.411        7.235        1.610      334.888       69.476        0.043      337.251        9.095      860.307
11/14/2014  06:20:00     -379.555      -76.689      -21.740      118.034      112.067       60.330    13932.095    12558.991     3639.730        9.027        1.507      387.225       51.017        0.017      337.259        9.110      860.320
11/14/2014  06:21:00     -325.387      -99.661      -18.070       92.839       84.663       52.645     8619.139     7167.752     2771.494        6.734        0.928      340.308       48.045        0.020      337.259        9.108      860.318
11/14/2014  06:22:00     -366.041     -105.389      -34.975      133.946      104.176       66.005    17941.602    10852.547     4356.672        8.973        1.658      380.910       67.916        0.032      337.304        9.185      860.320
11/14/2014  06:23:00     -239.122      -66.682      -24.838      116.973       84.288       57.501    13682.691     7104.465     3306.380        4.316        1.205      248.245       42.749        0.030      337.330        9.229      860.314
11/14/2014  06:24:00     -316.411      -66.495      -21.615      193.695      104.329       64.479    37517.677    10884.566     4157.603        7.877        2.628      323.323       81.975        0.064      337.337        9.239      860.339
11/14/2014  06:25:00     -309.893      -89.967       -6.708      130.953      114.094       68.216    17148.819    13017.509     4653.476        6.949        1.741      322.689       68.400        0.045      337.352        9.265      860.336
11/14/2014  06:26:00     -329.192      -48.493      -31.968      125.934      139.422       63.161    15859.412    19438.477     3989.321        7.551        1.964      332.744       64.552        0.038      337.391        9.329      860.350
11/14/2014  06:27:00     -327.274      -80.695      -27.445       91.770      125.427       61.126     8421.646    15731.967     3736.332        7.113        1.394      337.076       50.496        0.022      337.381        9.314      860.355
11/14/2014  06:28:00     -267.361      -72.661       -3.910      130.643      117.034       66.143    17067.620    13696.915     4374.896        5.595        1.757      277.059       56.148        0.041      337.382        9.314      860.369
11/14/2014  06:29:00     -175.104      -58.662       -5.043      129.944       83.708       55.446    16885.424     7007.015     3074.215        3.054        1.348      184.669       50.111        0.074      337.390        9.328      860.365
11/14/2014  06:30:00     -283.543      -63.451      -10.541      122.020       84.943       59.332    14888.773     7215.333     3520.312        5.507        1.281      290.556       60.598        0.043      337.397        9.340      860.357
11/14/2014  06:31:00     -257.558      -46.905      -10.700      115.276       86.516       52.366    13288.629     7484.935     2742.178        4.608        1.176      261.794       58.178        0.049      337.372        9.299      860.354
11/14/2014  06:32:00     -284.123      -57.311      -25.836       91.342       89.874       53.430     8343.335     8077.408     2854.716        5.197        0.964      289.846       49.712        0.029      337.366        9.287      860.355
11/14/2014  06:33:00     -269.007      -80.516      -13.378       78.469       80.215       42.604     6157.348     6434.421     1815.141        4.671        0.720      280.798       34.145        0.015      337.356        9.271      860.350
11/14/2014  06:34:00     -309.708      -83.095      -33.980       91.699       81.767       40.929     8408.688     6685.789     1675.178        6.037        0.838      320.662       36.089        0.013      337.361        9.281      860.362
11/14/2014  06:35:00     -337.911        3.371      -22.290      120.682      103.223       62.278    14564.103    10654.926     3878.490        7.189        1.455      337.928       61.650        0.033      337.358        9.275      860.367
11/14/2014  06:36:00     -276.182      -68.777      -25.672       93.832       85.253       52.060     8804.352     7268.025     2710.246        5.022        0.939      284.617       42.406        0.022      337.362        9.279      860.346
11/14/2014  06:37:00     -296.839       13.514      -33.084      116.633       92.017       49.359    13603.341     8467.208     2436.342        5.694        1.225      297.147       42.436        0.020      337.379        9.311      860.328
11/14/2014  06:38:00     -254.156      -31.634      -18.787       93.365       77.879       54.481     8717.075     6065.165     2968.210        4.185        0.888      256.117       55.614        0.047      337.349        9.260      860.319
11/14/2014  06:39:00     -260.965      -61.679      -27.577       68.799       72.707       40.660     4733.249     5286.291     1653.202        4.217        0.584      268.155       29.283        0.012      337.330        9.225      860.305
11/14/2014  06:40:00     -277.652      -88.815      -21.409       76.441       64.502       39.559     5843.168     4160.483     1564.901        4.850        0.578      291.511       32.469        0.012      337.339        9.242      860.284
11/14/2014  06:41:00     -321.691      -29.722      -33.155       86.241       92.443       46.818     7437.546     8545.710     2191.928        6.182        0.909      323.061       40.039        0.015      337.492        9.500      860.269
11/14/2014  06:42:00     -386.860       -4.673      -35.258      113.758       73.100       57.033    12940.935     5343.675     3252.707        8.623        1.077      386.888       56.855        0.022      337.511        9.531      860.270
11/14/2014  06:43:00     -334.151       10.638      -24.521      120.255      147.743       57.423    14461.352    21828.005     3297.407        7.597        1.979      334.320       54.019        0.026      337.595        9.672      860.256
11/14/2014  06:44:00     -251.986      -81.444      -15.619      121.464       93.947       55.315    14753.391     8826.117     3059.787        4.850        1.332      264.821       55.473        0.044      337.421        9.381      860.254
11/14/2014  06:45:00     -411.957      -50.705      -33.061      106.689      105.450       51.243    11382.438    11119.794     2625.851        9.925        1.256      415.066       48.870        0.014      337.431        9.396      860.261
11/14/2014  06:46:00     -290.777      -81.407      -16.560      125.994      110.845       67.803    15874.407    12286.704     4597.220        6.210        1.638      301.958       61.610        0.042      337.591        9.665      860.263
11/14/2014  06:47:00     -316.640      -74.310      -26.782      149.559       85.794       59.475    22368.037     7360.667     3537.324        6.988        1.663      325.243       69.899        0.046      337.420        9.378      860.258
11/14/2014  06:48:00     -309.494      -48.384      -24.156       72.095       82.770       52.508     5197.690     6850.805     2757.061        5.676        0.740      313.253       38.511        0.015      337.357        9.271      860.262
11/14/2014  06:49:00     -222.536      -58.974       -4.344      106.283       68.216       40.097    11296.116     4653.471     1607.745        3.528        0.878      230.218       38.184        0.028      337.302        9.183      860.285
11/14/2014  06:50:00     -198.517      -49.625      -15.534      161.920       71.617       64.021    26217.992     5129.062     4098.722        3.877        1.772      204.626       81.040        0.157      337.303        9.184      860.287
11/14/2014  06:51:00     -115.824      -27.292        7.757      117.956       73.803       59.281    13913.689     5446.828     3514.244        1.854        1.144      118.996       67.686        0.324      337.365        9.288      860.291
11/14/2014  06:52:00     -233.757      -41.852      -19.705       92.681       97.963       40.487     8589.771     9596.753     1639.202        3.830        0.991      237.474       34.373        0.021      337.388        9.325      860.294
11/14/2014  06:53:00     -284.173      -27.556      -23.026       82.508       60.142       43.339     6807.506     3617.118     1878.238        4.717        0.615      285.506       33.464        0.014      337.383        9.316      860.276
11/14/2014  06:54:00     -128.174      -21.375        0.998       66.527       74.179       44.966     4425.904     5502.553     2021.986        1.442        0.598      129.944       34.775        0.072      337.332        9.234      860.268
11/14/2014  06:55:00     -203.263      -58.759      -16.540       66.428       68.008       40.505     4412.707     4625.146     1640.684        2.786        0.534      211.586       38.517        0.033      337.350        9.261      860.274
11/14/2014  06:56:00     -179.646      -64.204      -38.488       89.055       64.567       46.823     7930.867     4168.865     2192.393        2.608        0.715      190.774       29.871        0.025      337.330        9.231      860.275
11/14/2014  06:57:00     -217.732      -61.821      -10.902       85.384       77.119       40.404     7290.432     5947.345     1632.476        3.311        0.744      226.339       33.434        0.022      337.286        9.155      860.274
11/14/2014  06:58:00     -206.768      -45.610      -11.289       82.228       80.517       38.201     6761.384     6482.912     1459.316        2.983        0.735      211.739       35.085        0.027      337.271        9.130      860.262
11/14/2014  06:59:00     -200.070      -69.217      -17.089       83.409       49.546       36.841     6957.018     2454.767     1357.296        2.794        0.538      211.705       34.452        0.026      337.250        9.095      860.251
11/14/2014  07:00:00     -186.893      -61.054      -13.491       72.365       53.320       40.551     5236.635     2843.069     1644.417        2.428        0.486      196.612       30.836        0.025      337.284        9.153      860.223
11/14/2014  07:01:00     -147.301      -74.418       -2.310       64.183       70.679       39.569     4119.521     4995.528     1565.723        1.896        0.534      165.032       37.533        0.052      337.285        9.155      860.206
11/14/2014  07:02:00     -197.526      -64.283      -26.402      113.633       67.398       49.272    12912.387     4542.449     2427.779        3.186        0.994      207.723       39.361        0.036      337.345        9.253      860.187
11/14/2014  07:03:00     -217.343      -93.937      -12.941       67.125       58.833       38.841     4505.829     3461.291     1508.585        3.285        0.474      236.774       23.425        0.010      337.331        9.230      860.194
11/14/2014  07:04:00     -150.728      -26.896        1.198       86.810       65.483       43.813     7535.947     4287.987     1919.618        1.859        0.687      153.109       46.599        0.093      337.382        9.317      860.167
11/14/2014  07:05:00     -224.730      -60.210      -14.595      119.429       85.016       55.422    14263.302     7227.743     3071.643        3.945        1.228      232.656       62.781        0.073      337.336        9.238      860.147
11/14/2014  07:06:00     -266.287      -77.918      -34.182       90.663       85.129       48.735     8219.829     7247.021     2375.070        4.799        0.892      277.453       37.182        0.018      337.381        9.312      860.139
11/14/2014  07:07:00     -309.000      -85.805      -16.050      104.349       64.811       47.369    10888.743     4200.414     2243.841        6.021        0.867      320.692       56.429        0.031      337.332        9.231      860.156
11/14/2014  07:08:00     -305.913      -54.639       -1.744      114.355       95.227       56.168    13077.046     9068.217     3154.876        6.093        1.265      310.754       61.205        0.039      337.363        9.284      860.158
11/14/2014  07:09:00     -289.145      -26.674      -16.140      113.070       76.436       49.421    12784.747     5842.450     2442.443        5.282        1.053      290.373       59.334        0.042      337.378        9.308      860.160
11/14/2014  07:10:00     -281.562      -40.066       -9.056      163.766       93.927       55.624    26819.435     8822.259     3094.006        5.984        1.937      284.398       59.447        0.044      337.443        9.417      860.148
11/14/2014  07:11:00     -368.392      -88.688      -11.030      122.905       84.541       63.794    15105.713     7147.221     4069.689        8.501        1.316      378.917       64.516        0.029      337.373        9.301      860.128
11/14/2014  07:12:00     -279.347      -60.536      -11.707      102.195      102.679       53.706    10443.904    10542.915     2884.353        5.285        1.194      285.831       51.358        0.032      337.440        9.411      860.098
11/14/2014  07:13:00     -240.255      -55.124       -9.007      146.741       90.636       61.484    21533.022     8214.815     3780.292        4.718        1.676      246.498       69.757        0.080      337.424        9.385      860.082
11/14/2014  07:14:00     -243.318      -27.036       -1.575      107.683      113.781       48.856    11595.606    12946.147     2386.951        4.343        1.346      244.815       50.450        0.042      337.492        9.500      860.071
11/14/2014  07:15:00     -262.648      -75.081       -2.988      106.155      106.235       64.049    11268.790    11285.917     4102.219        5.064        1.333      273.169       58.717        0.046      337.435        9.404      860.104
11/14/2014  07:16:00     -388.201      -63.549      -13.972      158.769       95.023       66.856    25207.657     9029.445     4469.664        9.681        1.935      393.368       70.035        0.032      337.503        9.518      860.102
11/14/2014  07:17:00     -287.378      -28.053      -22.025      118.444      102.258       50.570    14029.016    10456.788     2557.322        5.545        1.352      288.744       53.171        0.034      337.621        9.717      860.101
11/14/2014  07:18:00     -298.707      -73.898       -7.222      150.673       99.486       65.960    22702.258     9897.466     4350.764        6.584        1.848      307.712       66.859        0.047      337.580        9.647      860.098
11/14/2014  07:19:00     -219.156      -30.369        6.658       89.559      126.924       53.746     8020.745    16109.608     2888.685        3.800        1.351      221.251       50.258        0.052      337.607        9.692      860.097
11/14/2014  07:20:00     -288.207      -92.402      -12.990      109.541      111.955       49.515    11999.289    12534.007     2451.697        5.937        1.349      302.657       45.304        0.022      337.581        9.647      860.110
11/14/2014  07:21:00     -255.511      -75.112      -17.271      111.711       96.014       53.388    12479.270     9218.610     2850.287        4.788        1.227      266.322       28.343        0.011      337.620        9.713      860.113
11/14/2014  07:22:00     -267.880      -59.998      -16.853      101.016       96.879       51.232    10204.278     9385.575     2624.762        4.892        1.111      274.517       52.134        0.036      337.636        9.740      860.123
11/14/2014  07:23:00     -301.738      -42.757      -26.153      145.669       98.869       56.813    21219.477     9775.160     3227.692        6.388        1.711      304.752       62.977        0.043      337.759        9.948      860.147
11/14/2014  07:24:00     -351.018      -41.456      -26.865      148.757       97.371       58.031    22128.688     9481.108     3367.567        8.031        1.749      353.457       58.073        0.027      337.668        9.795      860.171
11/14/2014  07:25:00     -268.765      -88.948        0.685      131.478      118.358       67.758    17286.472    14008.663     4591.144        5.801        1.794      283.101       70.606        0.062      337.695        9.840      860.199
11/14/2014  07:26:00     -325.980      -68.516       -9.899      120.803       90.929       56.084    14593.448     8268.056     3145.431        6.853        1.300      333.103       55.541        0.028      337.692        9.835      860.228
11/14/2014  07:27:00     -291.548      -14.789      -17.836      124.408       92.890       45.805    15477.283     8628.596     2098.113        5.587        1.310      291.923       54.225        0.035      337.825       10.058      860.243
11/14/2014  07:28:00     -341.474       14.045      -34.894      155.716      139.770       78.871    24247.452    19535.600     6220.654        8.400        2.500      341.762       69.659        0.042      337.829       10.064      860.267
11/14/2014  07:29:00     -313.740      -14.746      -23.032      127.870      112.539       54.258    16350.764    12665.087     2943.878        6.556        1.598      314.086       60.952        0.038      337.824       10.056      860.285
11/14/2014  07:30:00     -307.101      -29.441      -23.752      129.038      109.222       62.707    16650.875    11929.426     3932.207        6.412        1.626      308.509       66.403        0.046      337.889       10.165      860.289
11/14/2014  07:31:00     -343.056     -133.987       -0.597      118.956       74.532       51.898    14150.439     5554.963     2693.428        7.901        1.120      368.293       42.724        0.013      337.743        9.920      860.283
11/14/2014  07:32:00     -301.557     -115.271      -25.731      141.248       79.616       55.251    19951.008     6338.779     3052.626        6.711        1.467      322.838       60.038        0.035      337.773        9.969      860.291
11/14/2014  07:33:00     -243.179      -46.531      -13.741      118.722       78.348       41.767    14094.943     6138.476     1744.448        4.173        1.099      247.590       54.409        0.048      337.791        9.999      860.327
11/14/2014  07:34:00     -261.198      -64.804       -8.244       94.114       90.689       47.976     8857.471     8224.473     2301.733        4.593        0.969      269.117       49.631        0.034      337.785        9.990      860.355
11/14/2014  07:35:00     -186.553      -37.587       -6.762      129.842       92.553       50.845    16858.985     8566.050     2585.182        3.213        1.401      190.302       24.412        0.016      337.813       10.038      860.344
11/14/2014  07:36:00     -230.395      -16.537      -16.779      102.602       93.141       53.535    10527.218     8675.301     2866.007        3.785        1.103      230.988       54.866        0.056      337.957       10.280      860.347
11/14/2014  07:37:00     -243.203       -7.587      -16.079       83.750       73.184       48.766     7014.021     5355.941     2378.148        3.710        0.737      243.322       48.314        0.039      337.983       10.322      860.355
11/14/2014  07:38:00     -200.781      -38.081      -27.091      107.754       69.650       52.210    11610.927     4851.086     2725.910        3.084        0.959      204.360       51.601        0.064      338.029       10.397      860.360
11/14/2014  07:39:00     -175.156      -51.397       -3.249      108.753       90.877       47.645    11827.300     8258.623     2270.053        2.784        1.118      182.541       51.263        0.079      337.921       10.221      860.383
11/14/2014  07:40:00     -159.144      -78.458      -12.431       88.790       72.287       43.224     7883.591     5225.411     1868.275        2.330        0.749      177.433       41.937        0.056      337.922       10.221      860.395
11/14/2014  07:41:00     -387.141      -66.860      -36.579      108.613      125.939       62.583    11796.885    15860.695     3916.575        9.362        1.579      392.872       49.567        0.016      337.963       10.288      860.408
11/14/2014  07:42:00     -269.270     -121.071      -31.736      114.679       75.736       40.963    13151.200     5735.988     1677.953        5.436        1.028      295.236       35.360        0.014      337.893       10.171      860.396
11/14/2014  07:43:00     -258.969      -25.573      -11.719      121.910       95.074       57.616    14862.063     9039.121     3319.574        4.753        1.361      260.229       61.819        0.056      338.031       10.403      860.390
11/14/2014  07:44:00     -113.966      -10.309       -7.177       73.362       44.750       39.241     5381.969     2002.580     1539.860        1.103        0.446      114.431       31.737        0.077      338.115       10.547      860.384
11/14/2014  07:45:00     -172.641       71.686      -20.640       58.660       73.308       38.494     3440.974     5374.123     1481.813        2.283        0.515      186.933       37.394        0.040      338.109       10.535      860.386
11/14/2014  07:46:00     -308.004       12.768      -46.755      111.910       91.644       50.946    12523.786     8398.558     2595.451        6.036        1.176      308.268       45.397        0.022      338.116       10.545      860.418
11/14/2014  07:47:00     -136.284      -41.399       -8.858      101.116       74.228       50.141    10224.461     5509.777     2514.159        1.930        0.912      142.434       46.673        0.107      338.054       10.444      860.449
11/14/2014  07:48:00     -132.593       -7.527       -3.377      109.993       84.218       42.892    12098.444     7092.638     1839.756        1.934        1.052      132.806       54.966        0.171      338.094       10.512      860.494
11/14/2014  07:49:00     -169.020       39.177      -21.547       99.305       63.878       36.136     9861.558     4080.359     1305.783        2.290        0.762      173.501       51.214        0.087      338.167       10.632      860.527
11/14/2014  07:50:00     -224.225      -83.783      -33.197       61.535       44.622       35.603     3786.564     1991.114     1267.546        3.272        0.352      239.367       22.827        0.009      337.993       10.340      860.524
11/14/2014  07:51:00     -291.538     -106.535      -25.924       99.177       64.719       39.184     9836.062     4188.536     1535.405        5.628        0.778      310.393       37.064        0.014      337.900       10.182      860.535
11/14/2014  07:52:00     -181.627      -34.771      -28.920       75.991       33.983       25.306     5774.626     1154.831      640.372        2.130        0.378      184.926       27.992        0.023      337.927       10.229      860.554
11/14/2014  07:53:00      -30.896      -23.970        7.230       49.464       37.011       30.006     2446.713     1369.823      900.341        0.315        0.236       39.104       30.345        0.602      338.195       10.681      860.551
11/14/2014  07:54:00      -87.116       10.945      -11.201       35.739       49.645       23.651     1277.270     2464.657      559.350        0.607        0.215       87.801       24.611        0.079      338.110       10.539      860.558
11/14/2014  07:55:00        6.584       59.452        3.040       36.253       40.241       29.474     1314.291     1619.355      868.698        0.369        0.190       59.815       29.800        0.248      338.414       11.050      860.569
11/14/2014  07:56:00      -48.863       33.124        5.707      111.602      120.448       39.406    12454.998    14507.636     1552.855        1.601        1.426       59.032       39.372        0.445      338.252       10.777      860.573
11/14/2014  07:57:00     -228.641      -24.226      -23.284       65.815       51.190       31.047     4331.617     2620.430      963.933        3.066        0.396      229.921       28.499        0.015      338.076       10.478      860.609
11/14/2014  07:58:00     -207.953      -78.158      -13.399       61.466       49.901       29.212     3778.092     2490.147      853.348        2.833        0.356      222.156       20.607        0.009      338.111       10.539      860.639
11/14/2014  07:59:00     -144.935      -59.694      -12.069       45.210       30.342       22.139     2043.966      920.644      490.126        1.408        0.173      156.747       20.109        0.016      338.066       10.465      860.659
11/14/2014  08:00:00      -70.798      -17.843       -4.883       66.034       40.155       23.123     4360.429     1612.385      534.672        0.593        0.325       73.012       13.999        0.037      338.326       10.901      860.651
11/14/2014  08:01:00     -156.398       21.792      -17.150       63.066       50.680       37.526     3977.258     2568.498     1408.200        1.659        0.398      157.909       40.037        0.064      338.213       10.711      860.657
11/14/2014  08:02:00     -196.052       -9.469      -11.619       69.819       64.077       33.508     4874.671     4105.910     1122.792        2.438        0.505      196.281       36.726        0.035      338.194       10.678      860.685
11/14/2014  08:03:00     -177.200      -78.194       -2.156       80.018       71.876       38.902     6402.837     5166.141     1513.327        2.530        0.654      193.685       37.947        0.038      338.077       10.481      860.692
11/14/2014  08:04:00      -61.463      -73.515        6.892       78.336       56.318       28.320     6136.527     3171.742      802.033        0.967        0.506       95.824       34.819        0.132      338.098       10.518      860.695
11/14/2014  08:05:00      -16.947       -9.576       27.131       41.612       49.635       28.588     1731.594     2463.614      817.247        0.306        0.251       19.465       25.461        1.711      338.317       10.886      860.688
11/14/2014  08:06:00       27.945     -116.536       -8.245       80.633       82.256       42.406     6501.632     6766.023     1798.293        1.474        0.753      119.839       46.931        0.153      338.157       10.617      860.686
11/14/2014  08:07:00       19.220      -55.218        2.040       66.419       62.995       34.724     4411.501     3968.370     1205.747        0.650        0.479       58.467       41.219        0.497      338.215       10.714      860.702
11/14/2014  08:08:00      -71.507      -68.244       13.147       82.675       62.826       33.940     6835.187     3947.126     1151.891        1.094        0.597       98.845       36.569        0.137      338.183       10.661      860.714
11/14/2014  08:09:00     -117.651      -66.140        5.900       64.546       53.058       30.098     4166.247     2815.103      905.895        1.307        0.394      134.967       24.816        0.034      338.062       10.459      860.712
11/14/2014  08:10:00     -152.768      -41.816       -4.647       51.120       49.099       28.158     2613.285     2410.708      792.874        1.546        0.291      158.388       23.401        0.022      338.055       10.446      860.715
11/14/2014  08:11:00     -130.931       15.204      -11.814       62.758       41.172       26.043     3938.622     1695.141      678.247        1.191        0.316      131.811       26.880        0.042      338.130       10.573      860.700
11/14/2014  08:12:00       18.187       -6.027       34.391       23.411       16.450       18.549      548.063      270.610      344.075        0.136        0.058       19.160       10.762        0.316      338.728       11.577      860.676
11/14/2014  08:13:00      -59.628      -42.702       -3.102       55.758       30.287       21.782     3108.917      917.317      474.452        0.494        0.225       73.341       20.176        0.076      337.970       10.304      860.683
11/14/2014  08:14:00      -85.763      -51.457        2.142       44.131       26.333       23.397     1947.523      693.442      547.397        0.660        0.159      100.016       24.570        0.060      337.930       10.236      860.701
11/14/2014  08:15:00      -69.160      -48.488        7.808       71.581       46.103       29.166     5123.845     2125.514      850.636        0.765        0.405       84.464       29.219        0.120      338.075       10.480      860.706
11/14/2014  08:16:00      -36.178      -75.851        6.991       51.621       64.840       27.054     2664.711     4204.175      731.919        0.735        0.380       84.037       31.080        0.137      337.838       10.082      860.695
11/14/2014  08:17:00        0.630       -7.202       54.938       37.235       74.204       54.421     1386.418     5506.258     2961.632        0.646        0.493        7.230       47.288       42.781      338.304       10.865      860.668
11/14/2014  08:18:00       25.165       44.324       79.880       48.712       56.783       40.475     2372.862     3224.328     1638.194        0.811        0.362       50.969       44.799        0.773      338.313       10.880      860.612
11/14/2014  08:19:00       19.155      -37.165      -12.547       31.439       52.891       26.833      988.395     2797.415      720.013        0.320        0.225       41.811       15.660        0.140      338.116       10.547      860.638
11/14/2014  08:20:00      -90.231      -22.755       -7.420       55.224       42.509       29.137     3049.650     1807.005      848.936        0.721        0.285       93.056       18.794        0.041      338.193       10.679      860.686
11/14/2014  08:21:00      -82.753        9.109       -0.645       34.640       47.771       35.283     1199.957     2282.096     1244.895        0.583        0.236       83.253       30.999        0.139      338.296       10.851      860.689
11/14/2014  08:22:00      -68.430       48.042        7.447       96.067       70.739       44.773     9228.944     5003.944     2004.666        1.164        0.812       83.610       46.383        0.308      338.369       10.973      860.696
11/14/2014  08:23:00      -39.237       59.329        2.789       57.686       41.514       46.970     3327.677     1723.441     2206.195        0.616        0.363       71.131       46.721        0.431      338.477       11.154      860.676
11/14/2014  08:24:00      -90.818       -9.243       -3.163       79.497       58.400       25.606     6319.790     3410.521      655.663        0.936        0.519       91.287       30.775        0.114      338.491       11.179      860.705
11/14/2014  08:25:00     -341.001      -41.830      -25.923      136.653      117.317       66.980    18674.131    13763.191     4486.322        7.781        1.846      343.557       31.880        0.009      338.563       11.296      860.702
11/14/2014  08:26:00     -421.114     -111.567      -22.506      231.418      113.481       80.986    53554.061    12878.026     6558.692       13.163        3.650      435.643       96.243        0.049      338.529       11.240      860.718
11/14/2014  08:27:00     -287.991      -53.406      -10.024      188.248      130.039       69.583    35437.331    16910.237     4841.828        7.153        2.859      292.901       92.438        0.100      338.680       11.494      860.705
11/14/2014  08:28:00     -268.523      -98.030       -2.596      198.444      132.881       80.013    39379.843    17657.370     6402.053        7.257        3.172      285.857       96.673        0.114      338.688       11.507      860.668
11/14/2014  08:29:00     -437.397     -170.767      -10.507      294.091      189.538       82.530    86489.555    35924.769     6811.253       17.488        6.461      469.550      111.535        0.056      338.580       11.324      860.669
11/14/2014  08:30:00     -585.098     -107.617      -27.876      230.937      182.650       90.606    53331.897    33361.102     8209.494       22.478        4.745      594.913       92.460        0.024      338.544       11.264      860.658
11/14/2014  08:31:00     -365.476     -156.769      -10.299      201.961      169.040       76.973    40788.383    28574.520     5924.832       11.676        3.764      397.680       87.821        0.049      338.665       11.468      860.688
11/14/2014  08:32:00     -189.825      -19.406       10.321      139.064      125.874       70.394    19338.694    15844.356     4955.327        3.832        2.007      190.814       72.927        0.146      338.882       11.834      860.650
11/14/2014  08:33:00     -238.521     -153.373       -1.393      129.646      190.117       59.848    16808.014    36144.472     3581.723        6.846        2.827      283.576       63.476        0.050      338.717       11.556      860.657
11/14/2014  08:34:00     -235.861     -152.418        6.319      143.565      109.223       80.274    20610.953    11929.753     6443.945        5.894        1.949      280.824       90.772        0.104      338.728       11.573      860.686
11/14/2014  08:35:00     -183.278      -69.769      -11.493      116.710       93.178       50.809    13621.197     8682.141     2581.532        3.173        1.244      196.108       56.328        0.083      338.816       11.724      860.690
11/14/2014  08:36:00     -222.890      -70.282       10.896       96.732      120.025       53.582     9357.150    14406.002     2870.984        4.068        1.332      233.708       44.009        0.035      338.871       11.814      860.665
11/14/2014  08:37:00     -292.825      -75.277        0.078      213.035      135.769       72.327    45383.802    18433.318     5231.256        8.022        3.452      302.346       71.970        0.057      338.916       11.890      860.662
11/14/2014  08:38:00     -364.811     -169.591       -7.785      191.710      169.202       89.223    36752.773    28629.351     7960.788       11.761        3.667      402.303       96.796        0.058      338.707       11.538      860.613
11/14/2014  08:39:00      -86.128      -53.314       27.665      179.427      103.325       98.889    32193.923    10676.007     9778.990        3.183        2.632      101.293       84.849        0.702      338.851       11.781      860.636
11/14/2014  08:40:00     -203.972      -46.225        7.745      183.217      141.454       79.385    33568.563    20009.177     6301.902        5.183        2.994      209.144       85.064        0.165      338.873       11.819      860.679
11/14/2014  08:41:00     -237.127     -190.578       10.982      157.287      125.171       65.911    24739.066    15667.889     4344.223        6.870        2.238      304.219       74.402        0.060      338.789       11.678      860.705
11/14/2014  08:42:00     -290.120     -147.662      -14.758      175.188      167.089       72.201    30690.831    27918.663     5212.950        8.499        3.191      325.536       83.821        0.066      338.612       11.378      860.695
11/14/2014  08:43:00     -309.506      -72.535      -21.180      153.257      126.036       80.271    23487.856    15885.085     6443.404        7.365        2.291      317.892       89.523        0.079      338.599       11.358      860.670
11/14/2014  08:44:00     -326.751      -94.277      -10.085      176.045      123.889       73.154    30991.894    15348.584     5351.508        8.371        2.585      340.080       71.447        0.044      338.602       11.361      860.662
11/14/2014  08:45:00     -147.188     -214.524        7.062      111.689      168.016       66.340    12474.536    28229.529     4401.019        5.641        2.255      260.163       66.155        0.065      338.646       11.436      860.717
11/14/2014  08:46:00     -158.205     -120.224       -2.281       96.976      104.570       55.601     9404.378    10934.819     3091.500        3.145        1.172      198.703       22.952        0.013      338.466       11.133      860.668
11/14/2014  08:47:00     -127.225     -218.621       -7.062       74.313       69.556       41.210     5522.403     4838.044     1698.258        3.804        0.603      252.945       40.516        0.026      338.377       10.984      860.639
11/14/2014  08:48:00     -152.810     -127.505       -3.638       93.611       93.707       45.238     8762.992     8781.038     2046.471        2.960        0.980      199.018       61.962        0.097      338.429       11.070      860.610
11/14/2014  08:49:00     -189.533     -112.983       -1.872       78.381       79.594       44.704     6143.551     6335.223     1998.432        3.158        0.724      220.653       46.181        0.044      338.433       11.079      860.607
11/14/2014  08:50:00     -326.424     -173.421      -14.204      164.229      124.404       60.975    26971.013    15476.248     3717.890        9.149        2.308      369.632       50.920        0.019      338.587       11.336      860.636
11/14/2014  08:51:00     -237.831       12.127       -5.172      180.256      224.844       78.334    32492.381    50554.697     6136.256        7.294        4.459      238.140       89.450        0.141      338.471       11.143      860.638
11/14/2014  08:52:00     -288.380       34.821      -36.876      116.633      146.832       66.959    13603.302    21559.620     4483.493        6.268        1.982      290.475       52.537        0.033      338.528       11.238      860.613
11/14/2014  08:53:00     -209.092      -59.988       -4.657       95.026       97.764       52.574     9029.861     9557.878     2763.981        3.434        1.068      217.527       50.624        0.054      338.454       11.114      860.529
11/14/2014  08:54:00     -304.467      -77.346      -21.328      129.206      114.979       42.955    16694.230    13220.225     1845.160        6.544        1.588      314.137       47.943        0.023      338.589       11.340      860.534
11/14/2014  08:55:00     -170.437      -80.937        5.402       99.977      105.692       44.121     9995.473    11170.843     1946.686        2.937        1.156      188.679       51.002        0.073      338.683       11.497      860.557
11/14/2014  08:56:00     -210.374     -142.123       -8.041      137.735      112.275       63.076    18971.057    12605.564     3978.528        5.003        1.778      253.882       78.850        0.096      338.770       11.644      860.573
11/14/2014  08:57:00      -66.298      -56.693        2.485       62.768       53.809       42.638     3939.792     2895.447     1817.982        0.813        0.433       87.233       34.805        0.159      338.802       11.701      860.559
11/14/2014  08:58:00     -120.501     -134.092      -19.533       81.532       73.179       36.315     6647.516     5355.172     1318.796        2.310        0.666      180.281       32.427        0.032      338.409       11.038      860.563
11/14/2014  08:59:00     -187.880      -80.455      -28.020       75.961       84.518       29.160     5770.090     7143.300      850.333        2.816        0.688      204.382       20.461        0.010      338.282       10.824      860.565
11/14/2014  09:00:00     -149.876     -187.490       -8.724       97.413       85.379       45.429     9489.226     7289.568     2063.799        3.826        0.942      240.032       44.533        0.034      338.347       10.934      860.572
11/14/2014  09:01:00     -174.415     -114.891       15.891       89.526       64.312       50.820     8014.904     4135.994     2582.647        2.930        0.737      208.855       48.087        0.053      338.446       11.102      860.591
11/14/2014  09:02:00     -196.387      -79.739       -3.600      134.444       95.067       45.474    18075.184     9037.700     2067.909        3.705        1.459      211.958       47.458        0.050      338.524       11.232      860.611
11/14/2014  09:03:00     -113.327     -217.728       12.396      119.896      105.575       48.168    14375.169    11146.134     2320.191        4.412        1.392      245.456       49.510        0.041      338.469       11.139      860.632
11/14/2014  09:04:00     -137.753      -80.105        8.211      124.631       87.988       59.575    15532.933     7741.878     3549.145        2.614        1.341      159.351       49.165        0.095      338.552       11.278      860.636
11/14/2014  09:05:00     -200.554     -181.394        0.215      101.318       83.841       52.649    10265.265     7029.313     2771.940        4.659        1.003      270.418       49.834        0.034      338.342       10.925      860.613
11/14/2014  09:06:00     -165.136     -271.198      -10.599      143.036      173.842       65.805    20459.223    30220.952     4330.273        7.796        2.751      317.519       69.577        0.048      338.416       11.049      860.593
11/14/2014  09:07:00     -202.479     -256.955       -5.258      130.047      123.367       66.689    16912.175    15219.302     4447.452        7.181        1.829      327.145       58.969        0.032      338.417       11.051      860.579
11/14/2014  09:08:00     -290.302     -161.012      -12.336       93.689       95.831       50.480     8777.581     9183.655     2548.226        6.543        1.025      331.964       51.103        0.024      338.365       10.964      860.611
11/14/2014  09:09:00     -395.755     -198.429      -16.871      183.407      180.206       72.686    33638.267    32474.305     5283.264       13.382        3.570      442.715       56.378        0.016      338.340       10.922      860.604
11/14/2014  09:10:00     -178.555      -82.083      -12.372      106.062       72.207       42.290    11249.119     5213.821     1788.419        2.851        0.913      196.519       51.226        0.068      338.339       10.919      860.624
11/14/2014  09:11:00     -142.356     -159.319        4.045      105.938       72.319       50.957    11222.864     5229.972     2596.648        3.235        0.952      213.654       43.795        0.042      338.342       10.926      860.610
11/14/2014  09:12:00      -78.829     -163.308        4.260      117.550       90.452       54.279    13817.935     8181.635     2946.196        2.892        1.247      181.338       54.217        0.089      338.290       10.839      860.616
11/14/2014  09:13:00     -228.091     -130.979       -9.072      109.803       92.153       64.359    12056.645     8492.185     4142.124        4.697        1.235      263.023       57.137        0.047      338.390       11.005      860.623
11/14/2014  09:14:00     -225.000       -6.691       -2.099      155.821      120.033       62.760    24280.122    14407.916     3938.794        4.664        2.131      225.099       80.905        0.129      338.639       11.424      860.608
11/14/2014  09:15:00     -107.534     -200.156       -4.950       84.737       82.992       52.181     7180.408     6887.694     2722.891        3.422        0.840      227.213       46.634        0.042      338.460       11.123      860.607
11/14/2014  09:16:00     -257.230     -188.998       -7.039       94.784       88.431       52.123     8984.041     7820.018     2716.850        6.073        0.976      319.198       31.200        0.010      338.328       10.902      860.616
11/14/2014  09:17:00     -160.907     -137.510       13.227      120.244       94.827       50.868    14458.733     8992.198     2587.546        3.550        1.302      211.661       56.726        0.072      338.506       11.201      860.586
11/14/2014  09:18:00     -100.502     -123.228        9.024      124.113       95.370       52.172    15404.052     9095.436     2721.917        2.629        1.361      159.015       64.530        0.165      338.422       11.061      860.560
11/14/2014  09:19:00     -127.871     -155.264       -9.850       73.921      102.298       42.030     5464.357    10464.942     1766.543        2.912        0.885      201.141       43.004        0.046      338.241       10.756      860.505
11/14/2014  09:20:00     -111.403      -48.492        4.602       76.550       83.104       39.521     5859.868     6906.343     1561.943        1.455        0.716      121.499       40.255        0.110      338.540       11.260      860.463
11/14/2014  09:21:00      -86.537     -149.534        2.406       99.366       58.821       41.018     9873.585     3459.862     1682.473        2.243        0.751      172.769       46.114        0.071      338.326       10.900      860.476
11/14/2014  09:22:00     -128.168     -177.251        1.124       75.513       76.464       48.671     5702.263     5846.777     2368.851        3.088        0.696      218.734       47.236        0.047      338.424       11.062      860.489
11/14/2014  09:23:00      -92.966     -112.697        8.519       80.991       51.538       38.820     6559.477     2656.180     1506.994        1.607        0.536      146.094       38.775        0.070      338.515       11.217      860.523
11/14/2014  09:24:00     -238.057     -124.794        2.800      164.501      100.744       55.886    27060.731    10149.391     3123.202        5.628        2.017      268.784       51.440        0.037      338.658       11.457      860.593
11/14/2014  09:25:00     -303.303       33.054      -16.266      176.589      140.794       78.451    31183.837    19822.901     6154.535        7.524        2.858      305.099       87.999        0.083      338.844       11.769      860.624
11/14/2014  09:26:00     -367.736     -102.752      -27.835      111.900       97.470       55.433    12521.615     9500.348     3072.833        8.582        1.255      381.822       38.129        0.010      338.373       10.978      860.611
11/14/2014  09:27:00     -297.383     -137.715       -7.798      202.578      147.667       78.103    41037.673    21805.581     6100.046        8.819        3.447      327.722       88.408        0.073      338.638       11.422      860.562
11/14/2014  09:28:00     -324.960     -135.340      -15.372      180.935      111.672       72.358    32737.463    12470.709     5235.702        8.729        2.522      352.017       86.941        0.061      338.618       11.389      860.565
11/14/2014  09:29:00     -312.892      -65.153       -8.450      163.596      175.277       79.478    26763.565    30721.927     6316.682        8.300        3.190      319.604       77.135        0.058      338.800       11.695      860.508
11/14/2014  09:30:00     -445.738     -186.534      -18.891      197.764      184.675       95.518    39110.680    34104.679     9123.610       15.807        4.117      483.195       98.752        0.042      338.648       11.440      860.551
11/14/2014  09:31:00     -298.746      -16.710      -14.841      138.426      133.784       61.946    19161.840    17898.187     3837.303        6.531        2.045      299.213       61.249        0.042      338.661       11.460      860.617
11/14/2014  09:32:00     -164.008     -119.785       -1.366      165.329      125.548       64.270    27333.774    15762.337     4130.619        4.423        2.361      203.094       72.106        0.126      338.618       11.392      860.589
11/14/2014  09:33:00     -189.361        9.262       -5.649      153.860      143.808       73.415    23673.000    20680.648     5389.725        4.285        2.487      189.587       80.561        0.181      338.747       11.605      860.576
11/14/2014  09:34:00     -373.930        3.992      -15.753      169.187      147.673       72.004    28624.311    21807.191     5184.512        9.784        2.781      373.952       73.776        0.039      338.873       11.817      860.583
11/14/2014  09:35:00     -412.765     -108.729      -27.580      138.842      102.990       69.906    19277.035    10606.912     4886.848       10.886        1.739      426.845       75.858        0.032      338.433       11.079      860.586
11/14/2014  09:36:00     -286.998      -43.716       -6.492      115.044      104.686       69.352    13235.203    10959.143     4809.720        5.666        1.450      290.309       72.505        0.062      338.753       11.616      860.608
11/14/2014  09:37:00     -206.208      -20.983       -2.544      186.824      104.597       73.711    34903.125    10940.480     5433.248        4.711        2.564      207.273       89.085        0.185      338.837       11.756      860.628
11/14/2014  09:38:00     -145.806      -89.696       13.420      114.583      122.204       62.947    13129.263    14933.885     3962.283        3.075        1.601      171.187       59.117        0.119      338.901       11.865      860.599
11/14/2014  09:39:00     -284.543     -222.565      -15.705      136.583      170.468       61.575    18654.853    29059.439     3791.442        9.112        2.575      361.247       54.925        0.023      338.618       11.388      860.602
11/14/2014  09:40:00     -311.653     -205.611      -14.120      182.667      137.596       75.737    33367.189    18932.649     5736.150        9.881        2.902      373.367       95.931        0.066      338.671       11.477      860.618
11/14/2014  09:41:00     -237.960     -194.619       11.525      171.335      148.299       93.256    29355.567    21992.626     8696.603        7.733        3.002      307.411      104.257        0.115      338.764       11.634      860.622
11/14/2014  09:42:00     -407.797     -110.754      -17.089      250.773      180.013      109.302    62886.902    32404.616    11946.963       14.303        5.362      422.570      122.088        0.083      338.735       11.585      860.626
11/14/2014  09:43:00     -353.898     -171.025       13.016      234.344      167.113       97.570    54917.189    27926.670     9519.949       12.349        4.618      393.057      108.343        0.076      338.634       11.415      860.630
11/14/2014  09:44:00     -400.232      -73.526      -15.878      224.865      137.546       78.601    50564.441    18919.008     6178.156       12.074        3.783      406.930       96.168        0.056      338.515       11.217      860.691
11/14/2014  09:45:00     -208.147      -71.835       -6.339      102.364       79.472       42.043    10478.476     6315.740     1767.621        3.354        0.928      220.194       43.875        0.040      338.571       11.310      860.662
11/14/2014  09:46:00     -338.817      -63.475      -41.340      104.084       97.134       56.684    10833.542     9434.978     3213.044        7.200        1.174      344.711       56.748        0.027      338.524       11.231      860.694
11/14/2014  09:47:00     -278.239      -97.580       -7.286      104.621       77.216       49.914    10945.484     5962.370     2491.408        5.319        0.970      294.854       47.688        0.026      338.787       11.673      860.716
11/14/2014  09:48:00     -322.182     -138.100      -14.841      130.164      123.003       58.577    16942.706    15129.726     3431.243        7.929        1.775      350.533       56.477        0.026      338.695       11.519      860.736
11/14/2014  09:49:00     -446.965        7.932      -53.774      140.797      132.402       73.510    19823.688    17530.309     5403.700       12.274        2.138      447.035       69.606        0.024      338.774       11.650      860.687
11/14/2014  09:50:00     -636.664       89.329      -56.032      177.892      162.724       59.972    31645.506    26479.187     3596.601       23.908        3.086      642.900       51.011        0.006      338.761       11.629      860.648
11/14/2014  09:51:00     -314.816      -91.926       -7.538      151.369      119.285       64.946    22912.666    14228.833     4218.026        7.448        2.068      327.963       69.020        0.044      338.940       11.931      860.670
11/14/2014  09:52:00     -351.982     -209.827      -25.686      238.315      131.454       70.493    56794.260    17280.150     4969.253       12.380        3.952      409.779       78.176        0.036      338.621       11.392      860.685
11/14/2014  09:53:00     -221.774     -145.309       -3.752      166.833      112.384       64.382    27833.145    12630.166     4145.066        5.745        2.230      265.139       65.597        0.061      338.685       11.501      860.653
11/14/2014  09:54:00     -398.237     -223.938      -13.401      185.992      161.235       81.982    34592.864    25996.597     6721.123       13.810        3.366      456.882      100.515        0.048      338.726       11.571      860.618
11/14/2014  09:55:00     -430.958     -286.140       -1.683      232.406      155.887       97.203    54012.741    24300.896     9448.397       17.767        4.388      517.302      113.265        0.048      338.565       11.300      860.663
11/14/2014  09:56:00     -263.307     -193.298      -36.318      134.246      122.089       48.891    18022.007    14905.817     2390.364        7.166        1.766      326.641       33.219        0.010      338.575       11.316      860.651
11/14/2014  09:57:00     -340.801     -143.753      -20.460      143.328      125.858       69.594    20542.864    15840.257     4843.346        8.922        2.061      369.879       68.873        0.035      338.795       11.686      860.638
11/14/2014  09:58:00     -469.182     -254.220      -14.305      160.127      156.903       88.125    25640.523    24618.509     7766.082       17.148        2.901      533.629       86.514        0.026      338.710       11.544      860.604
11/14/2014  09:59:00     -188.675     -189.570       -1.141      102.040      119.958       52.639    10412.134    14389.842     2770.862        4.955        1.379      267.461       43.265        0.026      338.843       11.767      860.604
11/14/2014  10:00:00     -226.508     -126.964      -14.827      126.307       79.253       51.484    15953.552     6281.043     2650.624        4.626        1.244      259.665       53.431        0.042      338.642       11.429      860.576
11/14/2014  10:01:00     -218.693     -136.633        2.604      132.468      124.992       63.379    17547.650    15622.946     4016.835        5.184        1.859      257.866       57.225        0.049      338.911       11.881      860.544
11/14/2014  10:02:00     -182.535     -133.740       10.749      157.248      132.738       73.299    24726.795    17619.445     5372.739        4.951        2.386      226.286       79.707        0.124      339.200       12.370      860.567
11/14/2014  10:03:00     -142.507     -149.545        4.567      104.441      170.920       62.458    10907.824    29213.570     3901.029        4.335        2.201      206.572       63.627        0.095      339.139       12.265      860.584
11/14/2014  10:04:00     -323.194     -216.779       -5.290      172.285      137.559       74.187    29682.231    18922.367     5503.785       10.278        2.705      389.163       81.601        0.044      338.724       11.566      860.577
11/14/2014  10:05:00     -336.624     -244.631       -4.999      168.707      141.509       90.902    28461.896    20024.886     8263.219       11.496        2.838      416.125       88.802        0.046      338.746       11.605      860.554
11/14/2014  10:06:00     -238.917     -193.235       -1.817      128.853      115.762       65.301    16603.214    13400.931     4264.199        6.434        1.713      307.280       57.505        0.035      338.699       11.523      860.546
11/14/2014  10:07:00     -212.025     -180.839        0.098      133.402      113.685       61.034    17796.207    12924.353     3725.101        5.604        1.722      278.670       73.105        0.069      338.738       11.593      860.551
11/14/2014  10:08:00     -142.989     -175.395        8.717      127.511       94.114       59.919    16258.945     8857.436     3590.268        3.999        1.435      226.294       59.228        0.069      338.843       11.768      860.542
11/14/2014  10:09:00     -170.178     -199.789        5.067      130.708      111.806       66.720    17084.495    12500.515     4451.541        5.146        1.702      262.443       66.001        0.063      338.860       11.796      860.522
11/14/2014  10:10:00     -248.161      -70.473      -27.060       90.878      110.661       46.385     8258.772    12245.892     2151.556        4.496        1.133      257.974       34.719        0.018      339.025       12.072      860.527
11/14/2014  10:11:00     -252.227       64.333      -17.351      103.376       97.128       51.854    10686.585     9433.853     2688.821        4.543        1.140      260.302       53.743        0.043      339.150       12.284      860.542
11/14/2014  10:12:00     -221.176      -20.437      -10.515       98.067       76.205       44.654     9617.213     5807.161     1993.978        3.343        0.871      222.119       50.352        0.051      339.340       12.605      860.587
11/14/2014  10:13:00     -184.213      -77.937        2.376      106.523      100.347       58.654    11347.053    10069.603     3440.327        3.243        1.243      200.022       54.000        0.073      339.251       12.454      860.626
11/14/2014  10:14:00     -298.640      -76.834      -14.891      113.298      149.998       69.963    12836.455    22499.419     4894.812        6.776        2.012      308.366       48.457        0.025      339.252       12.454      860.634
11/14/2014  10:15:00     -376.731     -126.693      -13.994      210.750      138.186       79.634    44415.446    19095.489     6341.563       11.400        3.493      397.464       86.061        0.047      339.162       12.303      860.690
11/14/2014  10:16:00      -97.486      -77.204       14.092       93.154       95.363       53.651     8677.700     9094.133     2878.430        1.815        1.033      124.355       46.041        0.137      339.237       12.431      860.792
11/14/2014  10:17:00      -88.491      -86.030        9.900      109.839       91.909       48.552    12064.700     8447.319     2357.251        1.909        1.143      123.417       35.332        0.082      339.248       12.450      860.792
11/14/2014  10:18:00     -468.523     -226.334      -16.270      225.622      147.731       95.800    50905.252    21824.581     9177.715       17.644        4.095      520.328       94.847        0.033      338.845       11.772      860.767
11/14/2014  10:19:00     -370.872     -297.580      -12.815      183.303      169.719       88.985    33600.002    28804.470     7918.288       14.828        3.516      475.499       94.719        0.040      338.799       11.693      860.762
11/14/2014  10:20:00     -401.846     -239.647       -3.611      185.548      151.546       83.381    34428.171    22966.141     6952.358       14.162        3.217      467.879       90.477        0.037      338.736       11.586      860.718
11/14/2014  10:21:00     -302.383     -221.232       -6.245      130.718      116.977       64.428    17087.234    13683.566     4151.015        8.766        1.746      374.672       63.814        0.029      338.741       11.596      860.655
11/14/2014  10:22:00     -212.116     -149.247       -0.497      121.773      119.676       74.049    14828.733    14322.464     5483.239        5.094        1.732      259.361       57.054        0.048      338.913       11.884      860.574
11/14/2014  10:23:00     -241.275     -304.845       -9.131      113.780      184.575       61.833    12945.993    34067.848     3823.344       10.102        2.542      388.773       65.615        0.028      338.892       11.850      860.528
11/14/2014  10:24:00     -319.834     -277.700        0.166      218.000      158.399       93.440    47524.036    25090.087     8731.081       13.036        4.067      423.570       91.235        0.046      338.893       11.852      860.477
11/14/2014  10:25:00     -436.125     -267.835      -14.588      257.784      159.540       98.580    66452.526    25453.167     9717.964       18.187        5.081      511.801      111.644        0.048      338.763       11.632      860.411
11/14/2014  10:26:00     -379.499     -161.463      -11.159      178.109      123.667       74.355    31722.716    15293.415     5528.681       11.137        2.627      412.419       83.909        0.041      338.846       11.772      860.355
11/14/2014  10:27:00      -96.030     -304.742       -0.374       97.390      160.065       73.945     9484.824    25620.863     5467.857        7.132        2.029      319.515       68.690        0.046      338.945       11.939      860.299
11/14/2014  10:28:00     -265.354     -297.026      -23.171      165.903      138.161       69.263    27523.895    19088.483     4797.333       10.528        2.570      398.293       71.430        0.032      338.927       11.908      860.249
11/14/2014  10:29:00     -326.054     -152.314       -7.854      132.904       96.279       71.500    17663.589     9269.696     5112.215        8.080        1.602      359.876       60.636        0.028      338.905       11.872      860.262
11/14/2014  10:30:00     -294.645     -224.661       -0.156      136.366      116.951       70.359    18595.624    13677.526     4950.380        8.725        1.861      370.524       74.457        0.040      338.848       11.775      860.283
11/14/2014  10:31:00     -186.225     -179.545        1.885      124.230      132.502       59.645    15433.038    17556.896     3557.552        5.173        1.827      258.681       60.943        0.056      338.933       11.918      860.277
11/14/2014  10:32:00     -260.490     -253.645      -19.839      130.999      124.468       62.308    17160.685    15492.345     3882.246        8.455        1.827      363.580       54.794        0.023      339.003       12.037      860.288
11/14/2014  10:33:00     -312.629     -197.210        2.716      168.802      177.251       90.160    28494.160    31418.053     8128.897       10.233        3.402      369.634       81.788        0.049      338.983       12.003      860.316
11/14/2014  10:34:00     -334.485     -108.138       -7.117      186.010      141.083      102.454    34599.616    19904.517    10496.743        9.430        3.250      351.530      109.871        0.098      339.098       12.196      860.294
11/14/2014  10:35:00     -252.671      -65.896      -16.680      127.130       87.177       43.783    16161.983     7599.857     1916.917        4.707        1.284      261.122       47.669        0.033      339.101       12.202      860.322
11/14/2014  10:36:00     -139.367     -137.956       -7.365       81.318       67.950       37.572     6612.595     4617.182     1411.622        2.557        0.632      196.100       34.001        0.030      338.940       11.930      860.314
11/14/2014  10:37:00      -73.918      -89.125        8.503       77.401       84.356       40.741     5990.874     7116.001     1659.818        1.412        0.738      115.789       44.908        0.150      339.147       12.279      860.302
11/14/2014  10:38:00     -116.162      -42.203       -5.339      108.245       68.567       37.041    11716.975     4701.420     1372.044        1.654        0.890      123.591       35.369        0.082      339.618       13.073      860.290
11/14/2014  10:39:00     -334.451      -88.028      -17.279      105.761       86.903       51.941    11185.355     7552.074     2697.854        7.067        1.072      345.842       37.910        0.012      339.173       12.321      860.294
11/14/2014  10:40:00     -279.752     -131.777       -4.401      137.006      136.186       61.161    18770.628    18546.644     3740.690        6.834        2.053      309.235       69.254        0.050      339.180       12.334      860.285
11/14/2014  10:41:00     -116.904     -174.207       17.354      111.643       90.420       57.307    12464.207     8175.822     3284.101        3.412        1.196      209.797       45.647        0.047      339.214       12.392      860.309
11/14/2014  10:42:00      -66.641     -159.244        1.624       97.283       71.927       38.436     9463.887     5173.473     1477.357        2.296        0.806      172.626       34.747        0.041      339.129       12.249      860.271
11/14/2014  10:43:00     -105.183      -77.677       -8.330       73.618       66.868       33.913     5419.596     4471.278     1150.065        1.410        0.552      130.757       35.215        0.073      339.192       12.357      860.251
11/14/2014  10:44:00      -98.692      -91.863      -17.103       60.661       88.411       35.297     3679.769     7816.539     1245.905        1.560        0.637      134.829       24.444        0.033      339.088       12.179      860.231
11/14/2014  10:45:00     -108.734      -58.803      -14.428       52.145       43.157       31.999     2719.081     1862.523     1023.960        1.055        0.280      123.616       21.422        0.030      339.190       12.354      860.213
11/14/2014  10:46:00      -78.138        8.038        2.190       99.881       80.253       47.828     9976.287     6440.549     2287.502        1.244        0.935       78.551       46.520        0.351      339.470       12.824      860.196
11/14/2014  10:47:00     -240.516      -44.973      -18.992      100.221       68.935       48.767    10044.220     4751.967     2378.202        3.870        0.859      244.684       55.256        0.051      339.847       13.457      860.218
11/14/2014  10:48:00     -141.402       36.186       -3.292      120.646       69.349       43.753    14555.404     4809.218     1914.307        2.129        1.064      145.959       50.448        0.119      339.530       12.925      860.215
11/14/2014  10:49:00     -177.645      -28.058      -17.157       66.335       81.664       29.333     4400.321     6669.051      860.424        2.228        0.596      179.847       19.090        0.011      339.657       13.138      860.200
11/14/2014  10:50:00     -299.174     -164.652      -23.015      165.131      111.141       62.860    27268.290    12352.331     3951.442        8.035        2.179      341.490       81.414        0.057      339.373       12.659      860.227
11/14/2014  10:51:00     -200.154      -99.015       -1.603      156.375      108.876       67.006    24453.084    11854.075     4489.809        4.532        2.040      223.306       73.082        0.107      339.444       12.780      860.228
11/14/2014  10:52:00     -184.263      -53.410      -15.564      101.677       54.651       42.978    10338.143     2986.708     1847.103        2.611        0.759      191.847       34.385        0.032      339.300       12.538      860.245
11/14/2014  10:53:00      -82.032      -59.335       -5.601       91.539       66.560       45.377     8379.449     4430.252     2059.035        1.257        0.743      101.242       43.302        0.183      339.447       12.786      860.226
11/14/2014  10:54:00      -42.636       14.117        4.633       67.641       36.875       40.126     4575.271     1359.769     1610.084        0.479        0.377       44.912       36.756        0.670      339.587       13.023      860.213
11/14/2014  10:55:00     -292.295      -43.946      -22.735      148.273      114.628       60.527    21984.980    13139.634     3663.521        6.333        1.939      295.581       57.818        0.038      339.471       12.824      860.174
11/14/2014  10:56:00     -273.475     -116.982       -0.431      153.535      143.153       81.902    23572.870    20492.870     6707.866        6.961        2.539      297.445       75.097        0.064      339.387       12.682      860.131
11/14/2014  10:57:00     -220.661     -135.615        0.148      115.157       87.961       60.843    13261.177     7737.140     3701.920        4.589        1.235      259.003       56.418        0.047      339.296       12.528      860.106
11/14/2014  10:58:00      -70.344     -123.911       -2.146       72.364       71.213       32.877     5236.503     5071.293     1080.872        1.585        0.569      142.486       32.673        0.053      339.290       12.521      860.055
11/14/2014  10:59:00     -125.665     -104.448       -0.172       76.524       84.379       38.751     5855.969     7119.895     1501.627        2.059        0.724      163.405       39.564        0.059      339.424       12.745      860.024
11/14/2014  11:00:00     -118.610     -141.396        2.812       78.806       64.220       35.710     6210.362     4124.157     1275.214        2.284        0.580      184.557       36.878        0.040      339.517       12.902      860.045
11/14/2014  11:01:00     -149.113      -80.642      -12.140       64.683       54.364       34.246     4183.938     2955.467     1172.764        1.860        0.416      169.522       26.970        0.025      339.600       13.042      860.048
11/14/2014  11:02:00     -249.124     -163.202       -0.219      131.533      144.762       62.147    17300.845    20956.073     3862.217        6.540        2.106      297.821       72.047        0.059      339.620       13.074      860.032
11/14/2014  11:03:00     -106.932     -236.324      -10.320      115.595       62.332       42.376    13362.103     3885.323     1795.756        4.321        0.952      259.391       49.949        0.037      339.094       12.191      860.066
11/14/2014  11:04:00      -93.684     -101.329       13.023       93.356       81.945       49.245     8715.366     6715.015     2425.108        1.853        0.893      138.001       47.912        0.121      339.401       12.707      860.021
11/14/2014  11:05:00     -185.950     -171.790       -1.002      135.487       93.429       73.235    18356.798     8728.889     5363.357        4.826        1.622      253.159       70.053        0.077      339.541       12.941      860.030
11/14/2014  11:06:00     -300.143      -99.145      -15.591      157.931       98.611       71.472    24942.183     9724.100     5108.189        6.996        1.989      316.095       68.443        0.047      339.575       12.998      860.040
11/14/2014  11:07:00     -171.674      -25.146        2.213       91.076      112.091       52.823     8294.790    12564.341     2790.285        2.687        1.182      173.506       44.170        0.065      339.588       13.022      860.048
11/14/2014  11:08:00     -136.862      -91.747       -3.690      104.426       85.789       43.838    10904.839     7359.822     1921.746        2.367        1.009      164.768       49.666        0.091      339.794       13.370      860.030
11/14/2014  11:09:00     -188.480      -15.452        3.436      115.377       96.517       56.490    13311.797     9315.466     3191.107        3.079        1.291      189.112       58.791        0.097      340.021       13.753      860.023
11/14/2014  11:10:00     -328.898     -132.674       -9.078      142.418       77.903       58.948    20282.798     6068.913     3474.903        7.784        1.491      354.649       48.781        0.019      339.531       12.924      860.025
11/14/2014  11:11:00     -268.607      -90.480       -8.663      105.112       93.694       50.828    11048.556     8778.520     2583.489        5.141        1.121      283.436       48.091        0.029      339.861       13.481      860.024
11/14/2014  11:12:00     -280.127     -153.717       -4.018      231.457      147.743       82.045    53572.405    21828.051     6731.445        9.211        4.107      319.531       96.068        0.090      339.915       13.575      859.979
11/14/2014  11:13:00     -244.876     -136.874       -1.122      154.679      133.135       69.694    23925.542    17724.948     4857.226        6.259        2.325      280.532       79.113        0.080      339.875       13.504      859.961
11/14/2014  11:14:00     -105.962      111.670      -24.207       61.615      127.523       49.175     3796.386    16262.156     2418.137        2.338        1.124      153.942       44.264        0.083      339.682       13.180      859.998
11/14/2014  11:15:00      -66.093      171.699      -12.068       71.845      107.249       37.736     5161.664    11502.359     1423.983        2.604        0.904      183.981       42.024        0.052      339.696       13.204      859.951
11/14/2014  11:16:00     -235.913       25.806      -13.157      141.883      130.905       64.557    20130.920    17136.035     4167.608        4.896        2.072      237.320       81.578        0.118      339.957       13.644      859.974
11/14/2014  11:17:00     -380.568      125.186      -40.423      219.090      160.345       72.952    48000.557    25710.528     5322.013       12.057        3.952      400.629       92.864        0.054      339.744       13.283      859.932
11/14/2014  11:18:00     -189.849      -76.775        1.552      151.108       81.736       56.080    22833.649     6680.752     3144.951        3.729        1.633      204.785       61.361        0.090      340.063       13.822      859.936
11/14/2014  11:19:00     -240.272     -149.428       -5.870      185.538      113.413       73.615    34424.515    12862.409     5419.097        6.639        2.635      282.948       82.058        0.084      339.901       13.551      859.921
11/14/2014  11:20:00     -150.116       -4.298      -13.788       77.447      105.307       62.487     5998.042    11089.575     3904.604        2.186        1.050      150.178       33.749        0.051      339.963       13.655      859.942
11/14/2014  11:21:00     -212.401     -114.040       -4.237      140.276       75.181       56.740    19677.264     5652.183     3219.430        4.334        1.427      241.080       59.070        0.060      340.086       13.860      859.919
11/14/2014  11:22:00     -191.861      -23.196      -25.469      124.866       94.760       61.721    15591.504     8979.539     3809.530        3.318        1.419      193.258       61.167        0.100      340.087       13.863      859.883
11/14/2014  11:23:00      -36.217       12.557        8.401       68.555       72.006       46.807     4699.771     5184.891     2190.870        0.681        0.604       38.332       47.795        1.555      340.392       14.381      859.866
11/14/2014  11:24:00      -77.276      101.375        5.798      107.240      132.488       52.777    11500.327    17553.085     2785.422        2.405        1.592      127.470       55.783        0.192      340.273       14.178      859.869
11/14/2014  11:25:00     -120.167      169.459        6.248      125.340      148.143       86.093    15710.220    21946.326     7411.928        4.412        2.253      207.741       81.989        0.156      340.118       13.914      859.808
11/14/2014  11:26:00     -148.819      -95.837        1.426      150.918      117.687       81.148    22776.222    13850.219     6585.069        3.726        2.161      177.008       83.549        0.223      340.364       14.332      859.839
11/14/2014  11:27:00     -165.775      -35.950      -12.648      144.116      135.549       72.046    20769.407    18373.643     5190.621        3.662        2.217      169.628       82.609        0.237      340.109       13.901      859.866
11/14/2014  11:28:00     -314.272      -14.739      -18.979      138.003       90.039       57.085    19044.836     8106.947     3258.658        6.487        1.521      314.618       67.717        0.046      339.794       13.368      859.859
11/14/2014  11:29:00     -266.784     -131.280       -0.133      125.626       93.627       60.748    15781.811     8765.966     3690.263        5.832        1.412      297.335       56.042        0.036      339.745       13.286      859.825
11/14/2014  11:30:00     -241.139      -90.749        1.210      122.619       72.767       50.535    15035.471     5295.054     2553.738        4.463        1.144      257.650       56.220        0.048      339.754       13.301      859.815
11/14/2014  11:31:00     -190.435      -29.899       -6.165       62.168       54.201       36.987     3864.877     2937.766     1368.040        2.268        0.409      192.768       35.051        0.033      340.004       13.723      859.803
11/14/2014  11:32:00     -184.513      -71.024       -4.154       82.714       98.808       63.933     6841.634     9763.117     4087.395        2.990        1.035      197.710       57.659        0.085      340.107       13.897      859.789
11/14/2014  11:33:00     -318.153      -64.378      -23.450      116.747       89.060       48.147    13629.755     7931.653     2318.168        6.489        1.194      324.601       53.791        0.027      340.115       13.908      859.783
11/14/2014  11:34:00     -161.616        7.941       15.147      136.497      101.377       63.162    18631.440    10277.224     3989.408        2.965        1.645      161.811       57.165        0.125      340.491       14.546      859.782
11/14/2014  11:35:00     -156.034      -65.784       -6.134      102.177       77.812       48.504    10440.096     6054.640     2352.671        2.378        0.942      169.334       39.015        0.053      339.941       13.617      859.783
11/14/2014  11:36:00     -221.295     -214.597        3.974      127.900      105.385       60.149    16358.404    11106.001     3617.938        6.305        1.554      308.258       57.482        0.035      339.733       13.266      859.760
11/14/2014  11:37:00     -175.959      -67.637       21.700      222.422      184.955       82.776    49471.519    34208.228     6851.835        6.325        4.527      188.511       97.905        0.270      340.226       14.096      859.737
11/14/2014  11:38:00     -440.879      -54.734      -27.310      201.554      166.524       90.004    40623.950    27730.089     8100.677       13.727        3.823      444.264      100.276        0.051      340.115       13.910      859.752
11/14/2014  11:39:00     -509.173     -171.954      -19.022      182.279      152.264       97.323    33225.768    23184.285     9471.718       17.752        3.294      537.425       84.008        0.024      339.978       13.678      859.753
11/14/2014  11:40:00     -497.417     -182.019      -24.832      177.237      171.164       92.279    31412.824    29297.021     8515.502       17.518        3.461      529.674       93.016        0.031      339.893       13.535      859.742
11/14/2014  11:41:00     -467.157     -190.867      -21.337      284.466      244.304      100.654    80921.177    59684.595    10131.276       20.290        7.537      504.644      102.132        0.041      339.938       13.610      859.721
11/14/2014  11:42:00     -399.664     -220.672       12.738      268.597      222.507      111.240    72144.432    49509.301    12374.424       17.128        6.701      456.539      129.409        0.080      340.017       13.743      859.642
11/14/2014  11:43:00     -109.394      -63.018       36.170      207.640      161.016      111.119    43114.303    25926.149    12347.337        4.930        4.069      126.248      102.338        0.657      340.393       14.382      859.667
11/14/2014  11:44:00     -251.530      -57.787       -1.290      191.354      189.641       75.043    36616.485    35963.702     5631.444        7.239        3.911      258.083       96.175        0.139      340.427       14.437      859.754
11/14/2014  11:45:00     -238.169       45.555      -36.695      191.328      161.000       81.079    36606.242    25920.977     6573.853        6.461        3.455      242.487       78.759        0.105      340.530       14.614      859.778
11/14/2014  11:46:00     -275.435       31.578      -24.047      220.540      206.532      101.222    48638.031    42655.618    10245.797        8.947        5.077      277.239       91.919        0.110      340.240       14.122      859.696
11/14/2014  11:47:00     -406.415      -18.967      -29.820      240.716      134.403       93.126    57944.131    18064.228     8672.541       12.553        4.234      406.857      113.129        0.077      340.170       14.001      859.672
11/14/2014  11:48:00     -415.725     -146.057       -0.042      204.443      185.968       79.808    41796.923    34584.054     6369.351       13.844        4.138      440.636       86.985        0.039      340.038       13.780      859.674
11/14/2014  11:49:00     -275.726      -62.850       -7.940      195.735      143.228       76.559    38312.342    20514.128     5861.275        7.235        3.234      282.798       90.482        0.102      340.241       14.122      859.661
11/14/2014  11:50:00     -429.061      -64.326      -35.327      168.953      187.840       88.209    28545.038    35283.848     7780.825       13.053        3.580      433.856       60.874        0.020      340.091       13.870      859.664
11/14/2014  11:51:00     -325.494      -80.548      -61.965      130.445      178.368       76.133    17015.942    31815.025     5796.249        8.544        2.731      335.312       47.888        0.020      340.002       13.719      859.677
11/14/2014  11:52:00     -183.417      -40.016       26.118      215.138      198.384       86.393    46284.238    39356.074     7463.703        6.450        4.655      187.732       94.859        0.255      340.169       14.002      859.649
11/14/2014  11:53:00     -566.429      -55.185      -39.446      209.350      194.579       91.788    43827.345    37860.802     8424.992       20.776        4.506      569.110       98.863        0.030      339.917       13.575      859.624
11/14/2014  11:54:00     -463.751      -72.804      -18.351      168.447      137.340       74.037    28374.270    18862.277     5481.412       13.670        2.636      469.431       69.556        0.022      340.069       13.831      859.644
11/14/2014  11:55:00     -477.696      -91.286      -28.845      161.979      119.759       64.225    26237.042    14342.306     4124.849       14.102        2.235      486.340       66.841        0.019      340.111       13.904      859.671
11/14/2014  11:56:00     -298.949     -218.045      -17.699      155.507      162.799       83.015    24182.482    26503.644     6891.472        9.739        2.879      370.020       79.669        0.046      340.011       13.735      859.646
11/14/2014  11:57:00     -304.504      -25.224      -11.961      154.075      171.632       77.053    23739.120    29457.594     5937.227        7.631        2.957      305.547       63.598        0.043      340.327       14.267      859.662
11/14/2014  11:58:00     -354.053      -78.165      -39.751      159.386      125.032       74.703    25403.855    15632.938     5580.520        8.982        2.331      362.579       84.354        0.054      340.193       14.041      859.647
11/14/2014  11:59:00     -372.117      -73.674      -27.548      100.340       87.296       58.477    10068.036     7620.522     3419.561        8.288        1.055      379.340       51.855        0.019      339.993       13.704      859.607
11/14/2014  12:00:00     -327.568      -89.768      -20.113      163.556       99.711       67.270    26750.706     9942.223     4525.234        7.848        2.061      339.646       78.810        0.054      340.085       13.859      859.579
11/14/2014  12:01:00     -239.410       20.650      -17.260      110.097      102.126       51.608    12121.371    10429.618     2663.388        4.162        1.261      240.298       51.750        0.046      340.429       14.440      859.563
11/14/2014  12:02:00      -78.042       76.063        3.507       84.006      134.531       56.076     7057.071    18098.653     3144.465        2.009        1.415      108.978       46.410        0.181      340.399       14.390      859.515
11/14/2014  12:03:00     -482.127      -64.242      -35.963      172.788      146.453       76.819    29855.865    21448.349     5901.219       14.752        2.860      486.389       74.782        0.024      340.197       14.049      859.483
11/14/2014  12:04:00     -276.057      -87.863       -4.781      167.193      140.860       73.311    27953.440    19841.610     5374.556        6.855        2.658      289.703       75.199        0.067      340.357       14.318      859.447
11/14/2014  12:05:00     -494.628     -129.924      -47.644      171.357       97.937       73.197    29363.126     9591.656     5357.740       15.405        2.216      511.407       83.819        0.027      340.348       14.304      859.449
11/14/2014  12:06:00     -228.720      -34.354       21.956      183.995      171.285       92.168    33854.074    29338.590     8494.866        6.282        3.584      231.286      104.921        0.206      340.516       14.589      859.485
11/14/2014  12:07:00     -309.132      -27.232      -29.907      168.845      117.414       69.334    28508.791    13785.976     4807.258        7.214        2.355      310.329       81.874        0.070      340.403       14.395      859.457
11/14/2014  12:08:00     -218.936     -103.214       -8.718      191.102      108.316       69.749    36519.799    11732.341     4864.977        5.588        2.656      242.045       89.994        0.138      340.346       14.301      859.448
11/14/2014  12:09:00     -214.946      -48.857        1.811      137.611      104.764       57.314    18936.912    10975.599     3284.952        4.089        1.660      220.428       55.410        0.063      340.521       14.596      859.435
11/14/2014  12:10:00     -146.807      -34.149       -2.744      160.246       94.509       56.595    25678.768     8932.045     3203.041        3.026        1.891      150.726       69.119        0.210      340.388       14.373      859.396
11/14/2014  12:11:00     -327.938      -59.839      -18.108      143.229      106.248       63.147    20514.464    11288.680     3987.606        7.361        1.790      333.352       58.289        0.031      340.453       14.480      859.375
11/14/2014  12:12:00     -346.896      -33.019       -5.675      187.319      133.981       83.363    35088.490    17950.977     6949.376        9.071        2.999      348.464       93.953        0.073      340.537       14.623      859.363
11/14/2014  12:13:00     -267.321      -68.611       12.059      186.769      136.032       91.552    34882.541    18504.721     8381.804        6.903        3.088      275.985       98.455        0.127      340.592       14.716      859.352
11/14/2014  12:14:00     -334.822     -137.160        5.036      186.646      164.290       89.897    34836.837    26991.268     8081.454       10.041        3.495      361.827       98.639        0.074      340.440       14.458      859.394
11/14/2014  12:15:00     -267.195     -227.649      -16.939      203.193      171.396      106.021    41287.273    29376.564    11240.364       10.269        4.095      351.023      113.342        0.104      340.291       14.207      859.370
11/14/2014  12:16:00     -500.428     -231.694       -3.382      254.565      199.345       96.903    64803.545    39738.534     9390.150       20.900        5.697      551.462      115.804        0.044      340.146       13.962      859.325
11/14/2014  12:17:00     -447.751     -175.882       -7.151      256.066      185.538      101.558    65569.625    34424.514    10313.972       17.087        5.515      481.057      114.870        0.057      340.182       14.024      859.304
11/14/2014  12:18:00     -444.217       37.845      -33.422      243.595      147.374      100.996    59338.439    21719.140    10200.280       14.555        4.563      445.826      122.352        0.075      340.295       14.214      859.386
11/14/2014  12:19:00     -393.338      -99.494      -25.776      198.219      186.958       87.840    39290.883    34953.227     7715.830       12.360        4.098      405.726       99.020        0.060      340.250       14.137      859.362
11/14/2014  12:20:00     -207.510     -121.433       20.153      211.352      182.360      115.942    44669.731    33255.202    13442.467        7.477        4.568      240.430      128.782        0.287      340.389       14.374      859.385
11/14/2014  12:21:00     -410.722      -46.654      -12.275      217.214      188.882      106.864    47181.744    35676.517    11419.919       13.263        4.714      413.363      119.583        0.084      340.309       14.237      859.372
11/14/2014  12:22:00     -433.178     -219.485      -18.609      236.711      227.250      110.375    56031.923    51642.576    12182.591       17.799        5.993      485.610      102.231        0.044      340.105       13.892      859.351
11/14/2014  12:23:00     -502.206     -155.500      -29.642      261.698      205.486      106.814    68486.009    42224.362    11409.197       19.967        6.106      525.729      127.226        0.059      340.043       13.787      859.381
11/14/2014  12:24:00     -504.082        6.940      -45.952      141.584      187.490       75.844    20045.914    35152.516     5752.324       15.859        3.048      504.130       63.368        0.016      340.044       13.789      859.351
11/14/2014  12:25:00     -197.329        8.759       -3.671      176.261       84.826       77.329    31067.943     7195.481     5979.821        4.163        2.212      197.523       97.393        0.243      340.496       14.552      859.337
11/14/2014  12:26:00     -320.382        9.495      -16.025      177.832      144.057       79.594    31624.227    20752.389     6335.172        8.084        2.936      320.522       86.286        0.072      340.395       14.384      859.341
11/14/2014  12:27:00     -354.363      -74.949        2.318      198.954      161.380       75.209    39582.722    26043.661     5656.394       10.123        3.564      362.202       77.505        0.046      340.313       14.245      859.349
11/14/2014  12:28:00     -498.360      -79.876      -30.889      295.491      205.094       91.473    87315.114    42063.458     8367.239       19.669        6.887      504.721      115.359        0.052      340.205       14.062      859.334
11/14/2014  12:29:00     -280.973     -115.807        0.347      183.987      163.241       87.911    33851.361    26647.732     7728.276        8.028        3.411      303.903       81.462        0.072      340.066       13.828      859.342
11/14/2014  12:30:00     -357.236     -104.239      -45.024      201.655      119.519       75.043    40664.875    14284.706     5631.435       10.053        3.029      372.134       72.169        0.038      340.137       13.949      859.305
11/14/2014  12:31:00     -319.312     -271.232      -10.498      256.413      240.134      110.123    65747.595    57664.372    12127.144       15.556        6.777      418.960      123.271        0.087      340.203       14.059      859.271
11/14/2014  12:32:00     -300.366     -130.368      -12.763      173.538      161.608       99.017    30115.480    26117.246     9804.438        8.669        3.302      327.438       91.888        0.079      340.292       14.210      859.296
11/14/2014  12:33:00     -181.957     -123.916        6.305      185.337      133.134       93.275    34349.650    17724.538     8700.269        5.463        3.039      220.144       95.464        0.188      340.344       14.296      859.301
11/14/2014  12:34:00     -303.083      -70.173      -24.624      145.986      116.608       74.797    21311.947    13597.396     5594.560        6.894        2.025      311.101       76.885        0.061      340.318       14.252      859.339
11/14/2014  12:35:00     -461.997     -143.523      -13.572      218.065      176.917       98.935    47552.419    31299.657     9788.128       16.141        4.432      483.777      105.281        0.047      340.197       14.047      859.364
11/14/2014  12:36:00     -579.085     -126.007      -43.111      241.169      188.511      103.335    58162.436    35536.221    10678.157       22.871        5.219      592.635      108.648        0.034      339.948       13.629      859.369
11/14/2014  12:37:00     -636.258     -155.804      -42.450      219.092      201.429       98.601    48001.150    40573.624     9722.247       26.458        4.915      655.056      104.819        0.026      339.914       13.571      859.363
11/14/2014  12:38:00     -357.069      -85.995      -24.784      175.298      124.163       73.511    30729.232    15416.480     5403.810        9.352        2.577      367.279       91.302        0.062      339.988       13.695      859.353
11/14/2014  12:39:00     -322.544      -36.070      -19.731      168.883      121.625       66.154    28521.430    14792.717     4376.355        7.670        2.385      324.555       71.003        0.048      340.328       14.270      859.361
11/14/2014  12:40:00     -389.587     -101.068      -13.743      190.631      157.345       85.737    36340.174    24757.315     7350.787       11.530        3.422      402.483       78.072        0.038      340.171       14.003      859.317
11/14/2014  12:41:00     -189.587      -84.839       12.609      198.648      172.084       74.588    39460.871    29612.997     5563.423        5.895        3.732      207.704       87.103        0.176      340.307       14.235      859.258
11/14/2014  12:42:00     -271.998     -123.629        0.467      226.895      197.634      101.550    51481.210    39059.256    10312.483        9.504        5.043      298.776      128.204        0.184      340.226       14.097      859.280
11/14/2014  12:43:00     -228.864     -155.455       11.225      232.622      189.258       99.969    54112.867    35818.767     9993.709        8.828        4.996      276.668      114.808        0.172      340.199       14.051      859.226
11/14/2014  12:44:00     -376.721       60.079      -21.705      226.416      126.690       75.690    51263.991    16050.455     5728.955       10.951        3.652      381.482       80.508        0.045      340.350       14.308      859.241
11/14/2014  12:45:00     -395.076       -4.051      -40.796      185.140      112.059       80.473    34276.800    12557.190     6475.916       10.553        2.665      395.097       88.373        0.050      340.324       14.263      859.238
11/14/2014  12:46:00     -368.568      -68.686      -44.324      180.842      150.178       71.663    32703.858    22553.394     5135.581       10.145        3.020      374.913       82.027        0.048      340.249       14.137      859.244
11/14/2014  12:47:00     -394.624     -104.399      -44.251      301.680      132.396       87.068    91011.033    17528.800     7580.764       14.233        5.806      408.200      108.036        0.070      340.110       13.902      859.199
11/14/2014  12:48:00     -362.446      -60.033      -27.985      237.568      174.795       86.607    56438.591    30553.345     7500.720       11.510        4.725      367.384      100.481        0.075      340.263       14.160      859.177
11/14/2014  12:49:00     -449.601     -157.639      -45.243      209.459      165.359       91.937    43872.968    27343.536     8452.493       15.434        3.983      476.436      105.067        0.049      340.252       14.141      859.155
11/14/2014  12:50:00     -358.962     -165.285      -12.103      183.762      144.096       77.034    33768.487    20763.605     5934.165       10.838        3.023      395.187       76.072        0.037      340.252       14.140      859.147
11/14/2014  12:51:00     -313.302      -92.601      -40.219      176.037      122.888       87.561    30988.957    15101.481     7666.998        8.104        2.688      326.700       77.751        0.057      340.405       14.400      859.163
11/14/2014  12:52:00     -648.746     -137.133      -60.295      206.902      163.718       93.128    42808.248    26803.445     8672.865       26.078        3.914      663.082      106.469        0.026      340.195       14.045      859.112
11/14/2014  12:53:00     -379.797     -168.306        1.901      205.613      172.139      102.290    42276.596    29631.916    10463.289       12.746        4.119      415.419      100.179        0.058      340.264       14.162      859.113
11/14/2014  12:54:00     -281.789     -148.459        4.639      169.653      188.688       84.666    28782.093    35603.326     7168.271        8.650        3.578      318.504       90.968        0.082      340.332       14.278      859.053
11/14/2014  12:55:00     -295.263      -80.590       21.072      196.472      156.573       91.191    38601.240    24515.097     8315.737        8.276        3.572      306.063      102.472        0.112      340.468       14.506      859.038
11/14/2014  12:56:00     -485.912     -167.166      -21.349      233.404      290.132      121.728    54477.194    84176.477    14817.722       20.896        7.674      513.862      134.461        0.068      340.199       14.053      859.013
11/14/2014  12:57:00     -496.716      -58.643      -21.637      249.642      159.379       94.013    62321.266    25401.556     8838.403       17.358        4.828      500.166      118.542        0.056      340.293       14.211      858.978
11/14/2014  12:58:00     -801.332     -193.567      -34.902      268.299      172.966      118.572    71984.212    29917.163    14059.353       39.837        5.798      824.380      137.202        0.028      340.035       13.774      858.956
11/14/2014  12:59:00     -398.101     -117.057      -10.711      232.763      227.364       92.442    54178.432    51694.480     8545.432       14.334        5.721      414.954      103.140        0.062      340.261       14.155      858.937
11/14/2014  13:00:00     -404.241     -212.150      -30.128      261.366      163.952      110.181    68312.176    26880.348    12139.943       15.831        5.367      456.529      125.304        0.075      340.163       13.991      858.895
11/14/2014  13:01:00     -484.910      -60.756      -30.662      214.464      154.040       97.847    45994.882    23728.208     9574.114       15.952        3.965      488.702      102.843        0.044      340.346       14.300      858.887
11/14/2014  13:02:00     -425.524     -166.530       -8.987      234.308      172.949       88.058    54900.076    29911.188     7754.258       15.071        4.628      456.950      115.437        0.064      340.302       14.225      858.850
11/14/2014  13:03:00     -339.569      -45.466      -16.605      200.830      164.829       78.497    40332.880    27168.725     6161.758        9.564        3.683      342.599       83.568        0.059      340.438       14.455      858.827
11/14/2014  13:04:00     -372.890      -79.431        3.452      256.880      179.621      113.156    65987.467    32263.610    12804.273       12.819        5.553      381.256      127.042        0.111      340.317       14.251      858.822
11/14/2014  13:05:00     -451.892       59.106      -29.091      231.747      154.373       95.931    53706.464    23831.005     9202.814       14.763        4.337      455.741       90.794        0.040      340.355       14.315      858.837
11/14/2014  13:06:00     -175.270      -75.296       32.628      207.196      186.981       99.531    42930.244    34961.899     9906.394        6.261        4.390      190.759      120.277        0.398      340.444       14.467      858.826
11/14/2014  13:07:00     -484.537      -57.104      -22.989      221.052      215.346       91.803    48864.026    46374.004     8427.763       17.109        5.183      487.890      111.052        0.052      340.232       14.107      858.833
11/14/2014  13:08:00     -233.761     -115.046      -14.195      179.790      135.753       72.843    32324.579    18428.818     5306.166        6.206        2.803      260.538       97.036        0.139      340.458       14.490      858.878
11/14/2014  13:09:00     -189.527      -67.137       26.348      181.894      130.582       84.199    33085.443    17051.629     7089.407        4.916        2.861      201.067       96.854        0.232      340.524       14.602      858.908
11/14/2014  13:10:00     -221.870     -123.344        9.037      238.145      196.417      101.415    56713.035    38579.796    10285.031        8.503        5.279      253.850      126.151        0.247      340.412       14.412      858.879
11/14/2014  13:11:00     -262.781     -175.328       12.828      250.934      184.385       96.724    62967.917    33997.723     9355.478       10.312        5.316      315.901      120.255        0.145      340.188       14.033      858.888
11/14/2014  13:12:00     -295.613     -290.024      -11.314      162.524      195.892       92.147    26414.159    38373.718     8491.081       12.244        3.664      414.127       89.656        0.047      340.163       13.991      858.871
11/14/2014  13:13:00     -205.124     -165.599       -2.730      178.109      158.478       72.414    31722.775    25115.423     5243.755        6.578        3.104      263.626       73.897        0.079      340.444       14.467      858.915
11/14/2014  13:14:00     -266.183      -65.299       10.285      221.215      169.761       95.430    48936.296    28818.635     9106.847        8.102        4.343      274.076      115.718        0.178      340.452       14.479      858.899
11/14/2014  13:15:00     -478.023     -172.607      -13.170      256.323      187.183       97.331    65701.619    35037.548     9473.251       18.432        5.511      508.231      116.592        0.053      340.405       14.400      858.901
11/14/2014  13:16:00     -563.368      -85.569      -33.206      244.345      166.116       94.021    59704.244    27594.632     8839.883       21.095        4.807      569.830      115.145        0.041      340.280       14.186      858.922
11/14/2014  13:17:00     -392.686      -94.833      -26.545      264.223      209.703       88.361    69813.573    43975.173     7807.709       14.272        6.080      403.974      107.993        0.071      340.384       14.365      858.908
11/14/2014  13:18:00     -526.331     -180.117      -21.867      228.947      176.620       96.266    52416.693    31194.506     9267.118       20.139        4.644      556.297      100.574        0.033      340.267       14.166      858.887
11/14/2014  13:19:00     -238.209     -120.224       19.570      216.289      186.928       88.502    46780.883    34942.019     7832.690        8.055        4.478      266.828       94.068        0.124      340.305       14.231      858.909
11/14/2014  13:20:00      -52.706       -4.039       14.458      134.585       74.880       69.006    18113.058     5607.033     4761.800        1.574        1.424       52.860       59.112        1.251      340.521       14.599      858.897
11/14/2014  13:21:00     -367.095      -38.840      -25.250      146.745      135.711       70.633    21533.954    18417.351     4988.991        9.091        2.247      369.144       67.285        0.033      340.524       14.601      858.929
11/14/2014  13:22:00     -357.825     -112.857       15.293      349.247      200.503      112.505   121973.539    40201.466    12657.452       15.789        8.742      375.200      147.172        0.154      340.337       14.285      858.852
11/14/2014  13:23:00     -413.739     -102.856      -11.987      199.519      200.929       87.946    39807.965    40372.395     7734.432       13.489        4.396      426.332       89.800        0.044      340.313       14.244      858.878
11/14/2014  13:24:00     -515.397      -50.091      -31.097      201.959      203.285       86.448    40787.501    41324.717     7473.265       17.933        4.479      517.825       84.222        0.026      340.421       14.426      858.878
11/14/2014  13:25:00     -415.112     -213.182      -20.789      197.571      163.490       94.333    39034.433    26728.880     8898.776       14.641        3.733      466.653       94.684        0.041      340.362       14.327      858.843
11/14/2014  13:26:00     -256.637     -119.478        1.503      198.644      127.402       73.992    39459.343    16231.370     5474.871        7.064        3.058      283.086       90.342        0.102      340.519       14.593      858.856
11/14/2014  13:27:00     -454.236     -160.205      -24.728      193.106      175.044       81.612    37289.858    30640.292     6660.513       15.358        3.730      481.660       86.789        0.032      340.341       14.293      858.861
11/14/2014  13:28:00     -264.203      -69.971      -12.871      160.265       94.166       62.415    25685.000     8867.267     3895.592        5.665        1.922      273.311       55.453        0.041      340.696       14.893      858.887
11/14/2014  13:29:00     -138.238      -77.820       -6.790       86.941       48.242       48.625     7558.694     2327.328     2364.343        1.873        0.613      158.637       45.205        0.081      340.550       14.645      858.876
11/14/2014  13:30:00     -287.361      -83.805        1.411      129.642      124.578       63.171    16807.124    15519.618     3990.615        6.295        1.816      299.332       70.190        0.055      340.632       14.784      858.876
11/14/2014  13:31:00     -201.839       -6.865        0.911      124.152      106.054       46.461    15413.716    11247.543     2158.611        3.480        1.441      201.956       30.956        0.023      340.776       15.026      858.838
11/14/2014  13:32:00     -199.448      -49.336        5.471      128.832       94.944       53.076    16597.702     9014.290     2817.056        3.533        1.421      205.459       52.640        0.066      340.734       14.957      858.821
11/14/2014  13:33:00     -440.045      -58.150      -43.605      234.679      139.870       74.680    55074.221    19563.702     5577.029       13.955        4.011      443.870      102.294        0.053      340.497       14.555      858.862
11/14/2014  13:34:00     -514.343      -61.724      -28.507      210.906      165.759       83.229    44481.435    27476.065     6927.081       17.401        3.944      518.033       81.669        0.025      340.364       14.329      858.877
11/14/2014  13:35:00     -575.845     -152.580      -23.506      266.006      203.661      113.635    70759.430    41477.787    12912.822       24.027        6.258      595.717      128.269        0.046      340.180       14.019      858.848
11/14/2014  13:36:00     -512.335     -109.016      -26.223      232.021      181.229       99.050    53833.789    32844.103     9810.882       18.575        4.824      523.805      108.113        0.043      340.125       13.926      858.841
11/14/2014  13:37:00     -458.440     -117.710      -20.159      257.230      177.094      109.011    66167.376    31362.227    11883.480       16.690        5.471      473.310      119.362        0.064      340.252       14.143      858.868
11/14/2014  13:38:00     -345.565     -171.229        3.944      285.377      216.363      108.326    81440.031    46812.849    11734.469       14.434        6.999      385.661      122.647        0.101      340.121       13.921      858.847
11/14/2014  13:39:00     -164.772      -60.969       23.855      248.670      193.230      112.692    61836.745    37337.865    12699.565        7.163        5.594      175.690      131.335        0.559      340.362       14.328      858.852
11/14/2014  13:40:00     -344.341     -107.864       19.564      344.151      184.968       91.008   118439.819    34213.003     8282.436       14.573        8.047      360.840      128.838        0.127      340.267       14.168      858.873
11/14/2014  13:41:00     -417.138     -227.834        1.201      269.541      193.869      115.591    72652.364    37585.303    13361.285       17.473        6.180      475.302      136.274        0.082      340.130       13.934      858.874
11/14/2014  13:42:00     -418.860     -172.623       -4.112      201.827      201.494       89.455    40733.961    40599.761     8002.273       14.728        4.467      453.037       89.287        0.039      340.164       13.991      858.872
11/14/2014  13:43:00     -524.307      -53.240      -26.418      201.449      152.667       80.356    40581.737    23307.230     6457.134       17.437        3.517      527.003       82.232        0.024      340.295       14.213      858.852
11/14/2014  13:44:00     -513.504     -159.222       -8.442      339.758      169.559      109.645   115435.299    28750.401    12022.028       22.263        7.810      537.623      163.856        0.093      340.234       14.112      858.821
11/14/2014  13:45:00     -327.200       74.249      -20.506      192.065      112.870       64.555    36889.141    12739.679     4167.352        8.338        2.690      335.518       65.697        0.038      340.425       14.433      858.849
11/14/2014  13:46:00     -336.378     -114.104       10.984      315.812      186.587      113.514    99736.987    34814.613    12885.500       13.683        7.372      355.204      143.470        0.163      340.391       14.375      858.816
11/14/2014  13:47:00     -482.871     -147.842      -18.661      238.183      195.708       97.136    56731.014    38301.538     9435.333       17.990        5.223      504.997      106.470        0.044      340.116       13.912      858.858
11/14/2014  13:48:00     -456.806      -69.712      -24.421      211.926      141.871       88.280    44912.689    20127.442     7793.286       14.347        3.642      462.095       91.954        0.040      340.152       13.971      858.844
11/14/2014  13:49:00     -452.556      -99.513      -38.631      254.192      157.096       90.739    64613.336    24679.160     8233.562       15.684        4.876      463.368       88.008        0.036      340.189       14.035      858.831
11/14/2014  13:50:00     -513.238     -133.695      -28.995      244.587      196.389      100.494    59823.019    38568.616    10098.964       19.529        5.425      530.366      112.840        0.045      340.267       14.166      858.832
11/14/2014  13:51:00     -540.131      -70.983      -18.974      239.651      225.519      108.240    57432.486    50858.674    11715.950       20.855        6.000      544.775      108.939        0.040      340.201       14.055      858.832
11/14/2014  13:52:00     -505.756     -128.636      -29.927      244.993      184.835       95.926    60021.350    34164.027     9201.846       18.829        5.169      521.858       95.354        0.033      340.088       13.864      858.853
11/14/2014  13:53:00     -343.344     -115.711      -21.255      222.800      123.916       75.972    49639.988    15355.262     5771.807       10.123        3.538      362.318       86.547        0.057      340.085       13.861      858.834
11/14/2014  13:54:00     -367.798     -108.239      -31.666      126.732      140.067       78.050    16061.085    19618.702     6091.772        9.487        2.089      383.394       53.498        0.019      340.224       14.093      858.842
11/14/2014  13:55:00     -411.053     -109.523      -21.453      111.094      138.403       68.105    12341.965    19155.496     4638.304       10.877        1.807      425.393       58.972        0.019      340.239       14.119      858.811
11/14/2014  13:56:00     -381.477      -63.395      -11.213      133.758      112.295       70.631    17891.273    12610.141     4988.752        9.257        1.775      386.709       66.819        0.030      340.396       14.384      858.816
11/14/2014  13:57:00     -308.363       -0.468      -20.743      252.644      224.417      101.411    63828.750    50362.903    10284.216       10.997        6.224      308.363      110.001        0.127      340.412       14.410      858.812
11/14/2014  13:58:00     -283.547     -118.620       -8.927      205.614      136.411       82.782    42277.149    18608.091     6852.804        8.113        3.387      307.359      101.833        0.110      340.458       14.491      858.808
11/14/2014  13:59:00     -447.493     -138.851      -53.125      184.436      147.360       90.777    34016.773    21714.898     8240.536       14.315        3.199      468.540       90.748        0.038      340.234       14.110      858.824
11/14/2014  14:00:00     -311.127     -113.790      -11.052      149.411      154.475       73.266    22323.522    23862.633     5367.899        8.070        2.578      331.282       75.133        0.051      340.352       14.310      858.818
11/14/2014  14:01:00     -282.622      -55.901      -10.578      139.865      139.602       64.631    19562.314    19488.841     4177.125        6.316        2.161      288.097       54.481        0.036      340.440       14.458      858.834
11/14/2014  14:02:00     -210.673      -75.906        4.204      132.506      131.778       57.488    17557.830    17365.392     3304.815        4.419        1.911      223.931       47.979        0.046      340.628       14.777      858.824
11/14/2014  14:03:00     -471.475     -140.584      -23.417      213.362      148.426       68.427    45523.269    22030.376     4682.202       15.740        3.612      491.988       79.936        0.026      340.378       14.354      858.832
11/14/2014  14:04:00     -630.268     -182.086      -28.017      291.055      147.675      104.863    84713.280    21807.856    10996.211       27.432        5.876      656.043      136.496        0.043      340.244       14.127      858.797
11/14/2014  14:05:00     -520.549      -14.950      -36.878      179.366      146.326       85.943    32171.994    21411.206     7386.275       16.675        3.048      520.764       87.086        0.028      340.355       14.313      858.807
11/14/2014  14:06:00     -440.090      -95.686      -44.042      152.729      124.396       72.646    23326.123    15474.340     5277.389       12.442        2.204      450.372       71.438        0.025      340.341       14.291      858.784
11/14/2014  14:07:00     -355.201     -154.295      -15.500      188.197      139.869       72.832    35418.276    19563.370     5304.492       10.524        3.014      387.266       65.820        0.029      340.511       14.578      858.777
11/14/2014  14:08:00     -426.574       30.195      -34.470      185.288      173.420       78.383    34331.631    30074.668     6143.864       12.729        3.528      427.641       75.002        0.031      340.515       14.584      858.725
11/14/2014  14:09:00     -312.899     -220.797       -5.671      195.613      133.677       78.097    38264.356    17869.540     6099.102       10.445        3.112      382.958       80.244        0.044      340.407       14.403      858.760
11/14/2014  14:10:00     -222.680     -115.874       11.419      158.600      135.039       81.517    25154.050    18235.481     6645.072        5.658        2.502      251.024       98.908        0.155      340.395       14.383      858.749
11/14/2014  14:11:00     -297.527      -37.187      -17.252      130.910      102.875       66.769    17137.433    10583.312     4458.158        6.118        1.609      299.842       63.889        0.045      340.431       14.443      858.738
11/14/2014  14:12:00     -331.743      -10.439      -24.201      197.677      150.806       72.813    39076.252    22742.403     5301.745        8.892        3.356      331.907       55.875        0.028      340.545       14.635      858.754
11/14/2014  14:13:00     -286.568     -123.550        7.865      193.144      140.866       78.108    37304.424    19843.361     6100.903        8.034        3.162      312.067       93.360        0.090      340.480       14.527      858.782
11/14/2014  14:14:00     -337.328        1.422      -11.563      260.333      125.924       89.806    67773.388    15856.817     8065.167       10.279        4.585      337.331      118.016        0.122      340.589       14.712      858.783
11/14/2014  14:15:00     -506.090     -223.495      -34.499      280.145      209.038      103.644    78481.390    43696.688    10742.080       22.007        6.646      553.243      123.566        0.050      340.387       14.369      858.773
11/14/2014  14:16:00     -395.890     -258.151       -6.642      309.078      168.804      135.721    95529.177    28494.908    18420.308       18.290        7.122      472.621      140.340        0.088      340.201       14.054      858.796
11/14/2014  14:17:00     -455.486     -190.374      -40.568      209.115      166.489       86.420    43729.091    27718.660     7468.401       16.212        3.946      493.670       88.963        0.032      340.113       13.908      858.772
11/14/2014  14:18:00     -392.945        6.456      -20.302      228.657      165.806      107.246    52283.945    27491.623    11501.700       12.305        4.564      392.998      112.137        0.081      340.368       14.338      858.768
11/14/2014  14:19:00     -318.582      -83.854       -0.162      167.916      139.093       76.810    28195.853    19346.994     5899.763        8.097        2.672      329.433       82.523        0.063      340.374       14.347      858.780
11/14/2014  14:20:00     -266.325      -28.658       -9.612      154.198      131.229       70.586    23777.126    17220.949     4982.400        5.890        2.299      267.862       75.731        0.080      340.563       14.666      858.795
11/14/2014  14:21:00     -464.278     -247.166      -26.202      176.445      180.052       74.746    31132.935    32418.902     5587.031       17.322        3.457      525.970       82.515        0.025      340.376       14.350      858.770
11/14/2014  14:22:00     -453.627     -347.805        6.455      321.094      261.852      135.926   103101.636    68566.690    18475.786       25.843        9.507      571.617      169.422        0.088      340.172       14.006      858.758
11/14/2014  14:23:00     -459.507     -306.163      -10.362      261.732      194.064      117.513    68503.414    37661.009    13809.311       21.246        5.999      552.161      119.895        0.047      340.115       13.908      858.755
11/14/2014  14:24:00     -237.294     -182.959       18.322      185.173      202.923       97.507    34289.112    41177.859     9507.565        8.753        4.249      299.637      109.685        0.134      340.290       14.205      858.798
11/14/2014  14:25:00     -535.022     -129.248      -14.532      286.623      192.944      116.344    82152.588    37227.524    13535.952       21.801        6.646      550.412      147.471        0.072      340.172       14.006      858.800
11/14/2014  14:26:00     -233.095     -101.066       -4.485      160.714      133.186       74.994    25829.057    17738.399     5624.167        5.687        2.460      254.063       82.706        0.106      340.330       14.273      858.810
11/14/2014  14:27:00     -273.501      -60.179      -13.686      149.978      133.408       77.169    22493.494    17797.653     5955.081        6.242        2.312      280.043       64.915        0.054      340.333       14.278      858.853
11/14/2014  14:28:00     -249.714      -29.607        8.160      234.868      138.478       87.850    55162.970    19176.083     7717.657        7.266        4.103      251.463      108.195        0.185      340.509       14.576      858.841
11/14/2014  14:29:00     -503.311     -186.360      -19.516      339.264      171.932      110.419   115100.289    29560.645    12192.410       22.261        7.843      536.705      131.818        0.060      340.263       14.160      858.821
11/14/2014  14:30:00     -465.168     -251.891       -1.312      224.498      185.018      107.469    50399.176    34231.813    11549.645       18.799        4.809      528.990      118.255        0.050      340.145       13.960      858.841
11/14/2014  14:31:00     -370.683     -177.880      -17.579      233.588      178.855      108.995    54563.534    31989.094    11879.947       13.387        4.922      411.153      125.079        0.093      340.238       14.116      858.852
11/14/2014  14:32:00     -356.749     -270.393       -1.547      251.474      177.290      110.941    63239.396    31431.767    12307.902       15.366        5.349      447.641      133.982        0.090      340.260       14.153      858.848
11/14/2014  14:33:00     -422.039      -87.924       -3.306      158.858      133.812       76.973    25235.849    17905.518     5924.845       11.745        2.453      431.100       81.993        0.036      340.362       14.327      858.873
11/14/2014  14:34:00     -401.578     -288.865      -17.334      209.203      203.614       89.313    43765.884    41458.671     7976.864       16.909        4.660      494.680      104.909        0.045      340.198       14.048      858.835
11/14/2014  14:35:00     -363.215     -196.727        4.027      252.949      200.493      120.258    63982.945    40197.440    14461.942       14.462        5.932      413.070      137.580        0.111      340.302       14.225      858.851
11/14/2014  14:36:00     -567.085      -62.397      -23.549      253.013      187.581      103.046    64015.494    35186.613    10618.446       21.790        5.491      570.507      122.075        0.046      340.200       14.054      858.889
11/14/2014  14:37:00     -466.926      -51.290      -35.014      203.301      163.485       91.404    41331.337    26727.442     8354.672       14.913        3.821      469.735      103.446        0.048      340.254       14.145      858.921
11/14/2014  14:38:00     -562.568      -83.372      -52.026      266.994      194.170      106.733    71286.016    37702.159    11391.851       22.324        6.019      568.712      106.490        0.035      340.190       14.037      858.920
11/14/2014  14:39:00     -665.392     -154.357      -49.065      232.824      186.876      109.398    54206.785    34922.776    11967.875       28.502        5.055      683.061      105.139        0.024      340.020       13.748      858.906
11/14/2014  14:40:00     -487.158     -143.412      -31.551      123.956      116.991       73.082    15365.130    13686.855     5341.032       14.663        1.720      507.828       54.052        0.011      340.144       13.958      858.928
11/14/2014  14:41:00     -310.227      -99.085       -9.407      146.758      148.175       71.423    21537.889    21955.959     5101.211        7.736        2.430      325.667       81.824        0.063      340.334       14.279      858.937
11/14/2014  14:42:00     -317.206      -76.943      -24.837      206.019      125.908       65.950    42443.707    15852.853     4349.340        8.489        3.132      326.405       68.455        0.044      340.442       14.462      858.958
11/14/2014  14:43:00     -456.386     -238.336      -27.489      249.293      240.438      114.816    62146.781    57810.295    13182.783       19.947        6.657      514.871      115.363        0.050      340.223       14.091      858.940
11/14/2014  14:44:00     -412.183     -226.911       -3.520      308.203      200.149      123.269    94988.936    40059.818    15195.306       18.579        7.512      470.514      156.256        0.110      340.186       14.028      858.970
11/14/2014  14:45:00     -530.359     -277.450      -17.498      316.087      266.790      137.605    99911.109    71176.755    18935.180       27.426        9.501      598.547      156.926        0.069      340.032       13.769      858.938
11/14/2014  14:46:00     -406.856     -284.508      -13.203      303.832      218.146      137.859    92313.728    47587.702    19005.098       20.275        7.945      496.464      167.784        0.114      340.090       13.867      858.921
11/14/2014  14:47:00     -456.496     -131.689      -29.099      182.682      175.258       92.627    33372.554    30715.215     8579.826       14.961        3.633      475.111       75.979        0.026      340.099       13.882      859.012
11/14/2014  14:48:00     -418.112      -46.532      -14.204      236.626      133.973       81.576    55991.747    17948.897     6654.570       12.887        4.030      420.693      102.236        0.059      340.244       14.129      859.016
11/14/2014  14:49:00     -401.978       42.731      -33.151      164.710      139.241       87.675    27129.462    19388.080     7686.841       10.935        2.710      404.243       90.001        0.050      340.307       14.234      859.023
11/14/2014  14:50:00     -351.792     -161.812        5.108      265.575      176.879       99.315    70529.829    31286.185     9863.446       13.080        5.584      387.222      136.228        0.124      340.280       14.188      859.041
11/14/2014  14:51:00     -497.745      -96.032      -12.813      206.916      166.688       96.012    42814.203    27784.971     9218.302       16.846        3.991      506.924       89.653        0.031      340.248       14.134      859.081
11/14/2014  14:52:00     -420.649     -173.471      -13.111      198.898      128.114       75.898    39560.284    16413.119     5760.579       13.446        3.087      455.013       85.332        0.035      340.157       13.981      859.068
11/14/2014  14:53:00     -467.231     -107.451      -14.164      178.451      153.026       73.743    31844.891    23416.902     5438.003       14.536        3.035      479.428       79.604        0.028      340.288       14.202      859.094
11/14/2014  14:54:00     -296.858        2.414       -5.902      178.321      154.598       85.457    31798.266    23900.532     7302.916        7.557        3.150      296.868       79.933        0.072      340.475       14.518      859.117
11/14/2014  14:55:00     -371.285      -44.252      -13.384      268.458      118.166       82.452    72069.557    13963.260     6798.351       11.639        4.642      373.913      112.625        0.091      340.451       14.480      859.169
11/14/2014  14:56:00     -528.144     -136.379      -43.853      280.838      195.364      106.184    78869.951    38167.088    11274.963       21.386        6.416      545.468      121.384        0.050      340.107       13.895      859.121
11/14/2014  14:57:00     -417.724      -34.000      -29.770      202.243      185.541       76.267    40902.071    34425.550     5816.630       12.882        4.057      419.105       82.823        0.039      340.348       14.303      859.117
11/14/2014  14:58:00     -402.887      -30.652      -18.859      207.476      157.534       75.629    43046.269    24816.913     5719.754       11.858        3.679      404.051       85.237        0.045      340.332       14.276      859.133
11/14/2014  14:59:00     -400.656      -84.546      -28.602      154.209      165.824       65.034    23780.309    27497.731     4229.480       11.199        2.775      409.479       61.671        0.023      340.236       14.115      859.150
11/14/2014  15:00:00     -444.820     -219.190      -17.923      262.625      134.305       82.666    68972.092    18037.873     6833.676       17.002        4.692      495.893       94.011        0.036      340.113       13.907      859.141
11/14/2014  15:01:00     -227.949      -36.807       -2.352      257.519      133.050       73.627    66316.138    17702.192     5420.884        7.136        4.472      230.901      102.568        0.197      340.340       14.290      859.145
11/14/2014  15:02:00     -415.450      -81.492       -9.479      242.923      185.271       98.425    59011.407    34325.465     9687.438       14.116        5.151      423.367      109.859        0.067      340.185       14.027      859.137
11/14/2014  15:03:00     -327.425      -91.885       -4.023      289.194      165.290      107.642    83633.344    27320.847    11586.883       11.908        6.127      340.074      125.738        0.137      340.058       13.815      859.127
11/14/2014  15:04:00     -349.006      -81.412      -18.715      300.316      165.336       94.493    90189.415    27335.877     8928.852       12.759        6.323      358.376      123.539        0.119      340.075       13.842      859.137
11/14/2014  15:05:00     -427.627     -115.087      -28.913      272.609      144.931       90.859    74315.794    21005.139     8255.373       15.024        5.179      442.843      122.873        0.077      340.127       13.931      859.154
11/14/2014  15:06:00     -387.025     -215.752       -7.411      282.163      190.358      100.769    79615.992    36236.317    10154.462       16.117        6.300      443.100      129.449        0.085      340.003       13.720      859.147
11/14/2014  15:07:00     -308.918      -58.128      -13.678      175.705      122.207       78.073    30872.367    14934.523     6095.331        7.544        2.595      314.339       77.281        0.060      340.227       14.099      859.185
11/14/2014  15:08:00     -182.440      -74.380        4.416      178.431      142.689       90.597    31837.570    20360.222     8207.744        4.961        3.020      197.020       95.938        0.237      340.086       13.862      859.172
11/14/2014  15:09:00     -222.522     -134.121       -2.978      170.120      168.727       90.408    28940.801    28468.754     8173.562        6.653        3.279      259.816       92.052        0.126      340.065       13.826      859.197
11/14/2014  15:10:00     -566.398       89.217      -43.395      217.705      174.347      104.776    47395.269    30397.002    10978.082       20.969        4.439      573.381      107.319        0.035      339.962       13.651      859.197
11/14/2014  15:11:00     -342.436      -37.399        1.795      232.698      177.821       95.043    54148.346    31620.323     9033.232       10.671        4.740      344.473      122.160        0.126      340.022       13.752      859.188
11/14/2014  15:12:00     -454.336      -81.669      -23.810      304.327      225.257       96.672    92614.981    50740.752     9345.551       18.315        7.635      461.618      110.374        0.057      340.052       13.802      859.208
11/14/2014  15:13:00     -493.105     -233.624      -36.683      194.733      155.061       96.925    37920.873    24044.036     9394.519       18.520        3.568      545.649       84.263        0.024      339.805       13.388      859.174
11/14/2014  15:14:00     -406.466     -157.015      -21.588      182.805      156.411       79.564    33417.763    24464.495     6330.401       12.726        3.211      435.739       82.419        0.036      339.910       13.564      859.194
11/14/2014  15:15:00     -265.636      -56.488       -3.191      170.422      147.455       72.734    29043.685    21742.847     5290.262        6.491        2.804      271.576       79.521        0.086      340.123       13.923      859.202
11/14/2014  15:16:00     -254.286      -61.343       11.030      242.107      158.251      101.027    58615.640    25043.402    10206.451        8.119        4.693      261.581      133.441        0.260      340.061       13.819      859.217
11/14/2014  15:17:00     -351.905     -134.397      -13.193      217.717      145.647       90.663    47400.663    21213.100     8219.717       10.944        3.842      376.696      108.901        0.084      339.884       13.519      859.242
11/14/2014  15:18:00     -309.708      -58.121        2.225      174.825      165.663       81.332    30563.943    27444.373     6614.860        8.195        3.231      315.114       76.143        0.058      340.142       13.954      859.272
11/14/2014  15:19:00     -355.770     -171.589      -15.847      297.999      143.071       92.583    88803.519    20469.415     8571.585       13.703        5.892      394.987      120.924        0.094      339.783       13.350      859.237
11/14/2014  15:20:00     -156.060     -126.236        4.082      161.217      150.427       76.348    25990.779    22628.412     5829.091        4.737        2.722      200.724       88.478        0.194      339.932       13.603      859.256
11/14/2014  15:21:00     -238.565      -19.883        2.669      185.929      147.239       85.025    34569.735    21679.440     7229.166        6.038        3.174      239.392       97.033        0.164      340.156       13.979      859.280
11/14/2014  15:22:00     -267.394      -83.773       -7.720      240.396      187.789      104.738    57790.295    35264.595    10970.120        9.128        5.201      280.209      115.698        0.170      340.002       13.719      859.279
11/14/2014  15:23:00     -505.519     -175.448      -17.550      349.660      226.694      117.861   122262.249    51390.188    13891.194       23.705        9.377      535.099      148.268        0.077      339.814       13.402      859.253
11/14/2014  15:24:00     -373.543      -64.380      -10.508      212.954      148.589       97.609    45349.347    22078.787     9527.599       11.036        3.848      379.051      110.027        0.084      339.940       13.613      859.294
11/14/2014  15:25:00     -561.744     -177.402      -34.299      280.826      184.369      102.203    78863.401    33991.868    10445.384       23.573        6.165      589.090      121.176        0.042      339.839       13.445      859.327
11/14/2014  15:26:00     -516.339     -114.247      -14.318      308.267      226.170      115.096    95028.779    51152.974    13247.061       21.961        7.971      528.827      145.640        0.076      339.800       13.379      859.305
11/14/2014  15:27:00     -450.647      -44.701      -36.150      240.471      199.157      100.646    57826.150    39663.686    10129.519       15.698        5.381      452.858      110.216        0.059      339.854       13.470      859.327
11/14/2014  15:28:00     -399.679       -9.291      -13.063      223.186      170.646       98.044    49812.148    29120.135     9612.555       12.426        4.427      399.787       99.921        0.062      339.889       13.528      859.322
11/14/2014  15:29:00     -363.004     -123.155      -28.948      180.930      156.144       81.374    32735.829    24380.818     6621.680       10.575        3.187      383.327       83.336        0.047      339.810       13.396      859.306
11/14/2014  15:30:00     -193.742      -61.807        2.442      177.889      125.846       66.164    31644.489    15837.267     4377.705        4.660        2.593      203.362       86.587        0.181      339.972       13.669      859.330
11/14/2014  15:31:00     -552.374     -158.479       -9.230      270.384      207.939      100.989    73107.259    43238.492    10198.750       22.841        6.327      574.658      114.675        0.040      339.650       13.126      859.305
11/14/2014  15:32:00     -347.250      -88.814       -2.649      290.726      199.188       95.387    84521.346    39676.036     9098.740       13.086        6.665      358.427      117.497        0.107      339.765       13.320      859.315
11/14/2014  15:33:00     -249.157      -57.869       -1.799      159.823      123.546       62.248    25543.523    15263.584     3874.775        5.505        2.234      255.789       73.085        0.082      339.977       13.677      859.304
11/14/2014  15:34:00     -368.962       -7.145      -12.826      190.665      197.975       85.799    36353.091    39194.192     7361.407       10.961        4.145      369.032       94.090        0.065      339.836       13.438      859.317
11/14/2014  15:35:00     -370.895      -29.936      -17.613      217.138      168.856       82.995    47148.696    28512.238     6888.115       11.064        4.127      372.101       87.711        0.056      339.828       13.426      859.310
11/14/2014  15:36:00     -446.756     -163.166      -14.446      225.727      191.518       96.523    50952.747    36679.324     9316.752       16.167        4.847      475.619      111.120        0.055      339.747       13.290      859.310
11/14/2014  15:37:00     -309.765      -27.487      -14.750      229.974      152.042       91.361    52887.835    23116.802     8346.892        9.062        4.218      310.982      111.954        0.130      339.837       13.441      859.298
11/14/2014  15:38:00     -505.570     -161.983       -8.566      266.528      179.220      104.274    71037.042    32119.818    10873.131       19.795        5.701      530.886      129.549        0.060      339.636       13.102      859.299
11/14/2014  15:39:00     -394.769     -146.085       -9.783      195.155      165.544       91.543    38085.326    27404.897     8380.211       12.556        3.694      420.932       97.253        0.053      339.705       13.221      859.260
11/14/2014  15:40:00     -426.648     -229.203      -11.514      233.833      200.967       89.864    54677.891    40387.664     8075.606       16.890        5.157      484.317       92.560        0.037      339.649       13.123      859.290
11/14/2014  15:41:00     -318.627     -100.705        7.341      229.286      201.164      104.180    52572.136    40466.766    10853.484       10.778        5.195      334.162       95.939        0.082      339.739       13.276      859.270
11/14/2014  15:42:00     -348.679       33.078      -32.974      186.782      149.331       94.910    34887.582    22299.643     9007.956        9.496        3.310      350.245       83.497        0.057      339.832       13.434      859.287
11/14/2014  15:43:00     -516.735      -66.233      -23.439      191.476      221.654      103.404    36663.092    49130.651    10692.457       18.420        4.824      520.962       93.571        0.032      339.768       13.323      859.265
11/14/2014  15:44:00     -372.906      -54.182       14.674      296.746      212.436      123.698    88057.958    45129.205    15301.162       14.532        7.424      376.822      162.209        0.185      339.646       13.118      859.249
11/14/2014  15:45:00     -241.818      -43.820       12.860      223.725      147.827      102.850    50052.748    21852.895    10578.215        7.151        4.124      245.757      117.559        0.229      339.713       13.232      859.224
11/14/2014  15:46:00     -500.706     -151.465       -4.536      253.781      187.851      104.783    64404.909    35287.986    10979.410       19.215        5.534      523.114      125.272        0.057      339.516       12.899      859.212
11/14/2014  15:47:00     -491.194     -166.410      -24.551      186.100      156.197       81.307    34633.395    24397.418     6610.829       16.759        3.282      518.617       76.405        0.022      339.521       12.907      859.228
11/14/2014  15:48:00     -362.910       -2.103       -6.587      228.299      152.063      100.430    52120.584    23123.298    10086.178       10.852        4.267      362.916      119.919        0.109      339.601       13.043      859.233
11/14/2014  15:49:00     -411.258      -79.903       -2.830      221.275      208.064      102.073    48962.486    43290.710    10418.893       13.908        5.134      418.948      112.819        0.073      339.668       13.155      859.207
11/14/2014  15:50:00     -363.331      -86.313       -7.155      188.986      156.911       80.911    35715.588    24620.971     6546.670       10.318        3.344      373.442       91.419        0.060      339.614       13.063      859.245
11/14/2014  15:51:00     -384.742      -26.662       -8.949      248.431      181.923      106.954    61717.947    33095.801    11439.214       12.751        5.313      385.664      118.868        0.095      339.634       13.099      859.235
11/14/2014  15:52:00     -571.339      -63.184      -24.009      261.161      218.957      122.340    68204.834    47942.202    14967.118       23.103        6.556      574.822      139.805        0.059      339.515       12.898      859.259
11/14/2014  15:53:00     -418.303      -56.402      -21.776      235.163      167.268      108.669    55301.591    27978.617    11808.984       13.684        4.754      422.089      124.344        0.087      339.497       12.867      859.294
11/14/2014  15:54:00     -545.797     -129.513      -28.490      246.900      197.024      108.323    60959.395    38818.584    11733.807       21.347        5.576      560.952      122.903        0.048      339.419       12.736      859.265
11/14/2014  15:55:00     -365.060        2.655      -29.393      167.698      124.646       75.050    28122.584    15536.549     5632.536        9.171        2.465      365.070       78.566        0.046      339.605       13.051      859.297
11/14/2014  15:56:00     -486.548     -158.284      -14.020      165.718      149.272       93.195    27462.618    22282.224     8685.310       16.019        2.922      511.647       87.164        0.029      339.353       12.624      859.304
11/14/2014  15:57:00     -294.486      -39.559       -0.199      190.615      150.356       79.618    36334.083    22606.887     6339.054        7.677        3.264      297.131       84.177        0.080      339.498       12.869      859.335
11/14/2014  15:58:00     -368.514     -120.977      -20.883      302.998      176.740       80.873    91808.002    31237.057     6540.427       14.020        6.479      387.864      108.850        0.079      339.398       12.701      859.327
11/14/2014  15:59:00     -404.534     -124.545      -24.379      219.423      163.616       80.337    48146.544    26770.314     6453.999       13.055        4.069      423.272      101.593        0.058      339.322       12.572      859.318
11/14/2014  16:00:00     -220.466     -119.110       -6.919      172.325       84.814       57.780    29695.907     7193.438     3338.585        5.153        2.011      250.584       74.628        0.089      339.400       12.705      859.347
11/14/2014  16:01:00     -425.071      -78.379      -26.755      300.127      182.089      106.924    90076.184    33156.319    11432.843       16.108        6.733      432.237      129.246        0.089      339.414       12.727      859.341
11/14/2014  16:02:00     -266.012      -34.785      -15.000      145.346      111.220       61.905    21125.411    12369.915     3832.265        5.476        1.866      268.277       67.927        0.064      339.446       12.780      859.370
11/14/2014  16:03:00     -185.152      -51.562      -10.305      116.045      106.788       65.605    13466.491    11403.594     4304.013        3.310        1.459      192.198       51.938        0.073      339.462       12.810      859.388
11/14/2014  16:04:00     -524.373      -73.412      -39.536      304.129      138.984       89.064    92494.219    19316.453     7932.452       20.081        5.987      529.487      131.415        0.062      339.360       12.636      859.379
11/14/2014  16:05:00     -460.768      -85.944      -40.686      173.203      146.161       76.301    29999.288    21363.124     5821.828       13.926        2.859      468.715       89.257        0.036      339.273       12.490      859.379
11/14/2014  16:06:00     -351.410     -125.330       -7.662      195.401      154.468       87.283    38181.388    23860.448     7618.405       10.444        3.483      373.090      103.546        0.077      339.268       12.483      859.411
11/14/2014  16:07:00     -390.267      -15.182      -30.231      180.006      155.755       90.635    32402.071    24259.563     8214.735       10.915        3.244      390.562      104.768        0.072      339.347       12.614      859.416
11/14/2014  16:08:00     -231.143      -54.554       -7.313      121.758       96.688       54.099    14824.979     9348.551     2926.670        4.177        1.355      237.494       51.347        0.047      339.285       12.512      859.441
11/14/2014  16:09:00     -204.932     -106.108      -11.789       72.221       67.844       33.334     5215.807     4602.781     1111.155        3.216        0.546      230.773       17.184        0.006      339.198       12.364      859.478
11/14/2014  16:10:00     -378.251     -107.039      -30.190      329.041      202.937      108.663   108268.171    41183.582    11807.659       15.832        8.063      393.105      123.450        0.099      339.170       12.318      859.429
11/14/2014  16:11:00     -207.582     -107.484       19.309      209.461      159.500       87.463    43873.873    25440.359     7649.835        6.597        3.848      233.759      107.458        0.211      339.197       12.364      859.413
11/14/2014  16:12:00     -326.287     -144.610       -7.329      159.125      114.018       80.124    25320.615    13000.106     6419.791        8.608        2.237      356.897       85.660        0.058      339.102       12.202      859.456
11/14/2014  16:13:00     -310.028      -82.855      -12.323      136.087      102.388       58.588    18519.703    10483.375     3432.503        6.778        1.622      320.909       46.261        0.021      339.123       12.236      859.481
11/14/2014  16:14:00     -253.480      -76.008      -10.278      170.231      111.366       72.680    28978.521    12402.295     5282.448        5.839        2.333      264.631       77.313        0.085      339.084       12.172      859.469
11/14/2014  16:15:00     -110.367      -10.674       -3.570       90.512       67.141       51.704     8192.397     4507.932     2673.285        1.384        0.769      110.882       58.637        0.280      339.161       12.303      859.499
11/14/2014  16:16:00     -519.439       -5.012      -46.563      211.448      224.656       90.141    44710.140    50470.282     8125.349       18.764        5.165      519.464       78.805        0.023      339.079       12.164      859.503
11/14/2014  16:17:00     -450.928        0.774      -35.456      202.604      133.157       86.004    41048.418    17730.779     7396.706       13.537        3.309      450.929       92.658        0.042      339.063       12.137      859.497
11/14/2014  16:18:00     -132.310      -12.692       -7.076      125.727      148.353       60.800    15807.246    22008.592     3696.652        2.961        2.076      132.917       67.651        0.259      339.048       12.115      859.502
11/14/2014  16:19:00      -10.433        1.277       13.609       68.946       97.838       44.847     4753.507     9572.300     2011.295        0.831        0.817       10.511       36.918       12.336      339.020       12.069      859.499
11/14/2014  16:20:00     -177.959      -62.518      -10.470       57.262       50.623       34.333     3278.974     2562.660     1178.730        2.135        0.351      188.621       23.493        0.016      339.011       12.051      859.515
11/14/2014  16:21:00     -303.592       -3.288      -24.678      133.233      119.971       76.256    17751.013    14393.117     5814.945        6.537        1.898      303.610       80.068        0.070      339.031       12.082      859.528
11/14/2014  16:22:00     -262.664      -85.559       -8.677      134.540      129.958       60.418    18101.120    16889.000     3650.276        5.751        1.932      276.247       69.147        0.063      339.115       12.226      859.526
11/14/2014  16:23:00     -241.200      -50.903       -8.925      157.724       90.032       54.797    24876.804     8105.690     3002.747        4.841        1.799      246.513       72.496        0.086      339.068       12.146      859.553
11/14/2014  16:24:00     -331.916       42.877      -23.639      109.978      124.670       71.658    12095.227    15542.528     5134.849        7.266        1.639      334.674       52.356        0.024      339.079       12.164      859.547
11/14/2014  16:25:00     -190.403       -7.325      -23.413       86.954       75.776       43.194     7561.051     5741.998     1865.688        2.601        0.758      190.543       38.108        0.040      339.027       12.077      859.568
11/14/2014  16:26:00      -60.435       65.035       12.290       55.505       60.693       37.342     3080.754     3683.700     1394.418        0.809        0.408       88.780       36.541        0.169      339.021       12.068      859.584
11/14/2014  16:27:00       -0.332      -12.023        6.146       29.108       28.689       23.749      847.291      823.048      564.038        0.121        0.112       12.028       11.808        0.964      339.030       12.084      859.584
11/14/2014  16:28:00       40.190        2.647       21.773       62.807       53.622       53.377     3944.677     2875.313     2849.092        0.588        0.483       40.277       35.493        0.777      338.966       11.978      859.553
11/14/2014  16:29:00     -126.415       33.780       -2.814      108.662       59.685       47.927    11807.535     3562.312     2297.005        1.739        0.883      130.851       36.198        0.077      339.196       12.362      859.564
11/14/2014  16:30:00     -199.961       -0.893      -11.394      116.649       78.646       58.369    13607.089     6185.184     3406.897        3.165        1.160      199.963       50.331        0.063      339.132       12.256      859.573
11/14/2014  16:31:00     -197.799      -30.737      -10.797      120.710      111.614       47.773    14570.989    12457.708     2282.222        3.474        1.466      200.173       49.527        0.061      338.939       11.929      859.582
11/14/2014  16:32:00     -252.331      -48.204      -32.776      176.829       73.560       49.267    31268.467     5411.053     2427.211        5.308        1.955      256.894       68.120        0.070      338.997       12.026      859.555
11/14/2014  16:33:00     -245.073      -91.896       -8.358      125.660      100.472       45.108    15790.421    10094.595     2034.706        4.824        1.396      261.735       44.210        0.029      338.915       11.888      859.571
11/14/2014  16:34:00     -221.067      -30.320      -16.908       97.561       93.887       54.095     9518.070     8814.766     2926.215        3.566        1.063      223.136       52.689        0.056      338.924       11.901      859.588
11/14/2014  16:35:00     -311.052      -99.849      -14.634      191.104      100.773       64.289    36520.550    10155.136     4133.023        7.886        2.540      326.685       59.461        0.033      338.892       11.849      859.587
11/14/2014  16:36:00     -393.959      -28.797      -49.624      215.340       73.392       69.407    46371.226     5386.356     4817.333       10.752        2.829      395.010       64.627        0.027      339.001       12.033      859.580
11/14/2014  16:37:00     -271.471      -61.613      -16.563      130.090      112.443       53.521    16923.505    12643.342     2864.531        5.509        1.622      278.375       65.777        0.056      339.125       12.242      859.587
11/14/2014  16:38:00     -333.332      -14.337      -30.412      115.856      102.092       57.384    13422.621    10422.687     3292.872        6.968        1.357      333.641       55.921        0.028      339.121       12.234      859.591
11/14/2014  16:39:00     -181.858      -56.638      -10.061       98.813       72.671       40.149     9764.023     5281.080     1611.966        2.652        0.833      190.473       47.957        0.063      339.064       12.138      859.597
11/14/2014  16:40:00     -158.521      -73.292       -6.873       71.167       54.507       38.309     5064.671     2971.031     1467.577        2.002        0.475      174.645       32.926        0.036      338.898       11.862      859.614
11/14/2014  16:41:00     -168.344      -95.881       -8.930       63.807       58.753       37.860     4071.329     3451.866     1433.344        2.328        0.448      193.734       29.627        0.023      338.906       11.873      859.628
11/14/2014  16:42:00     -258.620     -146.118      -12.018      117.839      120.665       64.180    13886.057    14560.011     4119.104        6.047        1.628      297.044       50.637        0.029      338.876       11.821      859.588
11/14/2014  16:43:00      -92.999      -80.707       -7.525       86.757       59.185       46.236     7526.722     3502.879     2137.733        1.419        0.658      123.136       42.449        0.119      338.884       11.836      859.621
11/14/2014  16:44:00     -155.505      -15.996        0.655       73.285       77.403       51.622     5370.640     5991.190     2664.829        1.923        0.701      156.325       48.932        0.098      338.953       11.953      859.633
11/14/2014  16:45:00     -199.547      -26.293       -4.747       83.669       56.312       44.891     7000.570     3171.086     2015.220        2.636        0.609      201.271       38.650        0.037      338.891       11.848      859.663
11/14/2014  16:46:00      -59.489       -9.905       -5.352       33.928       43.101       27.904     1151.111     1857.692      778.650        0.373        0.189       60.308       19.820        0.108      338.929       11.916      859.662
11/14/2014  16:47:00     -236.203      -54.967      -20.741       86.900       78.180       26.261     7551.632     6112.133      689.663        3.680        0.718      242.514       17.675        0.005      338.979       11.996      859.687
11/14/2014  16:48:00     -217.098      -35.961       -6.947      106.605       92.056       39.901    11364.677     8474.317     1592.076        3.495        1.072      220.056       43.766        0.040      338.803       11.700      859.703
11/14/2014  16:49:00     -235.314      -40.288      -18.195      130.582       69.228       51.333    17051.768     4792.532     2635.123        4.090        1.224      238.738       53.820        0.051      338.845       11.770      859.713
11/14/2014  16:50:00     -178.284      -40.513      -15.952       65.346       47.276       34.994     4270.097     2235.053     1224.574        2.070        0.386      182.829       31.379        0.029      338.808       11.709      859.750
11/14/2014  16:51:00     -145.719      -61.697       -1.728       75.160       52.242       31.980     5649.079     2729.185     1022.701        1.722        0.470      158.242       34.557        0.048      338.812       11.716      859.765
11/14/2014  16:52:00      -37.756     -106.953        5.647      108.973       42.396       38.102    11875.035     1797.451     1451.760        1.401        0.756      113.421       42.138        0.138      338.750       11.613      859.768
11/14/2014  16:53:00      -52.054      -70.074        7.400       57.614       84.664       37.301     3319.378     7168.048     1391.348        0.977        0.594       87.293       28.647        0.108      338.849       11.780      859.756
11/14/2014  16:54:00      -25.514       17.692       -7.024       34.233       30.658       26.805     1171.885      939.924      718.514        0.192        0.142       31.048       13.203        0.181      338.847       11.777      859.780
11/14/2014  16:55:00      -58.667      -22.620        3.416       44.000       29.235       27.588     1936.019      854.700      761.091        0.376        0.178       62.876       27.627        0.193      338.758       11.628      859.803
11/14/2014  16:56:00       77.154       68.425       -7.430       55.135       57.366       36.695     3039.842     3290.901     1346.502        0.918        0.384      103.125       32.923        0.102      338.666       11.471      859.788
11/14/2014  16:57:00      -34.921       63.391        9.184       29.831       75.430       30.136      889.873     5689.745      908.166        0.640        0.374       72.373       26.270        0.132      338.823       11.736      859.805
11/14/2014  16:58:00      -47.567      -40.472       -0.677       38.655       25.056       23.030     1494.172      627.810      530.360        0.328        0.133       62.455       14.305        0.052      338.780       11.664      859.829
11/14/2014  16:59:00      -88.930      -10.299       -7.972       43.810       38.480       17.073     1919.318     1480.703      291.500        0.588        0.185       89.524       13.975        0.024      338.805       11.708      859.829
11/14/2014  17:00:00      -40.204       70.479      -21.525       40.988       33.870       11.226     1679.998     1147.185      126.033        0.500        0.148       81.140       12.191        0.023      338.686       11.506      859.830
11/14/2014  17:01:00     -125.120       84.430      -23.616       42.300       56.779       29.214     1789.287     3223.798      853.430        1.460        0.293      150.942       29.590        0.038      338.732       11.582      859.848
11/14/2014  17:02:00     -119.827      109.692      -14.446       51.842       90.141       30.983     2687.630     8125.382      959.933        1.918        0.589      162.452       22.276        0.019      338.921       11.901      859.830
11/14/2014  17:03:00      -95.463       84.442      -27.388       63.640       43.783       24.066     4050.005     1916.908      579.171        1.177        0.327      127.451       15.604        0.015      338.656       11.454      859.859
11/14/2014  17:04:00     -210.619       11.704      -22.998       35.952       39.119       29.688     1292.564     1530.309      881.364        2.436        0.185      210.944       25.455        0.015      338.667       11.474      859.872
11/14/2014  17:05:00     -182.348     -141.073        1.829      119.926      112.545       62.433    14382.209    12666.413     3897.820        4.204        1.547      230.547       57.478        0.062      338.629       11.407      859.907
11/14/2014  17:06:00     -257.475     -105.699      -16.341       87.087       83.696       46.496     7584.223     7004.964     2161.922        4.724        0.838      278.327       43.773        0.025      338.644       11.432      859.916
11/14/2014  17:07:00     -241.222      -39.772      -20.066       70.660       63.553       32.693     4992.843     4038.997     1068.831        3.513        0.505      244.479       33.612        0.019      338.638       11.421      859.921
11/14/2014  17:08:00     -209.119      -63.031      -14.644       61.076       53.902       38.297     3730.281     2905.400     1466.664        2.801        0.405      218.412       25.804        0.014      338.675       11.485      859.942
11/14/2014  17:09:00      -48.481      -81.132       12.129       66.600       47.712       32.511     4435.592     2276.394     1056.994        0.842        0.388       94.514       25.091        0.070      338.608       11.374      859.983
11/14/2014  17:10:00      -65.194      -34.666       11.222       47.546       44.513       25.771     2260.582     1981.441      664.159        0.524        0.245       73.837       27.808        0.142      338.574       11.318      859.967
11/14/2014  17:11:00      -56.240     -128.441      -14.817       35.747       52.194       27.939     1277.860     2724.225      780.599        1.233        0.239      140.214       14.743        0.011      338.669       11.477      859.982
11/14/2014  17:12:00      -27.754      -58.215        0.727       34.746       64.445       35.467     1207.284     4153.110     1257.896        0.539        0.331       64.492       38.527        0.357      338.625       11.402      859.960
11/14/2014  17:13:00      -57.327      -33.044       -2.339       73.411       54.448       31.019     5389.219     2964.606      962.186        0.685        0.466       66.168       39.654        0.359      338.689       11.512      859.919
11/14/2014  17:14:00     -198.206      -93.252        3.534      100.227       74.985       51.142    10045.423     5622.816     2615.514        3.314        0.914      219.047       52.775        0.058      338.581       11.327      859.942
11/14/2014  17:15:00     -171.930     -130.594       -2.266       83.611       80.501       48.426     6990.718     6480.366     2345.042        3.121        0.791      215.904       43.220        0.040      338.498       11.186      859.946
11/14/2014  17:16:00     -126.297      -29.848       -9.968       69.991       45.430       33.806     4898.691     2063.900     1142.825        1.252        0.405      129.776       36.304        0.078      338.682       11.499      859.958
11/14/2014  17:17:00     -123.668      -30.681      -10.725       35.510       27.761       22.443     1260.958      770.652      503.674        0.944        0.127      127.417       20.213        0.025      338.510       11.209      859.955
11/14/2014  17:18:00      -79.667      -21.709      -13.605       40.986       44.759       21.831     1679.834     2003.364      476.590        0.558        0.208       82.572       21.396        0.067      338.636       11.422      859.985
11/14/2014  17:19:00      -81.681      -20.221       -7.537       61.407       46.860       26.420     3770.761     2195.847      697.994        0.690        0.333       84.147       26.101        0.096      338.613       11.383      859.989
11/14/2014  17:20:00     -151.855       24.050      -21.616       48.343       38.754       25.765     2337.028     1501.840      663.835        1.430        0.225      153.748       21.569        0.020      338.615       11.385      859.976
11/14/2014  17:21:00      -47.969      -34.246        3.407       39.578       24.219       19.628     1566.439      586.579      385.245        0.301        0.127       58.939       12.550        0.045      338.487       11.171      859.967
11/14/2014  17:22:00       -2.893      -99.536        5.104       74.570      107.047       35.964     5560.630    11459.023     1293.402        1.412        0.916       99.578       31.826        0.102      338.489       11.172      859.979
11/14/2014  17:23:00      -78.753      -15.826        3.944       94.115       74.255       39.545     8857.570     5513.762     1563.785        1.120        0.797       80.327       38.074        0.225      338.565       11.301      859.975
11/14/2014  17:24:00      -63.923       -8.329        6.901      123.075       36.868       34.516    15147.392     1359.269     1191.371        1.095        0.885       64.464       53.547        0.690      338.485       11.166      859.970
11/14/2014  17:25:00     -137.525      -79.362       -9.627       49.578       70.863       34.464     2457.979     5021.582     1187.748        1.698        0.433      158.781       24.153        0.023      338.454       11.116      859.957
11/14/2014  17:26:00     -121.953      -68.949      -15.369       40.635       40.029       24.106     1651.203     1602.287      581.112        1.185        0.192      140.095       18.565        0.018      338.426       11.069      859.962
11/14/2014  17:27:00     -144.673      -30.273      -10.734       65.089       47.147       39.156     4236.556     2222.809     1533.225        1.498        0.400      147.806       33.777        0.052      338.554       11.283      859.981
11/14/2014  17:28:00     -241.626     -103.465      -15.447      120.514       63.792       44.155    14523.697     4069.387     1949.648        4.493        1.027      262.846       43.388        0.027      338.384       10.996      859.975
11/14/2014  17:29:00      -72.278      -92.341       -4.506       62.575       61.306       47.974     3915.680     3758.454     2301.532        1.187        0.499      117.264       21.363        0.033      338.412       11.043      859.960
11/14/2014  17:30:00      -63.866     -150.299       -0.745       51.755       76.860       35.464     2678.604     5907.494     1257.671        1.825        0.492      163.305       19.803        0.015      338.456       11.117      859.958
11/14/2014  17:31:00     -116.900     -195.026       -8.588       78.066       85.207       44.578     6094.269     7260.229     1987.191        3.355        0.767      227.378       49.256        0.047      338.385       10.997      859.991
11/14/2014  17:32:00     -123.278       -5.644      -16.887       66.869       62.929       34.828     4471.520     3960.108     1213.014        1.258        0.482      123.407       16.648        0.018      338.376       10.985      859.976
11/14/2014  17:33:00      -71.931      -73.389      -14.550       35.654      106.397       29.809     1271.225    11320.260      888.569        1.212        0.674      102.762       22.313        0.047      338.381       10.994      859.988
11/14/2014  17:34:00     -179.316     -164.495       -5.483      123.828      118.651       54.884    15333.363    14078.012     3012.300        4.583        1.621      243.337       47.752        0.039      338.334       10.911      859.965
11/14/2014  17:35:00     -141.628      -35.147       -7.001      131.508      148.796       67.965    17294.446    22140.390     4619.223        3.269        2.203      145.924       73.762        0.256      338.326       10.900      859.998
11/14/2014  17:36:00      -23.639      -97.621      -22.776       67.499       70.189       33.793     4556.093     4926.545     1141.953        1.061        0.531      100.442       26.203        0.068      338.297       10.854      860.004
11/14/2014  17:37:00      -25.441      -51.103       11.622       76.455       63.054       41.402     5845.384     3975.806     1714.120        0.746        0.577       57.085       33.349        0.341      338.315       10.882      860.015
11/14/2014  17:38:00     -233.462     -132.441       -4.086      150.567      110.137       64.160    22670.509    12130.228     4116.456        5.548        1.946      268.413       85.286        0.101      338.243       10.760      860.028
11/14/2014  17:39:00      -86.811     -135.961       10.078       72.911       91.123       38.476     5316.019     8303.318     1480.411        2.061        0.755      161.312       46.262        0.082      338.278       10.821      860.032
11/14/2014  17:40:00     -218.873        2.170       -3.402       91.512       68.811       39.222     8374.402     4734.971     1538.375        3.128        0.732      218.883       32.035        0.021      338.501       11.193      860.060
11/14/2014  17:41:00      -64.378      -32.583       20.566       61.586       68.762       34.960     3792.840     4728.273     1222.205        0.768        0.487       72.153       37.515        0.270      338.296       10.850      860.081
11/14/2014  17:42:00       48.223       29.543       27.581       34.069       35.097       26.566     1160.703     1231.805      705.777        0.353        0.155       56.553       17.632        0.097      338.219       10.721      860.084
11/14/2014  17:43:00       11.270       27.565       46.240       39.178       53.922       36.991     1534.883     2907.581     1368.323        0.442        0.291       29.780       38.681        1.687      338.190       10.673      860.081
11/14/2014  17:44:00       23.785       18.118       33.673       26.054       44.681       23.229      678.833     1996.364      539.604        0.262        0.161       29.900       24.999        0.699      338.211       10.709      860.094
11/14/2014  17:45:00      -17.782      -54.672        2.770       20.594       50.949       22.975      424.128     2595.850      527.828        0.343        0.177       57.491       30.264        0.277      338.275       10.816      860.131
11/14/2014  17:46:00       -3.120      -51.053        3.066       29.240       77.560       28.654      854.966     6015.550      821.077        0.516        0.385       51.149       41.759        0.667      338.282       10.827      860.136
11/14/2014  17:47:00     -277.480       82.964      -22.665      138.037       53.447       36.585    19054.341     2856.558     1338.449        5.382        1.162      289.617       41.723        0.021      338.236       10.747      860.155
11/14/2014  17:48:00     -124.727       -7.906        3.069       95.162       59.285       41.505     9055.805     3514.683     1722.686        1.496        0.715      124.977       47.955        0.147      338.374       10.980      860.134
11/14/2014  17:49:00      -36.000      109.874       12.153       57.452       65.193       41.660     3300.691     4250.157     1735.589        1.140        0.464      115.622       39.623        0.117      338.213       10.712      860.142
11/14/2014  17:50:00     -248.196       29.577      -12.856      107.708       76.753       46.753    11600.939     5891.006     2185.831        4.116        0.984      249.952       38.083        0.023      338.476       11.151      860.193
11/14/2014  17:51:00     -135.781       19.966      -14.612       87.845       54.446       40.587     7716.728     2964.353     1647.339        1.569        0.616      137.241       42.947        0.098      338.399       11.023      860.183
11/14/2014  17:52:00     -148.373      -48.941        1.222       59.555       71.307       40.642     3546.769     5084.657     1651.806        1.735        0.514      156.236       37.716        0.058      338.248       10.770      860.194
11/14/2014  17:53:00      -74.304      -17.136        5.260       54.546       49.812       27.786     2975.247     2481.252      772.087        0.603        0.311       76.254       30.953        0.165      338.100       10.522      860.220
11/14/2014  17:54:00      -50.575       12.195        0.360       31.114       55.463       23.812      968.108     3076.177      566.994        0.366        0.231       52.025       17.378        0.112      338.363       10.964      860.225
11/14/2014  17:55:00      -18.441       -9.970       14.381       58.319       29.336       33.539     3401.118      860.581     1124.876        0.302        0.269       20.963       38.626        3.395      338.203       10.696      860.229
11/14/2014  17:56:00     -126.518      -35.854       11.368       93.933       78.938       44.760     8823.346     6231.229     2003.440        1.724        0.853      131.501       53.971        0.168      338.123       10.559      860.241
11/14/2014  17:57:00     -191.696      -95.277       -0.886      116.260       71.812       49.417    13516.326     5156.929     2442.032        3.347        1.056      214.068       55.031        0.066      338.069       10.467      860.215
11/14/2014  17:58:00     -174.122      -84.169       -5.201       59.291       82.728       41.440     3515.398     6843.927     1717.280        2.475        0.604      193.398       40.109        0.043      338.109       10.535      860.229
11/14/2014  17:59:00      -97.267      -23.395        9.343       79.047       60.011       38.124     6248.375     3601.291     1453.462        1.070        0.565      100.041       40.105        0.161      338.153       10.612      860.229
11/14/2014  18:00:00     -104.387      -73.902      -10.505       64.514       46.727       30.983     4162.019     2183.373      959.959        1.189        0.365      127.899       32.850        0.066      338.068       10.470      860.225
11/14/2014  18:01:00     -118.094      -10.618      -15.076       56.060       48.876       23.423     3142.733     2388.859      548.658        1.018        0.304      118.570       20.386        0.030      338.163       10.627      860.235
11/14/2014  18:02:00      -19.655      -98.331        3.890       44.191       61.402       23.834     1952.842     3770.180      568.051        0.818        0.315      100.277       17.980        0.032      338.114       10.545      860.246
11/14/2014  18:03:00      -94.526      -90.304       -6.721       86.611       56.999       41.104     7501.438     3248.871     1689.539        1.479        0.622      130.729       47.299        0.131      338.096       10.514      860.242
11/14/2014  18:04:00      -83.884      -76.225        0.538       94.493       57.592       42.008     8929.020     3316.808     1764.662        1.343        0.701      113.344       32.228        0.081      338.050       10.438      860.247
11/14/2014  18:05:00     -206.481     -142.148       -5.139      115.041      100.248       52.029    13234.451    10049.629     2706.990        4.442        1.300      250.680       60.744        0.059      338.013       10.374      860.269
11/14/2014  18:06:00     -186.991     -107.594      -12.018      149.904       77.688       48.575    22471.068     6035.394     2359.488        3.877        1.543      215.736       70.928        0.108      338.011       10.370      860.276
11/14/2014  18:07:00     -262.179     -115.800      -14.591      104.172      101.422       56.963    10851.801    10286.475     3244.755        5.337        1.219      286.614       52.950        0.034      337.980       10.318      860.297
11/14/2014  18:08:00     -142.764     -123.198       -2.221      162.551      130.714       56.583    26422.834    17086.025     3201.638        4.113        2.336      188.572       73.800        0.153      338.064       10.460      860.278
11/14/2014  18:09:00     -460.237     -153.403      -27.280      172.131      136.495       77.211    29629.232    18630.989     5961.575       14.515        2.711      485.130       93.031        0.037      338.012       10.372      860.283
11/14/2014  18:10:00     -209.222      -96.797       20.209      157.106       95.749       64.873    24682.409     9167.916     4208.480        4.580        1.903      230.529       72.071        0.098      337.961       10.287      860.294
11/14/2014  18:11:00     -161.147      -93.573       -3.216      121.112       90.605       63.669    14668.112     8209.188     4053.714        3.083        1.347      186.345       52.879        0.081      337.974       10.309      860.305
11/14/2014  18:12:00     -225.483      -60.501      -19.839      124.642       78.843       51.545    15535.553     6216.253     2656.865        3.965        1.220      233.459       63.531        0.074      338.015       10.377      860.316
11/14/2014  18:13:00     -112.793        4.040        0.389       59.640       50.937       33.014     3556.873     2594.593     1089.909        0.999        0.362      112.865       28.366        0.063      337.986       10.330      860.321
11/14/2014  18:14:00     -147.130      -26.065       -0.235       62.131       72.029       39.496     3860.236     5188.202     1559.968        1.647        0.530      149.421       33.275        0.050      338.073       10.476      860.323
11/14/2014  18:15:00     -196.145     -117.777       -4.789      147.508      121.888       62.118    21758.559    14856.772     3858.695        4.641        2.024      228.789       74.081        0.105      337.957       10.281      860.316
11/14/2014  18:16:00     -242.904      -82.059       -1.124      132.435       96.762       51.138    17539.159     9362.827     2615.122        4.762        1.476      256.390       56.578        0.049      338.040       10.419      860.309
11/14/2014  18:17:00     -293.879      -44.322      -23.572      134.346       94.076       57.808    18048.969     8850.362     3341.809        5.956        1.512      297.202       65.666        0.049      338.023       10.390      860.319
11/14/2014  18:18:00     -280.372      -59.196      -10.305      108.461       70.091       46.251    11763.722     4912.766     2139.178        5.051        0.941      286.553       48.548        0.029      337.982       10.322      860.321
11/14/2014  18:19:00     -232.835      -71.681      -13.916      149.354       62.505       47.489    22306.557     3906.863     2255.164        4.400        1.423      243.619       63.630        0.068      337.919       10.216      860.325
11/14/2014  18:20:00     -205.153      -55.383      -10.224       86.402       57.195       41.549     7465.301     3271.304     1726.337        2.886        0.623      212.497       44.988        0.045      337.913       10.206      860.334
11/14/2014  18:21:00     -218.147      -69.394      -25.013      105.349       75.336       40.422    11098.498     5675.510     1633.954        3.571        0.920      228.918       32.226        0.020      337.935       10.242      860.327
11/14/2014  18:22:00     -258.900     -164.471      -28.767       82.171       72.157       38.540     6752.006     5206.692     1485.364        5.417        0.672      306.725       36.970        0.015      337.939       10.247      860.340
11/14/2014  18:23:00     -230.550     -177.160       -5.728      150.816      126.867       75.968    22745.562    16095.204     5771.065        6.458        2.231      290.756       80.935        0.077      337.875       10.141      860.334
11/14/2014  18:24:00     -179.021      -12.694        0.739      118.208      129.740       67.813    13973.213    16832.376     4598.536        3.380        1.770      179.470       60.462        0.113      337.996       10.345      860.339
11/14/2014  18:25:00     -353.908     -106.301      -21.762      164.834      112.193       58.323    27170.372    12587.369     3401.628        9.008        2.158      369.528       60.999        0.027      337.919       10.215      860.349
11/14/2014  18:26:00     -207.662        4.621      -24.435       55.754       50.832       28.645     3108.562     2583.930      820.522        2.513        0.326      207.713       26.141        0.016      338.034       10.408      860.364
11/14/2014  18:27:00     -206.828     -124.575       -6.559       52.585       72.905       39.005     2765.198     5315.201     1521.392        3.397        0.480      241.448       31.401        0.017      337.916       10.210      860.389
11/14/2014  18:28:00     -172.337      -25.738       -3.231       80.806       48.807       36.313     6529.669     2382.111     1318.611        2.030        0.512      174.248       39.784        0.052      337.951       10.270      860.394
11/14/2014  18:29:00     -158.675      -12.606       -3.225       61.824       77.039       37.348     3822.235     5935.055     1394.886        1.825        0.558      159.175       35.781        0.051      338.023       10.391      860.408
11/14/2014  18:30:00     -115.056       -9.674       -4.212       65.888       55.871       33.760     4341.276     3121.584     1139.728        1.097        0.430      115.462       33.577        0.085      337.990       10.338      860.410
11/14/2014  18:31:00     -112.959      -23.410       -6.929       56.878       52.058       33.942     3235.119     2710.049     1152.057        1.023        0.355      115.359       24.181        0.044      338.067       10.468      860.416
11/14/2014  18:32:00     -199.843      -14.330      -19.958       74.196       67.577       34.806     5504.975     4566.705     1211.478        2.591        0.564      200.356       35.651        0.032      338.092       10.506      860.451
11/14/2014  18:33:00     -195.896      -37.161      -17.763      101.653       61.572       39.159    10333.346     3791.171     1533.428        2.786        0.783      199.390       45.824        0.053      337.940       10.251      860.446
11/14/2014  18:34:00     -297.546      -93.012      -38.793       84.059       87.599       46.243     7065.979     7673.538     2138.460        5.778        0.844      311.745       42.642        0.019      337.826       10.059      860.463
11/14/2014  18:35:00     -311.735      -63.831      -51.961      132.852       91.383       46.945    17649.692     8350.917     2203.793        6.607        1.410      318.203       61.442        0.037      337.863       10.121      860.475
11/14/2014  18:36:00     -212.006      -25.496      -13.183       90.914       58.947       37.342     8265.314     3474.805     1394.462        2.945        0.657      213.534       38.676        0.033      337.972       10.306      860.474
11/14/2014  18:37:00     -222.397      -25.658      -13.659       99.743       81.497       46.647     9948.620     6641.826     2175.988        3.453        0.938      223.873       47.968        0.046      338.113       10.541      860.484
11/14/2014  18:38:00     -159.050       37.172      -23.339       90.470      131.266       54.412     8184.806    17230.804     2960.677        2.779        1.419      163.336       54.587        0.112      337.924       10.224      860.477
11/14/2014  18:39:00     -236.099      -99.202      -17.641       66.497       56.864       42.805     4421.917     3233.472     1832.279        3.769        0.474      256.093       30.947        0.015      337.763        9.952      860.493
11/14/2014  18:40:00     -158.178      -58.447      -11.976       63.032       41.458       29.767     3973.054     1718.754      886.073        1.758        0.329      168.631       32.495        0.037      337.777        9.980      860.526
11/14/2014  18:41:00     -125.091        0.413      -16.383      106.870       48.712       35.226    11421.185     2372.906     1240.870        1.547        0.752      125.092       50.632        0.164      337.980       10.320      860.541
11/14/2014  18:42:00     -136.568       35.100       -2.754      114.831       84.661       45.812    13186.155     7167.438     2098.770        2.117        1.123      141.006       59.234        0.176      337.956       10.278      860.507
11/14/2014  18:43:00     -171.860       63.797      -31.445       65.651       86.824       30.672     4310.024     7538.441      940.801        2.369        0.639      183.320       33.408        0.033      338.103       10.525      860.509
11/14/2014  18:44:00     -155.025      -25.633        4.417      106.672       75.777       53.472    11379.005     5742.229     2859.235        2.234        0.999      157.130       57.872        0.136      338.021       10.387      860.531
11/14/2014  18:45:00     -174.759      -84.782        4.104      143.553      106.302       68.505    20607.509    11300.214     4692.939        3.717        1.830      194.239       68.654        0.125      337.809       10.032      860.523
11/14/2014  18:46:00     -237.769      -59.645      -14.822      144.049       89.518       64.821    20750.146     8013.555     4201.717        4.663        1.648      245.135       75.518        0.095      337.711        9.867      860.542
11/14/2014  18:47:00     -138.812      -83.425        0.117      112.456      100.145       68.640    12646.241    10029.009     4711.496        2.680        1.369      161.953       72.156        0.199      337.627        9.726      860.566
11/14/2014  18:48:00     -215.154      -50.510      -23.237       78.822       59.540       41.629     6212.930     3544.954     1733.003        3.043        0.575      221.003       38.848        0.031      337.738        9.912      860.593
11/14/2014  18:49:00     -122.014        3.876       -1.391       85.911       45.424       38.080     7380.756     2063.331     1450.070        1.290        0.545      122.075       41.538        0.116      337.780        9.985      860.570
11/14/2014  18:50:00     -133.200      -40.016       -6.965      162.816       61.428       38.743    26508.923     3773.396     1501.015        2.558        1.589      139.081       43.627        0.098      337.677        9.810      860.578
11/14/2014  18:51:00     -277.291      -56.947      -19.761       91.494       67.073       41.343     8371.243     4498.735     1709.265        4.755        0.729      283.079       36.222        0.016      337.615        9.706      860.602
11/14/2014  18:52:00     -300.290      -94.485      -21.281       66.334       75.892       42.939     4400.237     5759.609     1843.785        5.578        0.600      314.804       42.349        0.018      337.573        9.633      860.616
11/14/2014  18:53:00     -288.530      -75.106      -11.619       87.067       70.402       39.124     7580.603     4956.435     1530.692        5.154        0.703      298.145       40.561        0.019      337.566        9.622      860.632
11/14/2014  18:54:00     -384.114      -91.342      -26.636      195.560      116.671       67.715    38243.730    13612.152     4585.293       10.651        2.822      394.825       85.314        0.047      337.612        9.699      860.641
11/14/2014  18:55:00     -372.436      -76.123      -42.091       74.485       99.049       55.181     5547.988     9810.634     3044.954        8.234        0.920      380.136       47.008        0.015      337.591        9.663      860.621
11/14/2014  18:56:00     -285.729     -100.909      -37.422      117.045      123.381       59.983    13699.576    15222.790     3598.001        6.287        1.626      303.024       47.136        0.024      337.657        9.776      860.606
11/14/2014  18:57:00     -243.060     -109.648       -5.471      123.046       82.175       54.704    15140.347     6752.735     2992.544        4.800        1.244      266.647       62.453        0.055      337.526        9.556      860.632
11/14/2014  18:58:00     -356.117      -94.878      -21.386       68.893       81.339       52.121     4746.184     6616.015     2716.645        7.518        0.704      368.539       38.285        0.011      337.525        9.553      860.653
11/14/2014  18:59:00     -401.027      -82.301      -40.027      134.955      121.771       57.270    18212.936    14828.222     3279.880       10.275        1.816      409.385       53.597        0.017      337.791       10.001      860.620
11/14/2014  19:00:00     -246.807      -52.756       -7.116      155.629       89.969       53.923    24220.274     8094.353     2907.711        4.948        1.761      252.382       66.209        0.069      337.685        9.823      860.640
11/14/2014  19:01:00     -328.502      -89.191        5.272      163.627      111.439       60.441    26773.645    12418.690     3653.121        7.936        2.142      340.395       69.392        0.042      337.604        9.687      860.630
11/14/2014  19:02:00     -359.872       24.967      -29.790      108.070      105.739       54.176    11679.211    11180.731     2935.043        7.840        1.290      360.737       45.761        0.016      337.755        9.940      860.644
11/14/2014  19:03:00     -310.504      -82.474      -10.294      143.968       98.387       54.474    20726.697     9679.920     2967.415        6.834        1.669      321.270       63.297        0.039      337.585        9.655      860.624
11/14/2014  19:04:00     -469.150      -62.875      -38.520      147.257      107.424       69.632    21684.766    11539.907     4848.595       13.180        1.904      473.345       70.955        0.022      337.724        9.889      860.605
11/14/2014  19:05:00     -544.595     -156.312      -21.644      224.654      163.988       90.338    50469.604    26892.117     8161.019       20.349        4.276      566.583      107.678        0.036      337.669        9.795      860.586
11/14/2014  19:06:00     -567.939     -121.086      -28.520      182.998      189.771       96.161    33488.121    36013.127     9247.001       20.837        3.937      580.704       90.840        0.024      337.687        9.828      860.564
11/14/2014  19:07:00     -416.617      -46.777      -37.114      153.969      145.863       73.333    23706.591    21275.879     5377.733       11.374        2.518      419.235       73.553        0.031      337.761        9.952      860.560
11/14/2014  19:08:00     -462.863     -139.328      -35.652      112.782      138.601       60.544    12719.840    19210.180     3665.553       13.525        1.780      483.378       57.555        0.014      337.681        9.817      860.543
11/14/2014  19:09:00     -500.019     -141.799      -23.662      169.644      135.986       79.675    28779.178    18492.189     6348.087       16.214        2.681      519.737       82.127        0.025      337.703        9.853      860.539
11/14/2014  19:10:00     -381.691     -134.731      -13.547      178.956      172.401       75.186    32025.213    29722.001     5652.930       11.570        3.370      404.772       81.422        0.040      337.655        9.773      860.536
11/14/2014  19:11:00     -340.167        6.389       -9.227      160.417      123.941       79.830    25733.633    15361.343     6372.838        8.164        2.373      340.227       83.678        0.060      337.863       10.122      860.530
11/14/2014  19:12:00     -544.342      -67.784      -28.492      143.036      138.723       73.647    20459.182    19244.148     5423.866       17.341        2.256      548.546       71.291        0.017      337.690        9.831      860.523
11/14/2014  19:13:00     -432.558      -98.148      -29.327      125.682      136.362       67.517    15796.022    18594.679     4558.532       11.827        1.947      443.553       58.906        0.018      337.673        9.801      860.505
11/14/2014  19:14:00     -290.962      -50.476        0.807      172.544      117.578       76.737    29771.579    13824.678     5888.620        6.834        2.474      295.308       82.703        0.078      337.791       10.002      860.503
11/14/2014  19:15:00     -368.586      -58.388      -14.112      150.680      101.288       65.401    22704.552    10259.281     4277.288        8.835        1.862      373.182       71.764        0.037      337.673        9.802      860.479
11/14/2014  19:16:00     -244.427      -73.812      -10.259      157.475      101.968       54.837    24798.254    10397.372     3007.137        5.174        1.910      255.328       62.983        0.061      337.591        9.667      860.454
11/14/2014  19:17:00     -305.977      -90.723       -7.116      140.567      123.141       68.048    19759.212    15163.595     4630.475        7.072        1.978      319.144       78.364        0.060      337.621        9.717      860.421
11/14/2014  19:18:00     -310.694      -89.227      -22.698      168.183      104.671       73.324    28285.374    10956.043     5376.385        7.480        2.231      323.252       69.886        0.047      337.579        9.646      860.402
11/14/2014  19:19:00     -441.706     -106.333      -35.447      127.919      109.293       59.428    16363.386    11944.971     3531.742       11.975        1.592      454.324       48.505        0.011      337.598        9.677      860.393
11/14/2014  19:20:00     -524.743       10.648      -53.288      148.272      125.821       71.785    21984.507    15830.851     5153.020       16.063        2.148      524.851       79.521        0.023      337.660        9.781      860.407
11/14/2014  19:21:00     -353.468     -106.498      -13.767      144.075      125.493       67.916    20757.523    15748.583     4612.559        8.879        2.056      369.164       72.825        0.039      337.625        9.721      860.390
11/14/2014  19:22:00     -261.901     -117.305      -12.811      102.509      105.689       60.130    10508.061    11170.097     3615.601        5.390        1.265      286.971       39.570        0.019      337.550        9.595      860.412
11/14/2014  19:23:00     -318.923     -149.252       -9.803      112.376       74.258       56.888    12628.321     5514.177     3236.236        7.273        1.069      352.119       55.984        0.025      337.479        9.478      860.414
11/14/2014  19:24:00     -376.965     -160.774       -6.639      136.896      100.876       69.112    18740.546    10175.907     4776.419       10.084        1.685      409.818       78.278        0.036      337.474        9.468      860.427
11/14/2014  19:25:00     -376.633     -104.192      -31.624      115.503      126.341       66.087    13340.922    15962.082     4367.550        9.368        1.684      390.779       48.407        0.015      337.516        9.540      860.408
11/14/2014  19:26:00     -596.952      -94.960      -44.505      195.811      188.285       87.547    38341.921    35451.280     7664.545       22.439        4.073      604.458       90.026        0.022      337.584        9.654      860.376
11/14/2014  19:27:00     -461.609      -62.587      -55.539      160.356      122.269       59.727    25713.901    14949.651     3567.335       13.215        2.212      465.832       57.517        0.015      337.602        9.682      860.343
11/14/2014  19:28:00     -229.576      -97.415      -14.216      136.861      119.602       69.927    18730.925    14304.657     4889.789        5.015        1.896      249.389       66.465        0.071      337.563        9.617      860.328
11/14/2014  19:29:00     -442.218      -96.791      -32.559      121.534      111.299       83.314    14770.559    12387.425     6941.146       12.004        1.705      452.687       65.399        0.021      337.518        9.541      860.309
11/14/2014  19:30:00     -533.725      -16.444      -63.329      131.836      131.420       63.605    17380.717    17271.204     4045.645       16.391        1.935      533.978       49.488        0.009      337.494        9.502      860.277
11/14/2014  19:31:00     -482.119     -107.799      -40.847      123.466      119.393       60.324    15243.831    14254.716     3639.004       13.943        1.657      494.023       49.454        0.010      337.423        9.384      860.263
11/14/2014  19:32:00     -397.370      -81.127      -28.452      189.501      129.609       74.856    35910.504    16798.571     5603.416       11.179        2.916      405.566       89.604        0.049      337.446        9.421      860.239
11/14/2014  19:33:00     -315.501     -117.868      -35.370      175.899      123.698       61.157    30940.571    15301.279     3740.231        8.232        2.499      336.799       71.526        0.045      337.428        9.393      860.246
11/14/2014  19:34:00     -166.440      -10.742      -21.267      110.643      109.814       62.697    12241.858    12059.036     3930.950        2.825        1.412      166.786       33.802        0.041      337.383        9.316      860.252
11/14/2014  19:35:00     -185.021       45.623      -20.769       93.145       91.707       53.351     8675.932     8410.091     2846.369        2.833        0.997      190.562       41.996        0.049      337.428        9.392      860.262
11/14/2014  19:36:00     -202.241        9.855      -16.123       80.231      145.011       58.757     6436.973    21028.074     3452.351        3.608        1.546      202.481       45.629        0.051      337.496        9.505      860.276
11/14/2014  19:37:00     -209.592      -39.072      -18.413      105.019      120.263       78.926    11028.940    14463.191     6229.308        3.875        1.586      213.203       73.803        0.120      337.402        9.348      860.281
11/14/2014  19:38:00     -247.505      110.950      -35.520      110.240      155.244       58.253    12152.834    24100.690     3393.448        5.723        1.982      271.235       63.418        0.055      337.451        9.431      860.258
11/14/2014  19:39:00     -254.832       44.215      -21.949      145.494      101.125       73.222    21168.645    10226.322     5361.433        5.206        1.838      258.640       78.823        0.093      337.443        9.416      860.272
11/14/2014  19:40:00     -188.949      -11.447      -27.586      125.575      110.782       69.599    15769.061    12272.570     4844.050        3.473        1.644      189.296       60.867        0.103      337.297        9.173      860.285
11/14/2014  19:41:00     -257.554       71.220      -29.660       94.947      136.491       74.851     9014.981    18629.727     5602.634        5.276        1.662      267.220       57.438        0.046      337.335        9.236      860.319
11/14/2014  19:42:00     -191.797       55.829      -35.142       84.994      125.932       54.724     7223.976    15858.747     2994.740        3.360        1.304      199.757       24.803        0.015      337.343        9.249      860.316
11/14/2014  19:43:00     -233.029       54.264      -45.434      129.708      114.248       69.146    16824.273    13052.497     4781.101        4.698        1.733      239.263       62.994        0.069      337.280        9.144      860.299
11/14/2014  19:44:00     -186.335       17.257      -38.613       91.111       99.316       57.730     8301.127     9863.599     3332.789        2.900        1.075      187.132       44.521        0.057      337.339        9.244      860.296
11/14/2014  19:45:00     -157.460      -68.654      -23.242      123.751      101.727       72.932    15314.398    10348.404     5319.114        3.051        1.549      171.776       56.041        0.106      337.292        9.167      860.304
11/14/2014  19:46:00     -202.118      -51.783      -31.848      113.941       62.756       49.004    12982.444     3938.325     2401.359        3.193        0.966      208.646       43.674        0.044      337.176        8.972      860.300
11/14/2014  19:47:00     -187.515       17.424      -47.792      140.607      147.461       63.879    19770.257    21744.785     4080.478        4.166        2.280      188.323       56.515        0.090      337.260        9.112      860.300
11/14/2014  19:48:00     -218.526       28.324      -22.770       73.453      135.363       53.704     5395.294    18323.134     2884.096        3.783        1.330      220.354       45.540        0.043      337.268        9.125      860.291
11/14/2014  19:49:00     -220.918      -42.349      -33.098       87.498       95.514       44.795     7655.816     9122.951     2006.631        3.524        0.939      224.941       37.335        0.028      337.286        9.156      860.314
11/14/2014  19:50:00     -269.114      -92.561      -23.766      124.763       99.629       60.374    15565.704     9925.888     3645.042        5.534        1.457      284.587       53.148        0.035      337.126        8.886      860.309
11/14/2014  19:51:00     -256.763      -75.841      -12.151      200.771      121.904       83.975    40309.194    14860.503     7051.754        6.701        3.111      267.729       87.997        0.108      337.121        8.879      860.301
11/14/2014  19:52:00     -320.738      -93.869      -10.583      189.996      127.265       77.034    36098.436    16196.311     5934.258        8.500        2.911      334.192       93.524        0.078      337.118        8.875      860.311
11/14/2014  19:53:00     -351.957     -106.496      -16.122      141.564      130.358       64.400    20040.418    16993.085     4147.326        8.832        2.059      367.717       44.914        0.015      337.143        8.915      860.330
11/14/2014  19:54:00     -399.847      -92.008      -33.119      174.633      104.519       68.857    30496.584    10924.317     4741.310       10.779        2.308      410.297       85.794        0.044      337.133        8.900      860.350
11/14/2014  19:55:00     -354.062      -68.937      -20.489      181.844      103.323       74.714    33067.202    10675.729     5582.138        8.992        2.466      360.711       71.643        0.039      337.201        9.012      860.346
11/14/2014  19:56:00     -424.224     -107.301      -19.992      155.060      115.758       70.500    24043.606    13399.852     4970.216       11.714        2.121      437.584       55.104        0.016      337.164        8.951      860.349
11/14/2014  19:57:00     -351.063      -44.784      -39.500      147.970      131.036       82.798    21895.081    17170.477     6855.451        8.636        2.296      353.908       64.948        0.034      337.244        9.085      860.337
11/14/2014  19:58:00     -398.786      -22.835      -55.229      143.793      107.523       68.844    20676.550    11561.220     4739.483        9.978        1.849      399.439       67.500        0.029      337.239        9.077      860.374
11/14/2014  19:59:00     -304.133      -57.407      -20.464      172.753      108.233       72.444    29843.710    11714.422     5248.142        7.150        2.340      309.504       80.483        0.068      337.145        8.919      860.383
11/14/2014  20:00:00     -221.408     -112.136       -8.538      168.441       82.266       68.987    28372.518     6767.650     4759.261        5.078        1.995      248.186       87.275        0.124      337.117        8.872      860.386
11/14/2014  20:01:00     -418.869     -116.088      -28.114      121.784      118.327       71.068    14831.420    14001.357     5050.614       11.179        1.694      434.658       64.679        0.022      337.106        8.852      860.376
11/14/2014  20:02:00     -408.153     -118.833      -36.197      181.152      107.073       58.731    32815.973    11464.571     3449.350       11.487        2.386      425.100       44.328        0.011      337.108        8.856      860.410
11/14/2014  20:03:00     -439.978      -71.028      -25.201      179.804      118.276       78.888    32329.573    13989.117     6223.370       12.589        2.627      445.674       82.942        0.035      337.193        8.998      860.456
11/14/2014  20:04:00     -307.338       -7.880      -29.387      170.198       96.533       53.984    28967.259     9318.705     2914.308        6.828        2.060      307.439       68.995        0.050      337.153        8.933      860.478
11/14/2014  20:05:00     -269.138      -79.576      -24.705       96.782      122.974       54.890     9366.719    15122.689     3012.930        5.343        1.375      280.656       45.728        0.027      337.278        9.140      860.473
11/14/2014  20:06:00     -246.657      -89.719      -13.882      117.988      130.888       61.509    13921.089    17131.629     3783.333        5.195        1.742      262.468       48.356        0.034      337.168        8.957      860.512
11/14/2014  20:07:00     -392.211      -35.046      -33.467      144.800      131.311       76.316    20967.095    17242.574     5824.175       10.010        2.202      393.773       74.408        0.036      337.186        8.986      860.503
11/14/2014  20:08:00     -340.154       -6.088      -37.513      184.803      114.332       61.519    34152.281    13071.802     3784.636        8.407        2.550      340.208       80.325        0.056      337.151        8.928      860.536
11/14/2014  20:09:00     -235.881      -54.310      -23.469      109.730       81.811       56.092    12040.583     6693.119     3146.335        4.051        1.094      242.052       47.011        0.038      337.170        8.960      860.557
11/14/2014  20:10:00     -186.706      -30.219      -25.486       85.858       77.521       58.138     7371.624     6009.519     3379.992        2.659        0.838      189.136       39.379        0.043      337.113        8.864      860.575
11/14/2014  20:11:00     -248.440      -50.465      -15.228      147.280      113.446       61.477    21691.296    12870.008     3779.440        5.141        1.917      253.514       62.870        0.062      337.205        9.020      860.586
11/14/2014  20:12:00     -336.037      -38.262      -34.680      153.488      140.745       61.734    23558.424    19809.072     3811.047        8.137        2.359      338.208       48.654        0.021      337.144        8.916      860.605
11/14/2014  20:13:00     -271.601      -65.267       -6.326      131.717      104.730       55.232    17349.338    10968.322     3050.625        5.471        1.568      279.333       43.130        0.024      337.111        8.862      860.623
11/14/2014  20:14:00     -149.049       -8.195       -5.502       74.684      107.045       55.187     5577.723    11458.635     3045.614        2.119        1.004      149.274       25.180        0.028      337.134        8.900      860.645
11/14/2014  20:15:00     -233.079      -44.695      -17.114      118.419      104.064       59.390    14023.023    10829.323     3527.212        4.249        1.419      237.326       62.688        0.070      337.116        8.869      860.660
11/14/2014  20:16:00     -295.114       64.597      -29.331      182.589      120.348       77.066    33338.566    14483.586     5939.213        7.293        2.688      302.101       91.068        0.091      337.209        9.025      860.678
11/14/2014  20:17:00     -228.700       41.094      -19.040      117.622      109.955       62.397    13834.906    12090.167     3893.440        4.208        1.491      232.363       61.347        0.070      337.190        8.995      860.692
11/14/2014  20:18:00     -379.933      -66.486      -31.571      154.239       85.460       61.826    23789.596     7303.351     3822.487        9.233        1.746      385.706       66.649        0.030      337.120        8.877      860.702
11/14/2014  20:19:00     -340.271     -102.204      -28.402      116.216      109.055       57.773    13506.216    11892.992     3337.677        7.788        1.437      355.288       60.984        0.029      337.104        8.849      860.709
11/14/2014  20:20:00     -169.471      -35.806        3.787      105.935      141.671       58.525    11222.132    20070.595     3425.151        3.236        1.736      173.212       57.731        0.111      337.105        8.851      860.738
11/14/2014  20:21:00     -167.780       38.925      -25.379       90.216       72.111       48.765     8138.848     5200.032     2378.025        2.301        0.786      172.236       48.514        0.079      337.236        9.072      860.759
11/14/2014  20:22:00     -144.733      114.669      -34.392      115.701       99.409       53.819    13386.715     9882.091     2896.442        3.072        1.308      184.652       50.628        0.075      337.153        8.931      860.782
11/14/2014  20:23:00     -217.093       62.540      -21.252      124.182       98.979       65.433    15421.105     9796.838     4281.443        4.049        1.475      225.922       68.975        0.093      337.248        9.091      860.777
11/14/2014  20:24:00     -181.098       29.781      -14.715       99.085       87.420       55.099     9817.800     7642.211     3035.942        2.719        1.025      183.530       33.442        0.033      337.164        8.951      860.782
11/14/2014  20:25:00     -156.769       82.605      -22.844      134.866       91.002       66.397    18188.729     8281.343     4408.545        3.139        1.544      177.200       77.768        0.193      337.130        8.895      860.797
11/14/2014  20:26:00     -217.216      115.904      -30.684      112.046      125.918       67.839    12554.282    15855.240     4602.115        4.728        1.651      246.204       58.316        0.056      337.149        8.926      860.804
11/14/2014  20:27:00     -132.371      -11.834       12.061      121.867       85.605       69.574    14851.540     7328.155     4840.488        2.241        1.351      132.899       65.931        0.246      337.129        8.893      860.789
11/14/2014  20:28:00     -157.904       65.590      -24.623      114.745       87.800       63.953    13166.408     7708.791     4090.001        2.740        1.248      170.984       64.062        0.140      337.159        8.943      860.803
11/14/2014  20:29:00     -169.091       83.802      -23.030       85.195       97.377       50.035     7258.171     9482.271     2503.548        2.769        0.962      188.718       46.302        0.060      337.232        9.065      860.812
11/14/2014  20:30:00     -256.433      155.295      -28.796      163.474      146.187       83.581    26723.799    21370.779     6985.760        7.288        2.754      299.791       85.814        0.082      337.168        8.958      860.818
11/14/2014  20:31:00     -205.474       12.585        0.476      131.617      127.868       59.848    17322.959    16350.154     3581.745        3.981        1.863      205.859       40.599        0.039      337.166        8.953      860.814
11/14/2014  20:32:00     -188.748       61.859      -23.254      123.723      101.733       71.729    15307.440    10349.565     5145.021        3.539        1.540      198.626       68.683        0.120      337.155        8.934      860.800
11/14/2014  20:33:00     -262.866      -41.217      -40.404       94.184       82.808       52.328     8870.644     6857.105     2738.261        4.544        0.923      266.078       46.206        0.030      337.125        8.885      860.815
11/14/2014  20:34:00     -257.457       40.259      -46.463       99.059      134.576       61.991     9812.755    18110.708     3842.840        5.091        1.588      260.586       37.185        0.020      337.095        8.834      860.845
11/14/2014  20:35:00     -204.071       16.290      -12.239      102.098      101.760       59.598    10423.996    10355.082     3551.927        3.319        1.217      204.720       58.809        0.083      337.054        8.765      860.857
11/14/2014  20:36:00     -147.108      109.611      -10.056       97.662      103.226       70.710     9537.837    10655.675     4999.914        2.947        1.260      183.454       66.108        0.130      337.105        8.850      860.827
11/14/2014  20:37:00     -241.301       77.955      -49.407      147.168      185.531       74.135    21658.354    34421.806     5495.986        6.415        3.079      253.581       95.655        0.142      337.115        8.869      860.825
11/14/2014  20:38:00     -173.473      -16.512      -21.554       99.479       93.060       56.318     9895.986     8660.083     3171.697        2.627        1.086      174.257       41.720        0.057      337.171        8.962      860.845
11/14/2014  20:39:00     -147.409       41.557        2.293      107.235       95.690       62.962    11499.320     9156.525     3964.161        2.404        1.231      153.155       55.076        0.129      337.113        8.865      860.865
11/14/2014  20:40:00     -162.700       74.437      -28.592       82.038       87.315       49.994     6730.255     7623.917     2499.360        2.484        0.843      178.919       42.391        0.056      337.179        8.976      860.878
11/14/2014  20:41:00     -159.591       28.988      -21.336       88.198      125.340       54.031     7778.821    15710.032     2919.393        2.658        1.320      162.202       26.781        0.027      337.115        8.869      860.866
11/14/2014  20:42:00     -220.781      164.017      -44.130      132.646      152.280       57.179    17595.094    23189.085     3269.415        6.081        2.203      275.038       65.454        0.057      337.114        8.866      860.866
11/14/2014  20:43:00     -218.999       62.986      -29.075      131.960      116.004       61.844    17413.337    13456.882     3824.662        4.373        1.735      227.876       71.026        0.097      337.163        8.949      860.890
11/14/2014  20:44:00     -192.726      104.880      -35.797       75.196       57.293       40.888     5654.396     3282.432     1671.868        3.001        0.530      219.415       33.119        0.023      337.082        8.812      860.921
11/14/2014  20:45:00     -168.599      111.957      -12.874       92.330      156.235       66.465     8524.805    24409.263     4417.615        3.923        1.868      202.386       48.755        0.058      337.101        8.845      860.934
11/14/2014  20:46:00     -217.195       38.830      -23.475      136.441      127.377       72.775    18616.151    16224.853     5296.190        4.468        2.007      220.639       59.057        0.072      337.141        8.911      860.911
11/14/2014  20:47:00     -173.513       53.372      -18.489       89.513      140.256       63.960     8012.506    19671.616     4090.861        3.253        1.589      181.536       52.215        0.083      337.160        8.943      860.918
11/14/2014  20:48:00     -178.042       66.470      -20.228      119.820       87.040       57.946    14356.918     7576.040     3357.725        3.090        1.265      190.045       55.050        0.084      337.164        8.950      860.931
11/14/2014  20:49:00     -250.451       57.296      -37.309      126.628       95.530       58.069    16034.599     9126.047     3372.022        4.796        1.427      256.922       57.894        0.051      337.166        8.954      860.947
11/14/2014  20:50:00     -296.457       55.722      -30.909      124.981      118.303       65.462    15620.196    13995.617     4285.265        6.292        1.695      301.649       66.057        0.048      337.130        8.893      860.954
11/14/2014  20:51:00     -322.524       18.466      -36.468      124.877      153.970       82.866    15594.149    23706.741     6866.698        7.592        2.308      323.052       60.983        0.036      337.114        8.866      860.923
11/14/2014  20:52:00     -160.383      -27.966      -17.295       82.505       93.342       52.411     6807.034     8712.768     2746.927        2.253        0.913      162.803       46.881        0.083      337.080        8.812      860.918
11/14/2014  20:53:00     -280.959      -80.107      -21.678      156.782      127.037       59.572    24580.588    16138.482     3548.851        6.504        2.213      292.156       64.987        0.049      336.975        8.634      860.920
11/14/2014  20:54:00     -395.272      -84.870      -26.417      129.848      112.810       72.493    16860.381    12726.033     5255.241        9.948        1.742      404.281       61.819        0.023      336.952        8.597      860.900
11/14/2014  20:55:00     -421.319      -71.527      -34.957      109.681      141.698       61.241    12030.030    20078.366     3750.454       10.985        1.793      427.347       57.293        0.018      336.983        8.647      860.895
11/14/2014  20:56:00     -458.427       22.204      -44.526      161.639      142.138       72.405    26127.322    20203.279     5242.431       13.209        2.579      458.965       79.947        0.030      337.069        8.790      860.894
11/14/2014  20:57:00     -398.298     -109.543      -21.778      133.813      136.390       71.584    17905.953    18602.261     5124.240       10.637        2.082      413.087       62.141        0.023      336.973        8.630      860.890
11/14/2014  20:58:00     -512.237     -130.132      -48.959      227.325      156.395       91.451    51676.683    24459.397     8363.289       18.309        4.225      528.508      105.914        0.040      337.009        8.691      860.880
11/14/2014  20:59:00     -346.284     -129.543      -16.750      156.185      146.339       74.836    24393.833    21415.077     5600.405        9.418        2.570      369.721       71.385        0.037      337.051        8.759      860.887
11/14/2014  21:00:00     -551.234     -119.938      -45.412      167.426      169.670       80.567    28031.469    28787.892     6490.993       19.180        3.166      564.131       86.798        0.024      337.056        8.770      860.912
11/14/2014  21:01:00     -457.922      -79.746      -26.723      164.146      175.068       93.775    26943.752    30648.965     8793.679       14.156        3.319      464.814       86.658        0.035      337.026        8.718      860.922
11/14/2014  21:02:00     -424.542     -134.288      -17.459      160.793      136.355       73.650    25854.280    18592.729     5424.302       12.421        2.494      445.274       47.370        0.011      337.022        8.712      860.927
11/14/2014  21:03:00     -434.030      -78.724      -22.117      147.328      110.557       82.696    21705.652    12222.858     6838.679       11.791        2.038      441.112       79.165        0.032      337.003        8.679      860.962
11/14/2014  21:04:00     -415.012     -146.067      -31.529      149.682      126.824       76.159    22404.630    16084.419     5800.207       11.942        2.214      439.966       80.164        0.033      336.990        8.659      860.954
11/14/2014  21:05:00     -381.732     -150.521      -21.505      189.829      143.656       98.455    36035.086    20637.143     9693.334       11.759        3.318      410.336      100.872        0.060      336.953        8.596      860.983
11/14/2014  21:06:00     -323.692     -112.297      -16.524      188.020      121.881       74.807    35351.642    14855.058     5596.157        8.672        2.790      342.618       83.940        0.060      336.996        8.667      860.996
11/14/2014  21:07:00     -361.820     -148.928      -23.008      160.170      127.282       78.475    25654.550    16200.758     6158.373       10.081        2.401      391.272       78.827        0.041      336.972        8.629      861.032
11/14/2014  21:08:00     -307.258      -98.908       -6.227      155.947      124.342       71.367    24319.437    15460.870     5093.237        7.454        2.244      322.785       66.747        0.043      336.956        8.602      861.050
11/14/2014  21:09:00     -434.210     -127.672      -23.924      168.842      146.274       79.287    28507.668    21396.057     6286.368       13.079        2.810      452.591       81.134        0.032      336.988        8.654      861.061
11/14/2014  21:10:00     -373.404     -109.698      -44.745      145.227      126.388       67.307    21090.783    15974.041     4530.253        9.752        2.080      389.184       69.795        0.032      336.977        8.638      861.082
11/14/2014  21:11:00     -338.179      -65.438      -30.258      136.972      100.964       66.418    18761.369    10193.713     4411.318        7.646        1.668      344.452       66.816        0.038      336.931        8.560      861.082
11/14/2014  21:12:00     -285.315      -55.438      -25.595      147.358      132.249       77.009    21714.237    17489.929     5930.411        6.513        2.257      290.652       67.725        0.054      336.930        8.560      861.081
11/14/2014  21:13:00     -376.536      -40.238      -24.917      175.445      137.258       77.065    30780.940    18839.830     5939.040        9.978        2.778      378.680       89.364        0.056      336.939        8.572      861.107
11/14/2014  21:14:00     -493.646      -84.258      -42.236      124.214      164.820       74.901    15429.075    27165.478     5610.153       15.038        2.410      500.785       48.362        0.009      336.961        8.610      861.105
11/14/2014  21:15:00     -414.857     -102.290      -32.704      175.362      174.454       82.404    30751.969    30434.359     6790.464       12.579        3.399      427.281       86.786        0.041      336.979        8.639      861.107
11/14/2014  21:16:00     -457.944      -26.269      -32.623      260.482      178.398       89.035    67850.649    31825.990     7927.283       15.951        5.380      458.696       95.808        0.044      337.004        8.683      861.083
11/14/2014  21:17:00     -424.216      -63.113      -35.218      155.830      131.669       86.167    24282.869    17336.823     7424.683       11.710        2.452      428.885       85.630        0.040      337.028        8.721      861.106
11/14/2014  21:18:00     -331.742      -43.302      -21.068      200.091      140.690       77.491    40036.308    19793.612     6004.785        8.909        3.292      334.556       95.641        0.082      336.974        8.631      861.133
11/14/2014  21:19:00     -395.011        1.969      -21.450      139.418      147.979       68.898    19437.447    21897.827     4746.961       10.128        2.304      395.016       67.389        0.029      336.978        8.639      861.134
11/14/2014  21:20:00     -327.408      -55.832      -21.616      130.752      133.069       77.687    17096.190    17707.408     6035.213        7.580        2.042      332.135       78.564        0.056      336.955        8.600      861.136
11/14/2014  21:21:00     -232.422     -106.044      -17.189      165.646       97.334       73.258    27438.508     9473.902     5366.786        5.391        2.114      255.471       68.179        0.071      336.937        8.570      861.136
11/14/2014  21:22:00     -390.809      -80.318      -19.424      206.495      160.022       84.262    42640.283    25607.131     7100.065       11.744        3.767      398.977      103.988        0.068      336.953        8.597      861.175
11/14/2014  21:23:00     -451.354     -117.060      -16.853      219.156      141.858       80.673    48029.406    20123.625     6508.194       14.617        3.733      466.287       91.331        0.038      336.939        8.573      861.188
11/14/2014  21:24:00     -477.384     -132.795      -39.286      153.085      111.169       68.843    23435.077    12358.436     4739.309       14.379        2.027      495.510       67.501        0.019      336.949        8.590      861.208
11/14/2014  21:25:00     -425.661     -115.611      -30.693      166.665      119.552       88.307    27777.133    14292.645     7798.193       12.267        2.493      441.082       76.102        0.030      336.960        8.606      861.226
11/14/2014  21:26:00     -347.302      -97.891      -25.595      160.163      138.334       74.043    25652.325    19136.328     5482.318        9.055        2.514      360.834       76.458        0.045      336.976        8.635      861.240
11/14/2014  21:27:00     -458.134     -121.419      -19.290      195.322      124.813       76.924    38150.492    15578.164     5917.326       14.231        2.982      473.951       96.269        0.041      336.964        8.614      861.272
11/14/2014  21:28:00     -513.931      -22.965      -34.221      133.805      126.214       81.358    17903.767    15929.888     6619.094       15.313        2.023      514.444       75.010        0.021      336.932        8.563      861.301
11/14/2014  21:29:00     -400.173        5.307      -27.550      181.606      182.883       77.430    32980.667    33446.206     5995.423       11.666        3.621      400.208       79.448        0.039      336.920        8.542      861.305
11/14/2014  21:30:00     -505.178      -55.827      -65.590      169.683      164.432       62.781    28792.423    27037.847     3941.422       16.119        2.989      508.254       54.951        0.012      336.968        8.621      861.300
11/14/2014  21:31:00     -511.713      -94.237      -43.369      155.179      120.006       75.799    24080.489    14401.343     5745.441       15.841        2.211      520.318       77.467        0.022      336.913        8.530      861.315
11/14/2014  21:32:00     -603.874      -28.860      -42.864      160.865      140.061       87.834    25877.440    19617.208     7714.733       21.026        2.660      604.563       80.069        0.018      336.916        8.535      861.299
11/14/2014  21:33:00     -507.474      -84.817      -37.428      167.727      181.892       89.120    28132.187    33084.751     7942.380       16.763        3.458      514.513       82.885        0.026      336.923        8.545      861.281
11/14/2014  21:34:00     -394.918     -137.030       -5.917      209.343      155.800       95.362    43824.693    24273.705     9093.848       12.597        3.860      418.016       96.815        0.054      336.936        8.569      861.245
11/14/2014  21:35:00     -477.045     -139.463       -8.991      286.829      196.134      109.697    82271.097    38468.619    12033.348       18.991        6.639      497.013      121.991        0.060      336.953        8.598      861.224
11/14/2014  21:36:00     -428.365      -81.338      -22.184      185.206      152.092       86.099    34301.082    23132.075     7413.047       12.771        3.242      436.019       92.972        0.045      336.941        8.577      861.235
11/14/2014  21:37:00     -544.068     -132.818      -27.794      201.396      181.741      105.481    40560.514    33029.907    11126.267       19.955        4.236      560.045      112.807        0.041      336.946        8.583      861.218
11/14/2014  21:38:00     -433.800      -62.697      -17.211      230.008      182.562      100.045    52903.578    33328.990    10008.931       14.431        4.812      438.307      107.931        0.061      336.960        8.609      861.217
11/14/2014  21:39:00     -642.273     -104.782      -39.648      237.919      168.018       97.624    56605.363    28230.005     9530.530       25.970        4.718      650.764      104.958        0.026      336.976        8.635      861.201
11/14/2014  21:40:00     -461.755     -116.587      -15.782      221.742      153.944       96.927    49169.431    23698.875     9394.877       15.464        4.113      476.246      114.658        0.058      336.998        8.672      861.215
11/14/2014  21:41:00     -364.531      -48.211      -30.611      173.359      153.239       85.663    30053.469    23482.080     7338.174        9.850        3.044      367.705       76.999        0.044      336.972        8.627      861.190
11/14/2014  21:42:00     -563.505     -132.176      -35.060      201.983      177.587       99.655    40797.020    31537.286     9931.084       20.923        4.113      578.799      103.992        0.032      336.966        8.619      861.201
11/14/2014  21:43:00     -272.833      -62.515      -20.464      166.227      117.275       73.779    27631.311    13753.474     5443.303        6.279        2.341      279.904       77.510        0.077      336.949        8.590      861.220
11/14/2014  21:44:00     -496.076     -101.026      -31.249      196.776      148.331       92.358    38720.807    22002.163     8530.043       16.325        3.463      506.258       93.119        0.034      336.957        8.604      861.245
11/14/2014  21:45:00     -408.480      -38.975      -16.531      185.435      192.153       82.279    34386.154    36922.714     6769.859       12.335        3.904      410.335       68.517        0.028      336.962        8.610      861.257
11/14/2014  21:46:00     -476.704     -120.407      -12.689      161.182      156.672       85.072    25979.533    24546.069     7237.322       14.982        2.888      491.675       90.457        0.034      336.978        8.639      861.286
11/14/2014  21:47:00     -671.374      -95.435      -45.708      159.436      145.412       79.296    25419.961    21144.548     6287.833       25.739        2.643      678.123       77.994        0.013      337.000        8.675      861.306
11/14/2014  21:48:00     -424.100     -148.265      -21.303      171.837      126.443       84.311    29527.817    15987.804     7108.265       12.745        2.631      449.270       74.673        0.028      336.994        8.664      861.283
11/14/2014  21:49:00     -563.426      -31.367      -44.790      196.416      170.305       85.173    38579.392    29003.748     7254.476       19.762        3.742      564.298       80.266        0.020      337.035        8.733      861.299
11/14/2014  21:50:00     -452.733      -86.342      -21.932      160.289      130.066       78.323    25692.666    16917.215     6134.461       13.081        2.437      460.892       85.772        0.035      337.007        8.686      861.294
11/14/2014  21:51:00     -401.496     -116.400      -27.062      123.186      113.239       66.262    15174.757    12823.017     4390.610       10.393        1.619      418.029       65.660        0.025      336.990        8.657      861.303
11/14/2014  21:52:00     -336.184      -76.187       -5.254      209.540      144.142       96.944    43907.165    20776.810     9398.067        9.645        3.704      344.709      110.915        0.104      336.956        8.600      861.318
11/14/2014  21:53:00     -439.032     -129.222      -15.778      193.594      157.691       74.161    37478.699    24866.313     5499.874       13.876        3.392      457.654       81.631        0.032      336.999        8.673      861.311
11/14/2014  21:54:00     -454.384       19.014      -20.370      246.219      149.590       84.648    60623.973    22377.195     7165.224       14.869        4.508      454.782      108.633        0.057      337.041        8.744      861.326
11/14/2014  21:55:00     -443.796     -123.222       -6.381      185.854      132.763       87.968    34541.687    17626.018     7738.345       13.603        2.995      460.585       95.113        0.043      337.044        8.748      861.319
11/14/2014  21:56:00     -307.949      -97.628        2.706      178.288      141.021       81.328    31786.695    19886.936     6614.317        8.132        2.914      323.054       93.209        0.083      337.007        8.687      861.358
11/14/2014  21:57:00     -316.243      -95.750      -23.795      111.726      118.666       61.826    12482.598    14081.547     3822.456        7.006        1.519      330.420       51.478        0.024      337.024        8.716      861.354
11/14/2014  21:58:00     -422.750      -82.693      -14.682      144.937      111.176       67.243    21006.856    12360.174     4521.562       11.182        1.894      430.762       69.606        0.026      337.004        8.681      861.359
11/14/2014  21:59:00     -277.739      -69.432      -10.057      178.473      123.068       73.386    31852.776    15145.753     5385.513        6.721        2.619      286.286       84.429        0.087      336.975        8.633      861.378
11/14/2014  22:00:00     -243.949       11.886      -14.700      139.424      122.383       63.788    19438.994    14977.640     4068.920        4.917        1.924      244.239       64.465        0.070      336.952        8.595      861.400
11/14/2014  22:01:00     -152.244      -40.804        2.285      119.478      102.352       62.389    14274.882    10475.953     3892.445        2.674        1.432      157.618       52.691        0.112      336.904        8.515      861.408
11/14/2014  22:02:00     -259.505      -42.064      -11.960      112.009      104.352       63.621    12545.992    10889.300     4047.667        4.836        1.374      262.892       63.487        0.058      336.880        8.475      861.427
11/14/2014  22:03:00     -329.842       15.871      -26.973      118.834      129.519       55.636    14121.569    16775.188     3095.357        7.188        1.700      330.224       38.994        0.014      336.885        8.484      861.455
11/14/2014  22:04:00     -327.424      -64.042      -27.604       96.878      143.173       57.209     9385.310    20498.506     3272.849        7.261        1.658      333.628       58.300        0.031      336.883        8.479      861.479
11/14/2014  22:05:00     -250.615      -21.443      -10.931      138.263      129.278       55.071    19116.567    16712.894     3032.844        5.112        1.943      251.530       59.954        0.057      336.852        8.428      861.489
11/14/2014  22:06:00     -352.952     -123.900      -17.241      147.999       89.718       56.452    21903.606     8049.230     3186.819        8.667        1.657      374.067       50.145        0.018      336.822        8.378      861.480
11/14/2014  22:07:00     -255.970      -34.114      -14.252      153.778       92.840       58.896    23647.556     8619.319     3468.731        5.130        1.787      258.233       68.869        0.071      336.770        8.292      861.480
11/14/2014  22:08:00     -200.242      -29.761        5.423      120.881       95.286       53.180    14612.286     9079.338     2828.084        3.376        1.326      202.441       45.840        0.051      336.735        8.236      861.476
11/14/2014  22:09:00     -249.885        8.914      -29.883       90.317       61.134       37.167     8157.133     3737.412     1381.354        3.834        0.664      250.044       28.793        0.013      336.747        8.252      861.485
11/14/2014  22:10:00     -235.118      -76.767       -4.624      127.210       82.786       48.890    16182.395     6853.535     2390.270        4.331        1.271      247.333       58.025        0.055      336.714        8.199      861.487
11/14/2014  22:11:00     -192.530      -36.460       -8.943      101.785       94.100       52.823    10360.240     8854.902     2790.307        3.024        1.100      195.951       57.471        0.086      336.691        8.161      861.497
11/14/2014  22:12:00     -181.975      -37.994       -0.846      113.840       68.161       44.584    12959.513     4645.940     1987.776        2.707        0.980      185.898       53.930        0.084      336.649        8.091      861.497
11/14/2014  22:13:00      -98.290        6.301       -7.741      132.168       43.723       40.328    17468.472     1911.736     1626.346        1.538        1.050       98.492       61.040        0.384      336.654        8.102      861.503
11/14/2014  22:14:00     -128.765       52.101       -8.860       73.747       72.365       41.526     5438.617     5236.677     1724.428        1.588        0.620      138.906       35.716        0.066      336.689        8.160      861.488
11/14/2014  22:15:00      -87.468        8.630      -33.032       86.261       88.137       42.379     7440.944     7768.141     1796.001        1.291        0.850       87.893       39.960        0.207      336.677        8.139      861.489
11/14/2014  22:16:00      -80.205       -8.311        8.630       79.855       85.237       47.365     6376.819     7265.310     2243.462        1.123        0.794       80.634       46.120        0.327      336.651        8.096      861.471
11/14/2014  22:17:00      -39.251       54.492        7.886       53.386       47.166       36.510     2850.090     2224.623     1332.976        0.549        0.320       67.157       25.684        0.146      336.643        8.084      861.431
11/14/2014  22:18:00     -132.262      106.557      -17.452       77.232       68.706       40.329     5964.713     4720.526     1626.430        2.073        0.616      169.846       33.659        0.039      336.649        8.092      861.429
11/14/2014  22:19:00     -127.593       61.790      -19.024       79.311       88.406       35.966     6290.190     7815.699     1293.545        1.793        0.770      141.768       23.141        0.027      336.667        8.122      861.426
11/14/2014  22:20:00       -9.692       69.234       -6.402       39.767       63.031       27.262     1581.398     3972.931      743.210        0.561        0.315       69.910       31.787        0.207      336.697        8.173      861.438
11/14/2014  22:21:00      -16.229      153.169      -11.175       54.272       88.818       40.340     2945.416     7888.657     1627.338        1.815        0.623      154.026       37.837        0.060      336.675        8.136      861.442
11/14/2014  22:22:00      -35.523      171.828      -11.648       53.282       85.315       44.585     2838.960     7278.616     1987.837        2.151        0.605      175.461       39.319        0.050      336.663        8.117      861.437
11/14/2014  22:23:00      -60.586      150.806        0.217       46.718       70.165       48.090     2182.530     4923.164     2312.621        1.791        0.471      162.521       42.673        0.069      336.674        8.133      861.436
11/14/2014  22:24:00      -61.412      190.160      -23.129       53.088       45.802       27.222     2818.309     2097.792      741.056        2.306        0.283      199.830       24.026        0.014      336.755        8.270      861.441
11/14/2014  22:25:00      -62.647      162.485      -17.060       44.213       53.160       28.220     1954.830     2825.958      796.343        1.810        0.279      174.144       17.335        0.010      336.688        8.158      861.425
11/14/2014  22:26:00      -27.296      248.053      -24.959       51.654       65.349       41.300     2668.111     4270.553     1705.696        3.577        0.432      249.550       37.037        0.022      336.477        7.803      861.419
11/14/2014  22:27:00      -32.709      246.522      -33.257       48.537       58.213       35.728     2355.878     3388.797     1276.468        3.498        0.351      248.682       34.013        0.019      336.462        7.776      861.423
11/14/2014  22:28:00     -116.848      179.175      -31.728       55.660       59.097       37.854     3098.026     3492.413     1432.891        2.739        0.401      213.909       37.240        0.030      336.454        7.763      861.428
11/14/2014  22:29:00      -66.030      105.789      -21.781       63.649       53.431       30.394     4051.244     2854.921      923.818        1.193        0.391      124.705       26.556        0.045      336.391        7.661      861.434
11/14/2014  22:30:00      -82.902      173.580      -20.311       61.588       80.148       46.462     3793.041     6423.719     2158.721        2.489        0.619      192.361       48.460        0.063      336.327        7.552      861.448
11/14/2014  22:31:00      -52.622      113.639       -6.434       47.520      105.101       36.607     2258.149    11046.288     1340.087        1.518        0.732      125.231       40.547        0.105      336.385        7.650      861.438
11/14/2014  22:32:00      -60.879      100.834      -11.063       47.582       81.310       34.160     2264.036     6611.324     1166.915        1.202        0.502      117.787       35.589        0.091      336.388        7.654      861.436
11/14/2014  22:33:00      -56.484      123.518       -7.888       66.909       69.721       46.816     4476.786     4860.974     2191.746        1.502        0.576      135.820       44.265        0.106      336.363        7.613      861.438
11/14/2014  22:34:00      -59.609       64.980       -8.468       47.043       72.445       28.369     2213.085     5248.227      804.793        0.806        0.413       88.180       33.982        0.149      336.318        7.539      861.424
11/14/2014  22:35:00      -50.616       66.992       -0.140       50.076       82.351       34.200     2507.591     6781.682     1169.655        0.875        0.523       83.964       38.799        0.214      336.338        7.573      861.412
11/14/2014  22:36:00      -49.067      152.252      -18.564       51.119       61.955       32.358     2613.183     3838.469     1047.061        1.671        0.375      159.963       30.952        0.037      336.288        7.489      861.407
11/14/2014  22:37:00       -1.458      231.100      -40.958       42.161       45.546       33.685     1777.576     2074.470     1134.655        3.004        0.249      231.104       24.847        0.012      336.171        7.291      861.408
11/14/2014  22:38:00       -2.730      188.466      -14.159       63.254      129.011       55.167     4001.025    16643.841     3043.451        2.970        1.184      188.485       69.992        0.138      336.078        7.136      861.411
11/14/2014  22:39:00       29.462      163.819      -17.880       60.410       93.724       49.925     3649.427     8784.096     2492.458        2.147        0.746      166.447       53.743        0.104      336.001        7.007      861.405
11/14/2014  22:40:00       27.848      137.549      -16.563       47.426       66.250       36.830     2249.242     4389.068     1356.412        1.398        0.400      140.340       33.429        0.057      335.995        6.998      861.394
11/14/2014  22:41:00       36.377      111.996       -9.339       52.897       60.991       36.540     2798.128     3719.921     1335.205        1.090        0.393      117.755       34.806        0.087      335.986        6.984      861.372
11/14/2014  22:42:00       -1.243      234.272      -23.297       80.809       99.056       51.864     6530.156     9811.996     2689.923        3.723        0.952      234.276       51.988        0.049      335.998        7.004      861.370
11/14/2014  22:43:00       60.826      152.369        8.372       75.801      105.232       74.768     5745.722    11073.761     5590.327        2.469        1.120      164.062       66.793        0.166      335.983        6.979      861.354
11/14/2014  22:44:00       23.309      297.698      -41.334       80.906      114.159       57.750     6545.827    13032.204     3335.037        5.689        1.146      298.609       63.385        0.045      336.023        7.044      861.370
11/14/2014  22:45:00       12.233      238.451      -30.845       63.862       77.260       54.493     4078.377     5969.141     2969.469        3.549        0.651      238.765       47.872        0.040      336.033        7.060      861.388
11/14/2014  22:46:00        7.733      213.496       -8.150       87.753      104.478       57.404     7700.640    10915.599     3295.170        3.380        1.096      213.636       62.702        0.086      335.991        6.991      861.379
11/14/2014  22:47:00      -34.339      221.396      -19.163       61.272       82.123       49.365     3754.272     6744.266     2436.869        3.175        0.647      224.043       45.001        0.040      336.009        7.020      861.401
11/14/2014  22:48:00      -14.691      308.899      -46.000       61.342       89.639       38.396     3762.789     8035.100     1474.288        5.551        0.664      309.248       45.698        0.022      335.983        6.976      861.399
11/14/2014  22:49:00      -20.425      283.552      -32.370       75.745       89.893       48.228     5737.246     8080.822     2325.904        4.900        0.807      284.287       49.698        0.031      335.973        6.958      861.394
11/14/2014  22:50:00      -43.311      308.816      -36.088       93.647       80.159       46.730     8769.669     6425.516     2183.720        5.796        0.869      311.838       44.680        0.021      335.962        6.941      861.405
11/14/2014  22:51:00      -56.859      233.667      -25.220       57.987       97.917       43.290     3362.449     9587.758     1874.063        3.664        0.741      240.485       46.872        0.038      335.987        6.982      861.413
11/14/2014  22:52:00      -75.238      349.787      -46.270       70.085       97.601       32.028     4911.961     9526.019     1025.791        7.281        0.773      357.787       28.951        0.007      335.935        6.896      861.414
11/14/2014  22:53:00      -61.768      263.476      -40.064       47.540       77.433       32.634     2260.085     5995.884     1064.980        4.208        0.466      270.619       28.829        0.011      335.907        6.849      861.432
11/14/2014  22:54:00      -41.837      249.668      -35.202       52.167       63.630       30.164     2721.345     4048.785      909.864        3.650        0.384      253.149       32.037        0.016      335.890        6.822      861.460
11/14/2014  22:55:00      -48.826      254.401      -33.875       49.394       73.195       30.441     2439.727     5357.558      926.634        3.849        0.436      259.044       30.172        0.014      335.885        6.814      861.470
11/14/2014  22:56:00      -67.771      229.266      -33.148       64.302      100.973       37.452     4134.775    10195.555     1402.655        3.699        0.787      239.073       41.829        0.031      335.895        6.830      861.484
11/14/2014  22:57:00      -33.711      234.588      -37.616       46.087       96.076       36.977     2124.054     9230.530     1367.327        3.515        0.636      236.998       38.869        0.027      335.885        6.813      861.494
11/14/2014  22:58:00      -46.667      237.509      -27.498       73.482       85.523       50.148     5399.653     7314.154     2514.831        3.728        0.761      242.050       48.482        0.040      335.783        6.643      861.497
11/14/2014  22:59:00      -97.560      223.695      -23.240       60.906       90.740       36.119     3709.587     8233.776     1304.580        3.667        0.662      244.044       28.542        0.014      335.760        6.606      861.495
11/14/2014  23:00:00      -58.478      228.789      -23.032       68.802      135.817       46.792     4733.702    18446.292     2189.496        4.083        1.268      236.144       57.414        0.059      335.790        6.657      861.492
11/14/2014  23:01:00     -110.743      291.716      -36.736       61.918       98.991       41.614     3833.788     9799.271     1731.686        5.704        0.768      312.030       35.853        0.013      335.751        6.590      861.487
11/14/2014  23:02:00     -109.789      314.388      -40.869       65.913      105.135       48.058     4344.481    11053.306     2309.534        6.513        0.885      333.007       49.319        0.022      335.706        6.514      861.482
11/14/2014  23:03:00      -96.151      251.663      -23.729       78.759       99.115       65.036     6202.956     9823.733     4229.718        4.670        1.013      269.405       55.459        0.042      335.703        6.511      861.484
11/14/2014  23:04:00      -86.674      263.684      -17.650       57.861      164.588       45.732     3347.838    27089.200     2091.385        5.493        1.626      277.563       51.047        0.034      335.705        6.515      861.493
11/14/2014  23:05:00     -100.884      239.821      -33.440       60.852       97.016       43.703     3703.005     9412.128     1909.984        4.191        0.751      260.176       34.924        0.018      335.749        6.587      861.486
11/14/2014  23:06:00     -105.146      233.882      -26.962       76.201       93.994       48.826     5806.621     8834.924     2383.966        4.175        0.851      256.431       49.218        0.037      335.723        6.543      861.484
11/14/2014  23:07:00     -125.255      245.964      -32.361       72.997       84.883       52.883     5328.512     7205.099     2796.564        4.628        0.767      276.020       47.293        0.029      335.696        6.498      861.498
11/14/2014  23:08:00     -106.959      282.643      -32.674       82.044      104.948       49.780     6731.293    11014.068     2478.052        5.630        1.011      302.204       46.966        0.024      335.668        6.451      861.508
11/14/2014  23:09:00      -75.006      313.206      -23.412      101.116      110.328       60.965    10224.543    12172.278     3716.760        6.519        1.306      322.062       59.118        0.034      335.649        6.420      861.506
11/14/2014  23:10:00      -84.986      316.818      -29.985       68.034       87.998       52.639     4628.571     7743.695     2770.884        6.182        0.757      328.019       42.368        0.017      335.614        6.361      861.498
11/14/2014  23:11:00     -121.337      314.135      -36.814       82.945       97.690       48.474     6879.876     9543.248     2349.725        6.676        0.939      336.754       50.264        0.022      335.614        6.363      861.485
11/14/2014  23:12:00     -130.920      305.570      -37.524       82.668       98.113       49.663     6833.956     9626.182     2466.378        6.542        0.946      332.436       47.562        0.020      335.629        6.388      861.489
11/14/2014  23:13:00     -106.647      236.982      -34.481       73.661      118.215       54.140     5425.874    13974.844     2931.091        4.552        1.117      259.873       54.710        0.044      335.649        6.418      861.503
11/14/2014  23:14:00     -132.348      322.814      -33.838       70.460       95.897       45.695     4964.577     9196.213     2088.017        6.956        0.812      348.891       46.056        0.017      335.664        6.444      861.498
11/14/2014  23:15:00      -98.745      221.566      -25.628       59.236       97.833       43.024     3508.953     9571.300     1851.092        3.721        0.747      242.574       35.887        0.022      335.684        6.479      861.489
11/14/2014  23:16:00     -119.676      116.710      -15.492       83.273       77.624       44.125     6934.460     6025.560     1946.981        2.154        0.745      167.163       45.701        0.075      335.753        6.594      861.522
11/14/2014  23:17:00      -97.900      257.816      -37.515       67.708      122.387       46.224     4584.353    14978.584     2136.621        4.958        1.085      275.778       47.603        0.030      335.813        6.694      861.516
11/14/2014  23:18:00     -137.037      200.019      -39.474       72.920       83.858       46.718     5317.377     7032.171     2182.613        3.744        0.727      242.460       40.782        0.028      335.804        6.678      861.499
11/14/2014  23:19:00     -144.477      212.567      -36.200       69.195       60.030       45.889     4787.921     3603.611     2105.761        3.893        0.525      257.018       41.590        0.026      335.804        6.677      861.511
11/14/2014  23:20:00     -129.944      175.566      -30.470       86.026       66.358       42.091     7400.410     4403.350     1771.666        3.110        0.679      218.423       39.972        0.033      335.833        6.727      861.501
11/14/2014  23:21:00     -142.494      118.752      -33.007       52.954       70.011       35.904     2804.175     4901.520     1289.074        2.224        0.450      185.490       34.634        0.035      335.888        6.820      861.501
11/14/2014  23:22:00     -144.263      133.453      -36.304       56.364       56.116       41.660     3176.897     3149.008     1735.578        2.400        0.403      196.524       34.588        0.031      335.935        6.897      861.492
11/14/2014  23:23:00     -111.941      129.096      -21.915       51.648       57.499       43.294     2667.512     3306.146     1874.411        1.876        0.392      170.870       33.501        0.038      335.963        6.946      861.484
11/14/2014  23:24:00     -146.951       74.675      -23.254       63.728      124.415       40.643     4061.312    15479.215     1651.875        2.445        1.060      164.836       32.314        0.038      336.057        7.101      861.473
11/14/2014  23:25:00     -129.974       92.384      -22.816       59.705      110.786       46.010     3564.670    12273.617     2116.945        2.195        0.898      159.461       49.061        0.095      336.078        7.136      861.454
11/14/2014  23:26:00     -112.558      181.616      -17.777       74.950      112.282       49.949     5617.444    12607.209     2494.901        3.334        1.036      213.667       50.555        0.056      336.128        7.219      861.430
11/14/2014  23:27:00     -130.948      190.282      -30.829       56.279       89.532       48.445     3167.330     8016.050     2346.918        3.391        0.677      230.986       40.305        0.030      336.120        7.206      861.429
11/14/2014  23:28:00     -131.961      134.112      -19.497       87.751       68.549       44.326     7700.157     4699.000     1964.823        2.507        0.718      188.149       47.644        0.064      336.156        7.266      861.413
11/14/2014  23:29:00     -138.793      101.839      -29.469       59.088       65.822       40.152     3491.353     4332.561     1612.162        1.997        0.472      172.148       39.271        0.052      336.194        7.329      861.400
11/14/2014  23:30:00     -183.188      170.418      -23.385      103.578       80.435       57.479    10728.336     6469.859     3303.892        4.182        1.025      250.200       60.959        0.059      336.171        7.290      861.382
11/14/2014  23:31:00     -146.229      143.695      -37.822       60.518       62.636       41.529     3662.389     3923.325     1724.632        2.638        0.466      205.015       32.583        0.025      336.184        7.313      861.375
11/14/2014  23:32:00     -153.982      147.646      -23.451       98.530      111.937       51.245     9708.085    12529.858     2626.046        3.546        1.243      213.331       60.265        0.080      336.149        7.255      861.368
11/14/2014  23:33:00     -116.022      139.366      -21.544       77.612       96.338       46.799     6023.669     9281.002     2190.147        2.542        0.875      181.339       54.913        0.092      336.163        7.280      861.368
11/14/2014  23:34:00     -137.548       -1.829      -28.316       83.474       60.562       44.581     6967.924     3667.739     1987.464        1.617        0.631      137.560       29.115        0.045      336.169        7.289      861.362
11/14/2014  23:35:00     -253.038       90.024      -36.881      104.295       97.905       47.415    10877.426     9585.336     2248.212        4.810        1.136      268.575       40.554        0.023      336.184        7.312      861.368
11/14/2014  23:36:00     -242.375      118.052      -44.225      117.351      106.391       54.767    13771.241    11318.959     2999.395        5.136        1.404      269.596       51.025        0.036      336.210        7.356      861.386
11/14/2014  23:37:00     -100.409        7.760      -19.825       59.218       65.263       37.389     3506.719     4259.260     1397.952        0.985        0.458      100.708       23.801        0.056      336.193        7.330      861.392
11/14/2014  23:38:00      -76.497       11.064        0.929       54.560       77.600       46.194     2976.777     6021.733     2133.929        0.855        0.557       77.293       37.203        0.232      336.171        7.294      861.396
11/14/2014  23:39:00     -148.917       60.080      -25.055       88.270       76.671       53.574     7791.593     5878.392     2870.210        2.147        0.827      160.580       58.174        0.131      336.172        7.295      861.409
11/14/2014  23:40:00     -169.678       70.617      -26.512      121.044       58.379       66.912    14651.569     3408.162     4477.216        2.850        1.127      183.787       64.457        0.123      336.190        7.322      861.405
11/14/2014  23:41:00      -93.690       39.875       -7.553       93.034       93.765       57.723     8655.405     8791.922     3331.996        1.560        1.039      101.822       65.932        0.419      336.175        7.298      861.408
11/14/2014  23:42:00      -16.312       29.355       -0.891       50.055      106.705       52.249     2505.488    11385.995     2729.928        0.887        0.831       33.583       43.528        1.680      336.178        7.305      861.441
11/14/2014  23:43:00      -75.308      -15.293        4.268       75.057       68.544       30.329     5633.563     4698.232      919.820        0.859        0.563       76.845       34.170        0.198      336.133        7.229      861.476
11/14/2014  23:44:00     -104.580      -67.739        7.517       83.569       52.849       31.107     6983.819     2793.010      967.624        1.316        0.537      124.601       31.545        0.064      336.154        7.265      861.498
11/14/2014  23:45:00       12.540      -25.933       17.345       23.982       28.660       17.689      575.139      821.414      312.916        0.142        0.085       28.806       16.083        0.312      336.132        7.227      861.488
11/14/2014  23:46:00      -12.705      -47.729       -1.277       56.285       21.197       19.143     3167.967      449.329      366.473        0.321        0.199       49.391        9.288        0.035      336.144        7.248      861.465
11/14/2014  23:47:00      -87.465      -69.458        7.734       91.745       74.021       40.465     8417.109     5479.076     1637.390        1.403        0.777      111.690       17.873        0.026      336.103        7.179      861.474
11/14/2014  23:48:00     -132.960      -65.160        2.642       84.264       57.605       38.076     7100.505     3318.391     1449.777        1.690        0.593      148.068       49.361        0.111      336.096        7.165      861.498
11/14/2014  23:49:00      -52.617      -83.838       -0.028       46.881       59.322       33.112     2197.839     3519.060     1096.423        0.830        0.341       98.982       28.821        0.085      336.155        7.266      861.496
11/14/2014  23:50:00      -13.561      -54.198       -0.027       54.665       41.232       23.321     2988.295     1700.071      543.871        0.418        0.262       55.869       22.620        0.164      336.215        7.365      861.479
11/14/2014  23:51:00      -28.546       15.074       33.918       29.322       42.454       38.412      859.760     1802.304     1475.503        0.316        0.207       32.282       34.715        1.156      336.070        7.125      861.497
11/14/2014  23:52:00      -13.470      -28.760       -4.547       37.116       23.233       19.462     1377.561      539.777      378.766        0.166        0.115       31.758       10.883        0.117      336.118        7.204      861.502
11/14/2014  23:53:00      -27.568        1.472        8.944       38.408       31.407       16.875     1475.159      986.409      284.762        0.179        0.137       27.607       14.566        0.278      336.068        7.120      861.512
11/14/2014  23:54:00      -49.255       19.559       -2.482       31.209       38.394       18.781      973.993     1474.122      352.739        0.281        0.140       52.997       11.376        0.046      335.975        6.965      861.529
11/14/2014  23:55:00      -58.668      -73.412       -8.642       46.151       41.069       22.630     2129.876     1686.674      512.136        0.662        0.216       93.975       13.015        0.019      336.265        7.450      861.541
11/14/2014  23:56:00      -39.002      -50.873       -9.845       45.567       44.584       23.509     2076.377     1987.751      552.682        0.441        0.231       64.103       20.392        0.101      336.228        7.389      861.531
11/14/2014  23:57:00       -5.917      -63.005      -13.140       31.678       47.912       29.713     1003.472     2295.513      882.845        0.418        0.209       63.282       23.697        0.140      336.122        7.210      861.530
11/14/2014  23:58:00       -2.349     -113.703       -3.269       45.182       52.674       33.790     2041.393     2774.571     1141.779        0.945        0.298      113.728       23.967        0.044      336.140        7.242      861.516
11/14/2014  23:59:00      -14.285      -71.633        5.178       32.070       42.810       29.396     1028.497     1832.721      864.132        0.454        0.186       73.043       13.633        0.035      336.106        7.184      861.531
